GFSMW_sfc_temp_000.txt.gz
Temp
84 85 85 87 85 85 84 84 83 81 80 78 76 76 75 77 77 77 78 77 77 76 75 74 75 75 73 73 73 72 70 70 70 67 68 70 72 72 72 72 73 73 73
80 82 82 81 83 83 83 82 82 82 81 80 79 79 80 79 79 77 76 76 76 76 75 74 74 74 73 72 72 72 69 69 71 65 63 58 67 70 70 71 70 71 73
75 78 79 78 77 78 80 82 81 82 82 80 80 79 79 76 74 76 75 74 75 75 75 74 74 74 73 72 72 72 69 67 69 68 64 59 58 64 70 68 70 71 71
76 76 75 75 76 76 77 77 79 79 81 81 78 76 74 73 77 78 77 75 75 75 75 74 74 74 74 72 72 72 71 68 65 65 66 65 65 59 59 68 68 71 70
75 75 74 74 75 73 72 74 76 77 78 79 78 77 75 77 79 80 77 76 76 75 74 74 73 73 74 74 73 72 70 71 65 63 62 61 60 60 56 57 62 68 69
75 76 75 75 75 74 73 73 73 75 76 76 77 76 75 75 76 76 75 75 75 75 73 74 74 74 73 72 72 72 70 68 66 63 63 62 62 59 55 55 59 62 66
74 73 71 72 72 71 71 73 74 74 74 74 74 76 75 75 74 75 76 75 75 74 73 73 73 74 73 73 73 72 69 64 62 62 62 63 63 66 63 62 62 61 66
74 72 71 70 70 69 70 71 72 72 73 73 73 74 74 74 75 75 76 76 77 77 77 75 75 75 74 73 72 71 70 67 63 62 62 62 63 67 67 63 61 57 60
72 71 71 69 69 69 69 70 71 71 71 72 72 73 74 73 73 75 76 76 76 76 77 76 74 74 75 74 73 71 69 69 67 64 62 62 64 66 67 67 65 60 56
69 69 69 68 69 69 70 70 71 70 70 71 72 72 72 73 73 73 73 74 75 75 75 74 74 74 74 74 73 71 71 69 67 65 64 63 63 63 66 64 63 63 59
65 66 67 68 68 69 68 69 70 70 69 70 70 71 71 72 72 72 73 73 74 75 74 74 73 73 73 73 72 71 70 68 68 66 64 64 65 63 64 61 59 58 56
64 65 66 67 67 67 68 69 69 70 70 69 70 70 70 71 71 72 72 73 72 73 73 73 73 72 72 72 71 70 69 68 66 66 65 64 64 64 64 61 59 57 58
63 65 66 66 67 67 68 69 69 69 70 69 69 70 70 69 70 70 71 72 71 72 72 71 70 70 70 70 70 70 70 70 69 67 65 66 65 63 63 61 59 59 57
61 63 65 66 67 68 69 69 69 69 69 68 68 68 68 69 69 69 69 69 70 70 70 71 70 70 69 69 69 69 69 67 69 67 67 66 64 64 63 61 59 59 57
62 64 64 66 68 68 68 68 67 67 66 65 65 66 66 67 67 66 67 69 69 69 69 68 69 70 69 68 67 67 66 65 66 66 66 65 62 58 62 60 59 58 58
61 62 63 64 65 63 61 62 63 62 63 62 62 63 63 63 62 63 64 65 66 68 69 68 68 68 68 60 56 59 65 64 63 63 64 64 55 56 56 55 55 58 57
59 60 61 62 60 59 60 59 60 61 61 60 61 61 60 60 60 61 62 62 63 65 65 67 68 68 68 59 56 54 60 62 63 63 62 62 60 56 60 55 54 54 54
59 60 61 59 58 59 58 58 59 59 59 59 58 58 58 58 59 59 60 60 62 62 63 64 65 65 66 56 55 53 61 62 62 62 61 61 61 58 58 54 53 52 50
57 57 54 54 55 56 56 55 56 56 56 56 55 56 56 56 57 57 58 59 59 60 61 62 62 62 65 56 53 54 61 58 59 60 60 60 60 58 53 53 47 44 42
51 51 51 50 50 53 54 52 53 53 53 53 53 54 55 55 55 56 56 57 58 58 59 59 61 59 61 58 54 54 60 58 57 57 58 53 57 54 52 52 47 43 41
49 50 49 50 51 52 51 50 50 51 52 52 53 53 54 54 55 55 56 56 56 56 56 58 59 60 59 60 53 52 56 57 57 56 55 55 51 51 50 51 49 47 42
47 48 48 48 50 50 49 48 48 50 50 50 50 51 52 53 53 53 54 54 54 53 54 55 55 57 57 54 54 52 51 52 53 54 56 53 49 48 48 48 48 45 43
45 47 45 46 48 48 48 46 47 49 48 48 48 49 50 51 52 51 52 52 53 53 52 51 51 50 52 55 51 52 51 51 50 52 52 49 47 47 47 47 45 42 37
43 44 44 44 44 46 46 46 47 48 46 46 46 47 47 48 50 51 51 51 51 50 49 48 47 47 47 50 52 52 51 50 49 46 47 47 47 46 44 42 41 38 37
42 43 42 42 43 44 44 46 46 46 44 44 45 45 46 46 47 48 49 49 50 48 46 47 47 46 43 45 46 45 46 46 48 44 44 42 40 38 38 35 36 36 38
41 40 40 41 41 42 43 44 45 44 42 42 42 43 43 45 46 45 47 47 46 45 45 44 45 48 47 46 45 44 44 45 46 42 41 38 37 36 35 34 34 35 35

GFSMW_sfc_temp_003.txt.gz
Temp
86 87 87 88 89 90 89 88 87 87 85 82 80 77 77 78 79 80 80 80 79 79 76 75 75 75 73 73 74 72 70 70 72 68 68 69 70 70 71 71 71 70 71
81 82 83 84 84 85 87 86 86 86 86 82 81 81 80 81 81 80 80 79 79 79 78 76 74 75 74 73 73 72 69 69 71 65 63 58 64 68 70 71 70 70 71
77 78 79 79 78 79 81 83 85 84 85 84 82 81 81 80 78 79 78 78 79 78 77 76 75 74 74 72 72 72 69 65 68 69 64 58 56 62 67 66 67 67 67
77 77 76 76 75 74 76 78 81 83 83 83 81 78 76 74 77 78 79 79 79 77 77 76 76 75 74 73 72 72 70 68 65 67 67 66 66 59 58 64 66 67 68
75 74 74 75 75 73 74 75 77 79 81 82 81 79 77 78 80 80 80 80 80 78 76 76 75 74 74 74 73 72 70 70 67 66 64 63 62 63 59 56 60 64 66
75 75 75 75 73 73 73 74 77 78 78 77 78 77 76 77 77 77 78 79 79 78 77 76 75 74 74 73 73 73 71 70 69 68 67 63 59 56 56 55 58 59 64
74 73 71 71 71 70 71 73 74 74 76 76 76 77 76 76 75 75 76 77 78 77 76 76 74 74 74 74 73 72 71 70 68 68 67 66 65 64 62 59 59 59 62
74 72 70 71 70 70 71 72 73 72 74 74 74 76 76 75 75 76 77 77 77 78 80 78 76 75 75 75 74 72 71 70 69 67 66 65 65 65 64 60 57 55 59
71 70 70 70 70 70 71 71 72 72 72 73 74 74 75 74 74 75 76 76 77 77 77 77 77 76 75 76 74 72 71 71 70 68 66 65 66 65 65 64 62 57 53
70 70 70 70 70 70 71 72 72 72 72 73 73 73 73 74 74 74 73 74 75 76 76 76 76 76 76 75 74 73 73 71 70 69 67 65 65 66 65 63 63 62 58
68 68 69 70 70 71 71 72 72 71 71 72 72 72 72 73 73 73 73 73 74 74 73 74 74 74 74 75 73 73 72 71 70 70 68 66 66 64 64 64 62 61 60
67 68 69 69 71 70 71 71 72 71 71 72 72 72 72 72 72 72 72 72 72 73 72 73 72 72 72 72 72 71 71 70 69 69 68 66 65 64 64 63 61 60 60
66 68 68 68 69 70 71 71 71 70 70 69 68 69 69 69 69 69 70 71 71 71 72 71 70 70 69 69 70 70 70 69 69 68 67 67 66 64 63 62 61 60 59
64 65 67 68 69 70 69 68 67 68 67 66 66 65 66 66 66 67 67 67 68 67 68 69 70 69 69 68 68 68 67 67 68 68 67 68 66 65 64 62 61 60 57
63 65 64 66 67 68 67 65 65 64 64 64 63 64 64 65 64 64 64 65 65 66 66 66 67 68 68 69 67 66 65 65 65 66 66 66 64 60 62 63 62 60 57
62 63 63 64 65 64 62 61 61 62 63 62 61 62 62 62 61 62 62 63 63 63 64 64 65 65 67 60 57 56 62 63 62 62 64 65 58 58 56 57 58 60 57
61 61 62 62 62 60 60 58 59 60 60 60 61 60 60 59 59 60 60 60 60 62 61 63 63 63 64 59 57 55 60 61 61 61 61 62 62 58 61 57 56 56 55
60 60 60 57 57 58 58 57 58 58 57 57 58 58 57 56 57 58 58 58 60 60 60 61 61 60 62 56 54 54 59 60 61 61 61 60 61 62 59 58 57 55 56
58 56 56 55 55 55 56 55 54 55 55 55 54 54 55 55 55 55 56 57 57 57 58 58 59 59 60 55 53 53 57 56 58 59 60 60 59 59 55 55 54 52 47
55 53 53 54 55 54 53 51 51 51 52 52 52 53 54 54 53 54 54 56 56 56 57 57 59 57 58 55 52 53 55 52 53 54 57 55 54 55 54 54 53 45 40
53 52 52 51 51 52 51 49 49 49 51 51 51 51 52 52 53 53 54 54 54 54 55 55 57 57 56 56 52 51 52 51 51 51 51 53 53 52 52 52 52 48 41
49 49 48 48 50 50 49 47 46 49 50 50 49 50 51 51 52 51 52 52 52 52 52 53 52 54 55 52 52 50 50 50 47 47 50 51 50 50 50 50 52 49 43
46 47 46 46 48 49 48 45 46 48 48 47 47 48 49 49 50 49 49 49 50 50 50 49 48 48 50 51 51 51 49 48 46 47 47 48 47 47 49 49 47 45 39
44 45 44 44 44 46 46 46 46 47 46 44 45 46 46 46 47 48 49 48 48 47 47 45 44 45 46 47 49 48 47 46 45 45 45 46 46 46 46 45 43 38 38
43 43 42 42 42 44 44 45 45 45 43 43 43 43 44 43 44 45 46 47 48 46 43 43 43 42 42 45 46 45 44 43 44 44 44 43 40 38 38 38 34 35 36
42 41 41 41 41 42 42 43 44 43 41 40 40 41 41 42 41 42 44 46 45 44 44 44 44 45 46 45 44 44 43 44 44 44 43 40 37 37 37 33 33 34 35

GFSMW_sfc_temp_006.txt.gz
Temp
72 73 72 72 72 73 73 75 75 74 73 70 68 67 68 67 68 71 72 73 73 72 71 69 68 68 66 66 66 64 62 62 60 57 57 58 60 59 61 60 61 62 62
68 69 69 67 67 67 68 70 73 74 73 71 70 70 69 70 72 71 73 74 73 72 71 70 68 68 67 66 66 65 62 63 60 59 54 54 56 61 64 65 66 66 66
65 65 65 64 63 62 63 67 69 71 73 72 70 68 68 67 66 69 69 70 71 71 71 70 69 68 68 67 66 66 63 61 61 65 61 53 51 51 57 62 65 65 59
64 65 64 62 61 61 63 65 67 69 72 71 69 67 65 63 66 67 68 69 70 71 71 71 70 69 68 67 67 67 66 66 63 63 66 65 59 54 52 55 56 59 61
63 63 63 64 63 62 61 63 66 67 68 68 67 65 65 66 66 67 68 68 69 71 71 70 69 69 69 69 68 68 68 68 65 64 63 62 61 61 57 55 59 59 61
63 64 64 64 61 61 61 62 64 65 65 65 66 65 63 63 63 63 64 65 66 67 67 69 69 69 69 68 68 68 67 66 66 65 65 63 59 58 58 56 56 57 62
62 61 60 60 60 60 61 64 62 62 64 63 64 64 63 63 62 63 63 64 64 65 66 66 67 68 68 68 68 68 67 66 65 65 64 65 65 64 61 58 57 55 59
61 60 60 59 59 60 60 61 62 62 63 62 62 63 63 62 63 63 65 65 66 66 67 67 67 67 68 68 68 68 67 67 66 65 65 65 66 66 65 61 58 55 57
61 60 59 59 59 59 60 61 61 62 62 62 62 62 62 62 61 62 62 62 63 68 67 65 66 67 69 69 69 67 68 67 67 65 65 65 66 66 65 64 62 58 54
61 60 60 60 60 59 61 61 62 62 62 62 61 63 62 62 62 62 61 62 62 63 63 63 63 64 65 66 66 67 67 67 67 67 66 66 66 66 64 63 62 61 58
59 59 60 60 61 61 61 61 61 61 60 61 61 60 60 61 62 62 63 63 63 63 63 63 63 63 62 64 65 66 66 65 66 66 66 65 66 65 64 63 62 60 60
59 60 60 60 60 60 61 60 60 60 60 60 59 59 59 59 58 59 60 61 61 63 63 63 63 64 63 63 62 63 64 63 63 64 65 65 66 64 64 63 61 61 61
59 60 60 60 60 60 60 59 59 58 59 58 57 57 57 56 56 57 59 60 60 60 61 61 61 61 62 63 63 63 63 62 63 63 63 64 64 63 64 63 62 61 60
59 58 57 57 58 59 58 57 57 57 57 57 55 55 55 55 56 57 57 58 59 58 59 60 60 60 61 62 62 62 59 59 61 61 61 62 62 62 63 63 62 60 59
58 57 56 55 56 55 55 55 55 55 56 55 54 54 54 55 55 55 56 57 57 58 58 58 58 59 60 62 58 59 58 57 57 58 59 60 58 55 57 61 62 60 58
57 57 57 55 53 51 52 54 53 53 54 52 53 54 54 53 53 53 54 54 55 55 56 56 56 56 59 56 56 56 55 55 55 55 57 58 55 57 57 56 56 58 58
55 54 52 51 51 51 52 49 50 53 54 51 53 52 52 51 51 52 52 52 51 53 52 54 54 54 55 55 55 53 53 53 53 54 54 55 58 55 57 57 56 55 55
53 51 50 49 49 50 50 49 50 50 49 49 49 50 49 49 50 50 49 49 51 50 51 52 52 53 55 53 52 51 53 51 51 51 52 53 53 55 55 55 55 56 57
49 49 48 48 48 48 47 47 46 46 47 47 46 47 48 47 47 47 47 48 48 48 49 51 51 51 52 51 51 51 50 49 49 52 52 53 51 52 52 51 51 53 55
51 47 47 47 46 46 46 44 43 43 43 45 45 46 46 46 45 45 45 47 47 48 49 49 51 51 50 50 51 50 49 46 47 48 48 49 49 50 50 49 48 49 52
47 49 48 44 43 44 43 41 41 40 43 44 44 44 45 44 45 45 45 45 45 46 46 47 48 48 48 48 50 49 47 46 44 43 45 47 48 48 48 48 47 46 51
47 47 43 42 44 45 42 39 38 42 43 43 43 42 43 44 45 42 43 43 43 42 43 44 44 46 46 48 48 48 48 47 42 41 43 45 46 46 46 46 48 48 48
43 43 41 41 42 43 41 37 39 41 41 40 40 40 41 41 42 40 40 39 41 40 41 41 40 40 43 43 46 47 47 45 42 42 43 45 45 45 45 46 47 47 41
41 41 39 39 38 39 40 38 39 40 39 37 37 38 38 39 39 40 40 39 38 39 39 38 37 37 39 40 42 43 42 43 42 42 43 44 46 46 45 45 44 39 37
40 39 37 37 36 36 36 37 39 38 37 37 37 36 37 36 36 38 37 38 40 40 38 37 37 36 36 40 44 42 40 40 41 42 42 41 40 40 40 37 34 34 36
37 36 35 34 34 35 35 37 38 37 35 35 35 35 35 35 35 34 35 41 41 41 42 42 41 41 43 43 43 42 42 42 43 40 38 36 36 36 37 34 32 33 32

GFSMW_sfc_temp_009.txt.gz
Temp
63 64 64 63 62 62 63 64 67 68 70 63 64 65 68 63 64 65 67 67 68 67 65 67 63 61 63 64 63 62 59 61 56 55 59 58 59 60 62 64 63 64 63
61 62 61 59 59 59 60 62 65 66 67 67 67 65 64 64 66 66 67 67 68 67 66 67 66 65 65 63 62 62 62 62 58 59 53 55 60 60 63 63 61 62 63
59 58 58 57 57 58 58 62 63 65 66 67 66 65 64 63 63 63 64 66 68 69 68 68 68 66 64 65 64 63 61 61 59 60 61 53 51 49 53 59 63 64 63
57 58 58 57 57 57 58 61 62 63 66 64 63 63 62 61 62 63 65 66 67 68 70 70 68 66 65 65 65 65 63 63 61 60 63 64 55 54 53 52 54 58 61
57 58 58 60 58 58 57 59 61 62 62 62 61 60 59 60 61 62 62 63 65 65 67 68 68 66 66 66 65 67 66 65 63 63 63 61 61 61 58 55 60 54 57
57 58 59 59 58 57 57 58 60 60 60 60 60 59 58 58 58 59 59 60 62 63 64 65 65 66 67 66 66 66 66 67 65 64 64 62 58 58 57 56 58 59 63
56 56 56 56 57 56 57 59 59 59 59 59 59 59 58 58 57 57 57 58 59 60 63 62 65 68 68 67 67 66 65 65 65 64 64 64 63 64 63 60 59 59 63
56 56 56 56 56 57 57 57 58 58 58 58 58 58 58 57 58 57 57 57 58 59 60 62 62 63 67 68 67 65 64 65 63 64 64 64 65 64 63 61 59 56 58
56 57 57 56 56 56 57 57 58 58 58 58 57 57 58 57 57 56 57 57 59 63 62 61 61 62 62 62 61 63 63 64 65 65 65 64 65 64 64 64 62 58 53
56 56 56 57 58 56 57 57 57 57 56 56 56 57 56 56 56 56 56 57 59 60 60 60 60 60 61 61 61 60 61 61 62 62 62 63 64 63 64 63 63 61 57
55 56 56 57 57 57 56 55 56 56 56 56 55 54 55 55 56 56 56 57 58 59 59 59 59 59 59 60 59 59 60 60 60 60 60 60 62 61 62 62 62 60 59
55 56 57 57 56 55 55 55 55 55 55 55 54 54 54 53 53 54 54 56 56 57 57 57 57 58 58 59 58 58 59 58 58 58 58 58 61 59 60 60 60 61 60
56 55 55 54 54 53 53 53 53 53 53 54 52 53 52 51 50 51 54 55 55 55 56 56 56 56 56 57 57 58 56 56 57 56 56 57 57 56 57 57 57 59 60
56 54 53 52 51 51 51 51 52 52 53 52 51 52 51 51 52 53 53 53 54 54 54 55 55 55 55 56 56 55 55 55 55 55 55 55 55 55 55 55 56 57 56
53 53 51 47 47 49 50 50 51 51 52 50 49 50 49 51 51 51 51 52 52 52 53 53 53 54 54 57 54 54 53 53 53 52 53 54 53 51 53 54 54 54 54
52 51 49 47 46 46 47 48 47 48 49 48 48 49 49 49 48 48 49 49 49 50 50 50 50 51 54 53 53 53 52 52 50 49 50 51 50 52 53 54 54 54 52
48 48 46 46 47 46 46 44 45 47 46 46 47 47 47 46 46 47 47 46 46 47 47 46 49 49 50 52 53 51 50 48 48 47 47 50 53 51 52 51 52 52 53
47 46 45 45 46 46 45 45 46 44 45 44 44 45 45 44 45 45 44 44 45 44 45 46 47 47 50 51 51 50 48 47 47 47 47 47 45 46 47 47 47 47 49
45 45 46 45 46 45 46 44 42 42 42 41 41 43 43 42 42 42 41 42 43 43 43 45 45 45 46 49 48 48 46 45 45 47 46 45 44 47 48 45 44 44 45
48 47 48 48 46 44 42 41 39 38 38 40 40 41 41 41 40 40 40 42 41 42 43 42 43 45 43 46 47 46 44 42 43 43 43 45 45 47 47 44 42 40 42
46 46 45 43 40 41 40 38 37 36 38 40 40 40 40 39 40 39 40 40 39 39 39 40 41 41 43 42 45 45 43 41 41 40 40 41 44 44 45 46 43 43 45
45 46 41 39 40 40 38 35 34 37 38 38 37 38 38 39 41 37 37 37 37 36 36 37 38 40 40 43 43 44 44 44 40 39 40 40 43 43 45 46 47 47 47
44 43 38 38 39 38 36 34 35 36 36 35 35 35 37 37 37 35 35 35 36 34 35 36 35 36 38 39 42 43 44 43 40 40 41 42 43 44 43 43 44 44 41
41 39 38 37 37 38 36 34 35 36 35 33 33 34 34 36 35 36 36 34 33 34 34 34 33 34 35 37 39 40 39 41 39 40 39 42 43 42 41 39 40 36 36
40 39 36 34 36 35 33 35 36 34 33 32 34 33 34 33 33 34 34 34 35 36 34 34 34 33 33 36 40 40 38 38 39 40 38 37 37 36 35 35 36 35 34
37 36 35 35 34 32 32 33 34 33 31 33 33 33 33 33 32 31 32 38 38 38 39 39 38 38 40 40 40 40 40 40 40 37 33 32 32 33 33 33 33 34 33

GFSMW_sfc_temp_012.txt.gz
Temp
58 59 58 58 58 58 59 61 63 64 64 62 60 60 64 61 61 63 65 65 65 65 64 65 65 60 62 64 63 61 59 60 54 53 59 59 59 60 62 63 62 63 63
57 57 57 56 56 55 57 59 61 62 62 62 63 63 62 62 63 64 65 65 65 66 65 65 66 64 63 63 63 60 61 60 56 56 57 55 61 62 61 63 62 62 64
56 55 55 54 54 54 55 59 59 60 61 62 62 62 62 62 62 62 62 64 65 65 65 67 66 66 63 64 63 61 59 59 63 59 59 53 52 51 53 55 60 61 60
55 55 55 55 54 54 55 57 59 60 62 60 60 59 58 58 59 59 61 62 63 63 64 66 66 65 65 62 64 64 61 61 59 63 61 62 61 55 55 57 53 56 58
54 54 55 56 55 55 55 56 58 60 59 58 57 56 56 56 57 57 58 59 60 62 62 62 62 62 64 64 64 64 63 63 61 61 61 60 59 60 56 54 59 60 58
53 54 55 56 55 54 55 55 57 57 58 58 57 56 54 55 56 55 56 57 58 59 60 62 61 61 63 63 65 65 64 64 63 63 62 61 58 58 56 55 57 58 63
53 53 53 54 54 54 54 57 56 55 56 56 56 55 54 54 53 53 53 54 56 57 59 58 59 59 60 61 62 62 62 63 62 62 62 63 62 63 61 59 58 57 62
53 54 53 53 54 55 55 55 55 54 55 55 54 54 54 54 54 53 53 53 54 54 56 57 58 58 59 59 59 57 58 60 60 60 61 62 63 63 62 59 58 56 58
53 54 54 54 55 55 54 54 54 54 54 53 53 52 52 52 52 52 52 52 54 59 57 55 56 57 57 58 57 57 56 56 56 56 57 58 60 61 61 62 60 57 54
53 53 54 54 55 53 53 53 53 52 52 53 52 53 51 52 52 52 51 52 54 55 55 55 56 56 56 56 56 56 56 56 56 56 55 55 57 58 58 59 59 59 56
53 53 53 54 53 52 52 51 52 52 51 51 51 50 50 51 50 50 50 50 51 53 53 54 54 54 55 55 54 54 55 54 54 54 54 54 56 55 56 56 57 56 56
53 53 53 52 51 50 50 50 50 50 50 50 50 49 49 48 48 49 51 52 51 52 52 53 53 53 53 53 53 52 52 52 52 52 52 52 55 52 53 53 53 53 54
52 52 51 50 49 49 49 48 48 49 49 49 48 48 47 47 47 48 50 50 50 50 51 51 50 50 51 51 52 51 52 51 51 51 51 51 51 50 51 51 50 51 53
53 50 48 47 47 48 48 47 47 48 48 48 47 46 45 45 46 47 48 48 49 48 48 49 49 49 50 50 51 51 50 50 51 50 50 50 49 48 48 48 48 51 51
50 49 45 44 45 45 45 45 46 47 47 46 45 44 45 45 45 45 45 46 46 46 47 46 47 48 48 51 49 49 49 47 48 47 48 49 48 48 50 50 47 48 47
48 46 46 43 42 42 43 45 44 45 45 44 43 44 44 44 43 43 44 44 44 44 44 44 44 44 47 49 50 49 47 46 45 44 46 47 47 49 49 49 49 48 44
45 45 43 44 44 43 44 42 43 44 46 42 43 42 42 42 41 42 42 41 41 41 41 42 42 42 44 48 49 49 45 44 44 43 43 44 47 45 44 45 47 47 47
44 43 43 43 43 45 43 43 44 43 41 40 40 41 41 40 40 40 39 39 40 39 40 40 41 41 43 46 47 47 43 42 42 42 42 42 42 43 43 42 41 41 43
43 43 43 43 42 42 41 40 39 38 38 38 38 39 39 38 38 37 37 38 38 38 38 40 39 39 40 45 45 44 41 40 40 41 42 42 41 44 45 41 39 40 41
44 45 44 46 42 40 39 37 36 35 35 36 37 38 38 37 36 36 36 37 37 38 39 38 38 40 39 43 44 43 40 38 38 40 40 42 42 43 44 40 39 37 40
46 46 44 41 40 38 37 35 34 33 35 36 36 36 36 35 36 36 36 36 35 36 35 35 36 37 38 39 42 42 39 38 38 38 37 39 42 42 43 43 41 41 42
45 43 42 41 41 38 35 33 32 34 34 35 35 34 34 36 38 34 34 34 34 33 33 33 34 36 37 40 40 42 42 42 37 36 37 38 41 42 43 43 43 43 42
42 42 40 40 39 36 34 31 33 33 33 32 32 32 34 34 34 32 32 32 33 31 31 32 32 32 35 36 40 41 41 40 38 38 39 41 41 41 40 40 42 41 35
40 40 39 38 35 34 34 33 33 33 32 30 30 31 31 33 33 33 33 32 30 30 31 31 30 31 33 34 36 37 36 38 36 38 37 38 38 39 38 38 38 36 34
39 39 37 33 32 32 31 32 33 32 29 29 29 30 31 31 31 32 31 31 32 33 32 32 32 31 30 33 38 37 36 35 37 37 34 33 32 31 31 33 34 35 34
37 33 32 31 30 30 30 31 32 31 29 30 31 31 31 30 31 30 30 36 36 37 37 37 36 36 37 38 39 38 38 38 38 33 30 28 27 28 30 30 31 33 33

GFSMW_sfc_temp_015.txt.gz
Temp
55 56 55 55 56 56 56 57 59 59 60 60 59 58 59 60 60 60 62 63 63 63 61 63 63 60 61 63 63 59 58 58 55 57 60 61 61 60 61 63 63 62 63
53 54 54 53 53 53 54 56 58 58 58 59 60 61 60 60 61 61 62 63 63 63 62 61 63 63 61 60 61 59 60 60 55 58 57 54 59 58 59 61 61 61 63
53 52 52 51 52 52 53 56 57 59 58 58 60 60 60 60 59 59 60 61 62 62 61 61 61 61 60 60 62 59 57 58 60 57 58 52 53 54 56 54 59 60 60
52 52 53 52 52 52 53 55 57 58 59 58 58 56 55 54 55 56 56 58 59 59 60 60 60 59 60 59 60 62 59 59 57 60 61 60 60 55 55 63 57 59 59
52 52 53 54 52 53 52 53 56 57 55 56 54 54 53 52 53 53 54 54 56 57 58 58 56 57 58 60 61 60 60 62 60 59 60 60 58 58 54 53 58 62 59
52 52 53 54 53 52 53 53 55 54 55 55 54 53 51 52 53 52 52 53 54 54 57 57 56 55 55 55 56 56 56 58 59 60 61 59 58 57 56 54 56 57 62
51 51 52 52 52 52 52 55 53 52 53 53 52 52 51 50 50 49 50 50 52 53 54 53 54 54 55 55 55 53 52 54 53 55 56 58 58 59 58 57 55 56 60
50 51 51 51 52 52 51 52 52 51 51 51 51 50 51 50 50 49 49 49 49 50 52 53 53 53 54 55 55 53 52 52 51 51 53 54 55 57 57 55 53 52 54
50 51 51 52 51 50 50 51 51 51 51 51 50 49 49 49 48 48 49 49 50 55 53 51 51 53 53 54 53 52 51 52 51 50 50 52 54 54 54 55 55 51 48
51 51 51 51 50 50 49 50 50 50 50 50 49 49 48 48 48 48 47 48 49 50 50 50 51 51 52 52 52 51 52 51 51 51 50 50 52 52 52 52 53 53 50
51 51 51 50 49 49 49 49 49 49 48 49 48 47 47 47 46 46 46 46 47 47 49 49 49 49 49 50 49 50 51 49 49 50 49 49 50 50 50 50 50 49 50
51 50 50 48 48 47 47 47 48 48 47 47 47 46 46 45 44 45 46 47 46 47 47 47 47 47 47 47 47 47 48 47 47 48 48 48 51 47 47 47 47 47 47
50 49 48 47 47 46 46 45 46 46 46 46 45 44 44 43 42 43 45 45 45 44 45 45 44 44 45 45 46 46 46 46 47 47 47 46 46 44 45 44 44 46 48
51 49 46 45 45 45 45 44 45 45 45 45 44 43 42 42 42 41 42 43 43 42 43 43 43 43 44 44 45 45 44 45 45 46 45 45 45 44 44 44 45 43 41
47 46 44 43 43 43 43 43 43 44 45 44 42 41 41 41 40 40 40 41 41 41 42 41 42 42 42 46 44 44 44 42 42 42 43 44 44 46 47 46 43 41 39
46 44 44 42 41 41 41 44 46 43 42 41 40 40 40 39 38 39 39 39 39 39 39 39 39 39 43 45 46 45 43 42 40 39 40 42 43 43 46 46 46 45 39
43 43 42 42 42 42 46 41 43 42 40 39 39 39 39 38 37 38 38 37 36 37 37 37 38 38 39 44 45 45 42 40 38 38 39 39 42 42 41 43 44 44 44
42 42 42 41 42 43 44 44 42 40 38 37 37 37 37 36 36 36 35 35 36 35 35 36 37 37 39 42 43 44 40 39 38 39 39 38 38 39 40 39 38 38 39
42 42 41 41 41 44 44 42 38 36 35 35 35 35 35 35 35 34 34 34 35 34 35 36 36 35 36 41 42 41 38 37 37 39 39 39 38 41 43 39 36 37 39
43 42 41 45 43 42 40 39 37 33 33 34 34 34 34 34 33 32 33 34 34 34 35 34 35 36 35 39 41 40 38 35 36 37 37 40 40 42 42 39 36 33 35
41 42 41 41 40 38 37 37 36 31 33 34 34 33 33 32 32 32 33 33 32 33 32 32 33 34 35 36 40 40 38 37 35 33 35 36 40 41 41 42 36 36 39
42 42 42 41 40 40 38 35 31 32 32 32 32 32 31 33 35 30 31 31 31 30 30 30 31 33 34 37 38 40 40 40 35 34 35 35 39 40 40 39 40 40 40
41 42 40 39 39 38 36 30 31 31 31 30 29 29 30 30 31 28 30 29 30 29 28 29 29 31 33 34 38 39 39 38 36 36 37 38 38 38 36 36 38 38 34
37 38 39 38 36 33 31 30 30 31 29 28 27 28 27 31 30 30 30 29 28 28 29 29 30 30 30 32 33 34 34 37 36 34 35 35 35 35 34 33 34 33 33
39 39 37 33 30 30 29 29 30 29 28 28 28 28 29 27 28 30 29 29 30 31 31 31 31 29 29 31 37 36 35 35 34 36 31 29 29 28 28 29 30 31 31
36 34 30 29 29 28 28 29 30 29 27 28 29 29 29 28 29 29 28 34 35 36 37 36 35 34 36 37 37 37 37 37 37 32 26 26 26 25 26 26 27 29 29

GFSMW_sfc_temp_018.txt.gz
Temp
53 54 53 52 54 54 55 55 57 55 57 57 56 57 57 58 59 60 61 61 61 61 59 59 59 59 58 60 63 63 59 60 61 56 58 60 62 61 61 61 61 61 62
52 52 52 51 51 51 52 54 56 56 56 57 58 58 58 58 59 59 60 60 61 60 61 58 58 58 57 57 57 56 58 60 58 57 57 54 58 58 60 60 60 60 62
50 51 51 50 50 51 51 54 55 56 57 57 58 58 58 56 56 56 57 57 58 58 57 56 56 55 55 56 57 56 58 57 61 59 56 53 54 58 59 55 58 59 59
48 50 52 51 51 51 52 53 55 55 56 55 56 54 53 52 51 51 52 54 55 55 56 55 54 53 53 53 54 57 55 56 56 60 61 59 57 54 53 62 62 56 57
50 50 50 52 51 51 50 51 54 54 53 54 52 53 51 50 50 50 51 51 52 53 55 54 52 52 53 51 51 52 52 52 52 53 54 55 56 57 54 52 57 61 62
49 50 51 52 50 50 50 50 52 51 51 52 51 50 48 48 49 48 49 50 50 51 53 53 52 51 52 52 52 51 50 50 50 51 51 51 51 51 51 50 51 52 57
48 49 50 49 49 49 50 52 51 49 50 50 50 49 48 47 47 47 47 47 49 50 51 50 50 51 51 52 51 50 49 49 48 48 49 51 51 52 51 51 50 50 54
48 49 50 49 49 49 49 49 49 49 49 49 48 48 48 48 47 46 47 47 47 47 49 49 50 50 50 51 50 49 48 49 47 46 47 49 49 50 51 50 48 46 48
48 49 49 49 48 48 48 49 49 48 48 48 47 46 46 46 45 45 45 45 46 51 49 47 47 48 48 48 48 47 47 47 46 46 45 47 48 49 50 49 48 45 40
48 49 49 48 47 47 47 48 48 47 47 46 46 46 45 45 44 44 43 44 45 45 45 45 45 45 46 46 45 45 46 46 46 47 45 46 48 48 48 47 47 46 43
48 49 48 47 47 46 46 46 46 46 46 45 45 44 43 43 43 42 42 42 42 43 43 43 44 43 43 44 44 43 44 43 44 44 44 45 46 44 44 44 44 43 42
49 48 47 46 45 45 45 45 45 45 45 45 44 43 43 42 40 40 41 42 40 41 41 42 42 42 42 42 42 41 42 42 41 42 43 43 46 42 42 42 42 41 42
48 46 45 45 44 44 44 44 44 43 43 43 42 41 40 39 38 38 39 40 40 40 40 40 40 40 41 41 40 41 42 42 42 41 41 41 40 39 40 40 39 41 44
48 45 43 43 43 44 43 42 42 43 45 45 41 39 38 38 38 38 38 39 39 38 38 39 39 39 40 40 41 41 41 41 42 41 40 39 39 39 39 39 39 41 40
45 44 42 41 41 41 41 41 42 44 45 40 40 41 39 38 37 37 37 37 37 37 38 38 38 38 39 42 40 41 40 40 39 39 39 39 40 43 43 41 39 38 37
44 43 42 41 39 39 40 41 41 40 40 39 41 38 37 37 36 35 36 35 35 36 36 36 36 36 40 42 43 43 39 39 37 36 37 38 40 40 43 43 43 42 38
43 42 41 40 40 40 41 39 39 39 39 37 37 37 36 35 34 35 34 34 33 33 34 34 35 34 35 41 42 42 39 37 36 36 36 37 40 39 38 40 42 41 42
41 41 40 39 40 40 41 43 42 41 39 37 35 35 34 33 33 33 32 31 33 32 32 33 34 34 36 40 41 41 37 36 36 36 36 36 36 37 39 38 36 35 36
41 40 40 39 38 39 42 40 39 35 35 37 33 33 33 32 32 31 30 31 32 32 32 33 33 32 33 38 39 39 36 35 35 36 37 37 36 39 41 35 33 34 34
41 39 39 40 40 38 37 39 35 33 36 35 32 32 32 31 30 29 30 31 31 32 33 32 32 34 32 36 39 39 36 34 34 35 35 38 38 40 41 37 35 30 31
39 40 39 40 40 40 36 34 36 35 33 32 32 31 31 29 30 29 29 30 30 30 29 29 31 31 32 34 38 39 37 35 33 32 33 35 39 38 40 39 34 32 36
39 39 40 40 39 38 34 32 34 31 30 30 30 29 29 31 33 28 28 28 28 27 28 28 29 31 32 36 37 38 39 39 34 32 34 34 36 38 37 36 37 37 37
38 39 37 38 34 34 32 29 29 29 29 28 27 28 28 29 28 26 28 27 28 27 27 28 28 30 32 32 36 37 37 38 35 34 36 35 36 36 33 34 35 35 29
36 37 36 34 33 32 30 28 29 29 28 26 26 27 26 29 28 29 29 26 27 26 28 29 29 29 30 30 32 33 33 36 34 34 32 34 34 34 32 30 30 28 29
35 36 33 31 29 28 28 28 29 28 27 26 27 27 28 25 26 27 27 27 29 30 30 30 30 28 28 31 36 35 34 34 34 35 31 28 27 26 26 27 27 27 28
33 32 30 28 27 27 27 27 28 28 25 26 28 28 28 26 28 27 27 33 35 36 36 36 34 33 35 36 36 36 36 36 36 30 26 25 25 25 25 25 24 25 27

GFSMW_sfc_temp_021.txt.gz
Temp
58 59 58 59 61 61 62 62 62 62 66 66 66 67 65 65 65 66 67 67 67 67 66 66 66 66 65 65 65 65 64 65 66 60 60 64 68 68 69 70 69 68 68
58 57 58 58 58 59 61 61 61 62 63 65 65 66 65 64 64 64 63 64 64 64 64 63 62 63 63 63 62 62 60 63 65 59 57 55 62 69 66 68 68 69 70
56 56 57 57 58 57 58 59 60 61 61 64 66 65 64 63 62 61 61 61 62 62 61 61 61 60 60 59 59 59 58 56 60 62 57 54 54 58 65 67 68 69 68
56 56 56 57 57 56 58 59 59 60 60 62 61 60 59 57 57 58 59 60 60 60 60 59 59 59 59 58 58 59 57 56 54 58 63 58 57 51 51 64 65 67 67
56 55 55 55 56 56 56 57 58 58 58 59 59 58 56 56 57 57 57 57 58 58 58 58 57 57 57 57 56 56 55 56 54 54 54 54 55 56 52 48 55 60 64
54 55 55 55 55 55 56 56 57 56 57 56 56 55 55 55 55 54 55 55 56 56 56 56 56 56 55 55 55 55 54 54 53 53 53 52 49 49 49 48 50 52 58
53 54 54 54 54 54 55 56 56 54 55 55 55 55 54 53 52 52 53 53 53 53 53 54 54 54 53 53 53 52 51 51 50 51 51 52 52 52 51 50 47 48 54
53 54 54 53 54 53 54 54 54 53 54 54 53 53 53 53 52 52 52 52 51 52 52 52 52 52 52 52 52 51 50 50 49 49 49 49 51 52 51 49 45 40 47
52 53 53 53 53 53 53 53 53 52 52 52 52 51 51 51 50 50 51 50 51 52 51 50 50 50 50 50 49 49 48 49 49 48 48 48 49 51 51 49 46 42 36
52 53 53 52 52 52 52 52 52 51 51 51 51 50 50 49 49 50 48 48 49 49 48 48 48 48 48 48 48 48 48 48 48 48 47 47 48 48 48 48 47 47 43
52 52 52 51 51 51 51 51 51 50 49 49 49 48 48 48 48 47 47 47 47 47 47 46 46 46 46 47 46 46 47 45 46 46 46 45 46 45 46 46 46 45 44
52 51 50 49 49 49 49 49 49 48 48 48 48 47 47 46 46 45 46 46 45 46 45 45 45 45 45 45 44 44 45 44 43 44 44 43 45 42 43 43 42 42 43
50 49 48 48 48 48 48 48 47 47 47 47 46 46 45 44 44 44 44 44 44 44 44 43 43 43 43 43 43 44 44 44 44 44 43 42 42 40 42 41 41 42 43
49 48 47 47 47 47 47 46 46 47 46 46 45 44 44 44 43 43 43 43 43 42 42 42 42 41 42 42 43 43 43 43 43 43 42 41 41 40 41 41 41 41 40
47 46 45 45 45 45 45 46 46 46 45 44 43 42 42 42 42 41 41 41 41 41 41 40 40 40 40 43 42 42 42 41 41 41 41 41 41 41 42 42 40 39 38
46 45 45 44 44 44 44 44 44 44 44 43 41 41 41 40 40 40 40 39 39 39 39 39 38 38 40 40 42 42 41 40 39 39 40 41 40 41 42 41 42 42 38
46 45 44 43 43 44 44 43 43 44 42 41 40 39 39 38 38 38 38 37 37 37 37 38 38 37 38 39 40 41 40 39 39 38 39 39 41 40 38 40 41 40 39
44 43 43 42 43 43 43 44 43 42 40 39 39 38 37 37 37 37 36 36 37 36 36 36 37 36 37 38 39 40 40 39 39 39 39 38 38 39 39 39 35 37 39
44 43 43 42 42 43 44 42 40 39 39 38 37 37 36 36 35 35 35 36 36 36 36 36 36 35 35 37 38 39 39 38 38 39 39 38 38 40 40 35 34 36 36
43 41 41 42 43 42 42 40 38 37 37 36 35 36 35 35 34 35 35 35 35 35 35 34 35 35 34 36 38 39 38 36 36 37 37 38 39 40 38 37 35 31 33
41 41 41 41 41 42 41 38 37 36 35 35 35 35 35 34 35 35 34 34 33 33 32 32 34 34 35 36 38 38 37 36 34 34 35 37 38 37 39 38 35 33 36
40 40 39 39 39 40 39 36 35 35 34 33 33 33 34 34 35 33 33 33 32 31 31 31 32 34 36 36 37 38 38 38 35 34 36 36 37 38 37 36 35 36 35
39 40 39 39 37 36 35 34 34 33 32 32 32 32 33 33 33 32 32 31 31 30 30 31 31 32 34 35 36 37 37 37 36 36 36 37 37 36 34 34 34 34 30
37 38 39 37 35 34 34 33 32 32 31 30 31 32 32 34 33 32 32 30 29 29 30 31 31 31 32 33 34 33 34 36 35 33 35 35 34 34 33 32 32 31 30
37 37 35 34 33 32 31 31 32 31 31 31 31 31 32 30 30 31 31 31 33 32 32 32 32 30 29 32 36 35 35 34 34 35 33 31 30 29 29 29 29 29 29
34 33 32 32 31 30 30 31 31 31 29 30 32 31 31 30 30 29 30 33 34 35 36 35 34 34 35 36 36 36 36 36 36 31 28 26 27 25 26 26 26 27 27

GFSMW_sfc_temp_024.txt.gz
Temp
68 69 70 72 73 73 74 74 74 76 78 77 76 75 72 72 72 73 73 73 73 73 72 72 72 72 71 70 70 69 68 69 71 67 68 70 72 73 76 77 74 76 76
69 68 69 71 71 72 72 72 73 74 75 75 74 74 72 71 71 70 70 71 70 70 70 69 69 69 68 68 67 66 64 66 67 63 62 60 65 73 70 71 72 74 76
68 68 69 68 69 69 70 70 71 72 73 73 72 71 71 71 69 68 67 68 69 68 67 67 67 66 66 64 64 64 61 59 63 65 60 56 55 59 65 67 70 72 71
68 68 67 67 67 67 69 69 70 70 71 72 71 70 68 64 65 67 67 67 67 65 65 65 64 64 64 63 62 64 62 61 58 61 64 61 59 53 52 63 63 67 67
67 66 65 65 65 66 66 68 68 68 69 70 70 68 65 65 66 66 66 65 65 64 63 63 62 62 62 61 60 60 60 60 58 57 57 57 59 58 53 50 56 61 64
66 66 64 64 64 65 65 65 65 65 66 66 67 65 64 64 63 62 63 63 64 63 61 61 61 61 59 58 59 59 58 57 56 56 56 54 52 51 52 51 52 53 57
65 63 63 64 64 63 63 64 65 63 64 64 64 63 62 62 60 61 61 60 61 60 58 59 59 59 57 57 57 56 55 54 53 54 54 54 53 54 53 51 51 50 53
66 65 64 64 63 63 63 64 63 62 63 62 61 62 62 61 61 60 60 59 58 58 57 57 58 57 57 57 56 55 54 54 53 53 52 52 53 54 53 50 47 43 48
64 64 64 64 63 63 62 62 61 60 60 60 61 60 61 59 58 59 59 57 56 57 56 56 56 56 55 55 54 54 54 54 54 53 53 52 52 53 52 51 49 45 40
64 64 63 63 63 62 61 62 62 59 59 59 59 58 58 58 58 57 55 55 56 55 55 54 54 54 54 54 53 53 53 52 52 52 51 51 51 51 50 49 49 47 44
63 63 63 63 61 61 61 60 59 58 57 58 58 57 56 56 56 55 55 54 55 54 53 53 52 52 52 52 52 51 51 50 50 50 49 48 50 48 48 48 47 45 45
64 63 62 60 59 59 59 59 58 57 57 56 56 55 54 54 54 52 53 53 52 53 52 51 51 51 50 50 50 49 49 48 48 48 48 47 48 46 47 46 45 45 46
62 61 60 59 59 58 58 57 57 56 56 55 54 53 52 52 50 50 51 51 51 51 51 50 49 48 48 48 48 49 48 48 48 47 46 45 45 44 44 44 44 45 45
60 60 59 58 58 58 57 56 56 56 54 53 52 51 50 50 50 50 50 49 50 49 48 48 48 47 47 47 48 46 46 46 47 46 45 45 44 43 42 43 42 43 40
59 58 58 57 57 56 56 56 54 53 53 51 50 48 49 49 49 48 48 48 48 48 47 46 47 47 46 47 44 44 44 44 44 45 45 44 43 42 43 42 41 39 39
58 57 56 57 55 55 54 52 52 51 52 50 48 47 47 47 47 47 47 47 46 47 46 46 45 45 45 43 42 41 42 43 43 42 43 44 43 43 42 42 42 42 38
57 55 55 55 54 54 53 52 52 51 49 47 46 46 46 45 45 46 45 45 45 45 45 45 45 44 44 42 40 40 41 42 42 42 42 42 44 41 41 42 42 42 41
56 55 54 53 52 53 52 52 50 47 45 45 46 45 45 44 45 45 45 45 45 44 44 44 43 42 43 41 40 39 41 42 42 42 42 41 40 41 41 41 39 38 41
56 54 53 52 51 51 51 49 46 46 46 45 44 44 44 43 43 43 43 44 43 43 43 42 41 41 41 40 38 39 41 40 40 41 42 40 40 41 41 37 34 38 38
52 50 50 51 51 50 50 47 44 46 45 43 43 44 43 43 42 43 42 43 43 41 42 41 42 40 40 40 39 39 40 38 39 39 39 40 40 40 39 38 37 33 35
49 50 50 50 49 48 47 45 45 44 43 43 43 43 43 43 43 43 43 42 41 41 40 40 41 40 40 40 39 39 39 38 36 36 38 40 39 38 39 38 37 34 36
47 49 48 47 47 46 44 43 44 43 43 42 42 42 43 42 42 41 41 41 40 39 38 38 38 40 41 39 39 39 39 38 36 36 39 38 37 38 37 37 37 36 36
47 48 47 44 42 42 45 43 42 42 41 41 41 41 42 42 42 41 39 39 39 37 37 36 36 37 38 39 39 39 38 38 37 38 37 37 37 36 36 36 35 35 34
45 46 45 42 41 43 42 42 42 41 40 40 41 41 41 40 41 40 40 38 37 36 35 35 34 35 36 37 38 37 37 38 37 36 35 37 36 35 35 34 34 34 32
45 45 43 43 42 42 41 41 40 40 39 40 40 40 40 40 39 39 39 37 38 36 34 34 34 33 33 35 37 36 36 36 35 35 35 34 33 31 32 32 32 31 30
43 42 42 42 41 40 40 40 40 39 38 38 39 39 38 39 37 37 37 38 37 36 36 36 35 36 36 36 36 36 36 36 36 33 30 30 29 28 29 28 28 28 27

GFSMW_sfc_temp_027.txt.gz
Temp
75 75 75 77 76 77 77 78 78 79 79 78 77 76 72 73 72 73 74 73 73 73 72 71 71 71 70 69 68 67 65 65 68 64 64 66 67 71 71 70 70 70 72
73 73 74 76 76 75 76 76 76 77 77 77 75 74 73 72 71 71 71 72 71 70 70 68 68 67 67 66 65 64 61 63 64 60 58 56 61 67 65 66 68 68 69
72 71 72 72 73 72 73 73 74 74 74 73 73 72 72 71 69 69 68 68 69 68 67 66 65 65 65 63 62 62 59 57 60 62 57 52 51 54 61 63 65 65 65
73 72 71 70 70 70 72 72 72 73 74 75 74 71 68 65 67 67 68 67 67 65 65 64 63 63 63 61 60 62 60 59 55 58 61 58 57 50 49 59 60 63 63
71 70 69 68 69 69 69 70 71 71 72 72 71 69 66 67 68 68 67 67 66 65 63 63 62 61 60 59 58 58 58 58 55 54 54 55 56 56 50 46 52 57 59
70 69 68 68 66 67 68 68 68 68 69 69 69 67 66 66 65 64 64 64 65 63 61 61 61 60 58 57 57 57 56 55 54 54 53 53 50 49 48 46 47 48 53
68 66 65 66 66 65 66 67 67 66 67 67 66 66 64 64 62 62 62 61 61 60 58 59 59 58 57 57 57 54 53 53 52 51 52 53 52 52 51 48 46 46 49
68 66 67 66 65 65 66 66 65 64 65 64 64 64 63 62 62 61 60 60 59 58 58 58 58 58 57 57 56 54 53 53 52 51 52 52 52 52 51 48 45 40 43
67 67 67 67 65 65 65 65 64 63 63 63 63 62 62 61 59 60 59 58 58 58 57 57 56 56 56 56 54 53 53 53 52 51 51 51 51 51 51 50 48 42 36
67 67 67 66 66 65 65 65 64 62 62 62 61 61 60 60 59 59 56 56 57 57 56 55 55 55 55 54 53 52 52 51 51 51 50 50 50 50 49 48 47 46 41
67 66 67 66 65 64 64 63 62 61 60 60 60 59 58 58 58 56 56 55 56 55 54 54 53 53 52 52 51 51 50 50 49 49 49 48 49 47 47 46 45 44 43
67 67 66 65 63 63 62 62 61 60 60 59 59 57 57 56 55 54 54 55 54 54 53 53 52 51 51 50 49 48 49 48 47 47 47 46 48 45 45 45 43 42 43
66 66 65 62 62 62 62 61 60 59 59 58 57 56 54 53 53 53 53 53 52 52 52 51 50 49 49 48 48 48 47 46 46 46 45 45 44 43 43 42 41 41 42
65 65 63 63 63 62 61 60 59 59 57 56 55 53 52 52 52 52 51 51 51 50 50 49 48 48 48 48 48 46 44 44 45 45 44 45 43 42 41 41 40 40 38
63 63 62 62 62 60 60 59 58 57 56 54 52 50 51 51 51 50 50 50 50 49 49 48 48 48 47 48 45 43 42 41 42 43 44 44 44 44 44 42 40 38 35
63 63 63 62 60 59 58 57 55 54 54 52 50 50 50 49 49 49 48 48 48 48 48 47 47 46 47 46 45 43 40 40 40 41 43 44 43 44 44 43 43 41 37
63 62 61 61 59 58 57 55 54 54 52 50 49 48 48 47 47 48 47 47 46 47 46 46 46 45 45 45 44 42 40 39 41 41 41 42 44 42 40 41 42 41 41
62 61 60 59 58 58 56 55 53 50 48 48 48 48 47 46 47 46 46 46 46 46 45 45 45 43 44 44 43 41 40 40 41 41 41 40 39 39 39 39 36 36 37
61 60 59 57 56 54 54 51 49 48 48 47 47 47 46 45 45 45 45 45 45 44 44 44 43 42 43 43 42 41 40 39 39 40 40 39 39 41 41 36 32 34 35
58 55 55 54 53 52 52 50 47 48 47 46 45 46 46 45 44 44 44 44 44 43 43 43 43 43 41 43 42 41 39 37 37 38 38 40 39 40 39 36 35 30 32
53 53 52 52 51 51 50 48 48 46 45 46 46 46 46 45 45 44 44 43 43 42 42 41 42 42 42 42 42 41 39 37 35 33 35 38 39 38 39 39 35 33 36
50 52 51 49 50 50 49 45 46 46 45 45 44 44 45 45 44 43 43 43 42 40 40 40 39 41 42 41 41 41 40 39 35 34 36 37 37 38 38 37 37 37 36
49 51 49 46 46 46 48 46 44 45 44 44 44 44 44 44 44 42 41 40 40 39 38 37 36 37 38 39 40 39 39 38 36 36 37 36 37 37 36 36 36 35 31
48 49 47 44 43 45 45 45 44 44 43 42 43 43 42 42 42 42 42 40 39 37 36 34 33 34 34 35 36 37 35 36 35 34 33 36 36 36 34 33 32 31 30
47 48 46 45 44 45 44 44 43 43 41 41 41 42 42 41 40 41 41 39 40 38 34 34 34 31 31 34 37 36 35 34 34 35 33 32 30 29 29 29 29 29 28
47 45 45 45 43 44 43 43 43 41 40 39 40 40 39 40 40 39 39 41 40 40 39 38 37 36 37 37 37 37 36 36 36 32 29 27 27 26 26 26 26 26 26

GFSMW_sfc_temp_030.txt.gz
Temp
66 67 65 66 66 67 68 68 67 68 68 67 66 65 63 62 61 62 64 63 63 63 60 58 59 58 57 56 58 55 53 53 53 51 54 55 57 56 56 59 60 59 63
63 64 65 64 65 65 66 66 67 67 68 66 67 66 64 61 60 61 61 62 61 60 61 56 56 56 54 54 53 52 50 51 51 47 48 44 50 53 57 57 57 59 57
62 62 61 61 62 62 63 64 64 64 65 65 65 64 61 59 57 57 56 58 59 58 57 56 54 53 53 50 50 49 49 46 48 49 46 41 40 47 51 53 54 55 57
63 62 61 59 59 59 61 62 64 64 64 64 61 59 56 54 55 56 57 56 57 56 56 56 54 52 51 49 49 53 48 47 44 46 53 47 45 42 41 47 51 53 53
63 61 59 60 60 59 58 59 61 61 61 61 60 57 55 55 56 56 55 56 55 55 55 54 52 51 49 49 48 47 47 47 45 43 43 45 45 44 41 38 42 48 50
61 60 59 60 57 57 57 57 58 59 59 58 58 56 54 54 53 53 52 52 52 51 52 53 51 50 49 48 47 47 46 45 45 44 43 43 42 42 40 39 41 41 46
59 58 56 56 56 55 56 58 57 56 57 56 56 55 54 53 51 51 50 50 49 48 48 49 49 48 48 48 48 45 44 44 42 42 42 44 44 45 44 42 40 39 43
58 57 56 55 55 56 56 56 56 55 55 55 54 53 53 51 51 50 49 48 48 48 49 48 48 48 48 48 47 44 44 44 42 41 41 42 44 45 44 42 39 36 38
58 57 57 57 55 55 56 55 55 54 54 54 52 51 51 51 49 49 49 48 48 52 48 47 47 47 47 47 45 43 43 42 42 41 41 42 44 44 43 43 42 37 32
59 58 58 57 56 56 55 55 55 53 53 52 52 51 50 50 49 48 47 47 47 47 46 46 46 46 46 45 44 42 42 43 41 44 42 43 43 43 43 41 41 40 36
59 59 58 57 56 55 54 53 53 52 52 51 50 49 49 49 48 47 46 46 46 46 46 46 45 44 44 43 42 41 43 42 40 42 42 42 43 42 41 41 40 38 38
60 59 58 56 54 53 53 52 52 51 51 51 49 48 48 47 46 45 46 46 45 45 45 44 44 43 43 42 41 40 41 39 39 40 40 40 44 40 40 39 38 37 38
58 58 57 55 53 53 52 52 51 50 50 50 48 47 46 45 44 44 45 45 44 43 43 43 42 42 42 41 40 42 39 39 39 39 38 38 39 38 38 38 37 37 39
59 58 55 54 53 53 52 51 50 50 49 48 46 45 44 44 43 44 44 44 43 42 41 42 42 41 42 42 42 40 39 38 38 38 38 38 38 38 38 38 38 39 36
57 56 54 53 52 51 51 50 49 49 48 46 44 43 44 44 44 43 43 43 42 42 41 41 41 40 42 45 42 41 38 36 36 37 38 39 41 43 43 41 38 37 35
57 56 56 53 51 49 49 50 47 47 47 45 44 44 44 43 42 42 41 41 40 40 40 39 39 38 44 46 46 44 38 36 35 35 37 38 40 40 43 42 42 41 36
56 56 54 53 52 50 50 46 46 46 45 44 44 44 43 43 41 41 40 39 38 38 37 37 37 36 36 45 45 45 39 36 35 35 36 37 40 38 36 39 41 37 39
56 54 52 51 50 50 48 47 45 43 43 42 43 44 43 41 40 38 37 37 37 36 35 35 36 35 39 44 44 44 38 36 35 36 36 35 35 36 38 37 33 33 33
53 52 51 49 48 47 47 45 43 42 43 43 42 42 40 38 38 36 35 36 35 34 34 36 35 34 36 43 43 42 37 36 35 36 36 36 35 39 40 36 31 32 32
51 50 49 48 47 46 46 42 41 41 41 41 40 40 39 38 36 35 35 35 34 36 38 37 35 38 36 41 43 42 38 35 34 35 34 37 37 39 39 35 33 29 30
48 49 48 46 44 44 44 41 41 39 40 41 40 39 38 37 36 35 34 34 33 34 32 34 34 33 35 37 41 41 37 35 34 31 32 34 38 38 38 39 33 32 35
46 47 45 44 44 44 42 40 37 39 40 39 38 37 37 39 40 34 33 33 32 31 30 31 32 34 34 38 38 40 39 39 33 32 33 33 37 38 37 36 36 37 35
46 46 44 41 40 41 41 38 37 39 38 37 36 36 36 36 36 33 32 31 31 30 30 31 30 31 33 33 37 38 38 37 35 34 35 36 37 36 34 34 35 34 28
43 43 41 38 37 38 39 38 38 38 37 35 34 34 33 35 33 34 33 31 30 29 31 31 30 30 31 31 33 35 34 36 34 33 31 34 34 34 32 31 30 29 28
42 42 39 37 37 38 38 37 37 36 33 33 32 33 33 32 31 32 31 30 31 33 33 32 31 29 29 32 38 37 35 33 34 34 30 28 27 26 26 27 28 28 27
41 39 38 38 38 37 36 36 36 35 33 31 31 31 31 30 30 29 32 38 39 40 40 39 37 36 38 39 38 37 37 36 36 30 26 25 24 24 25 25 24 25 25

GFSMW_sfc_temp_033.txt.gz
Temp
60 62 62 64 63 63 63 64 64 64 67 65 62 62 59 61 60 61 61 60 59 58 55 54 54 53 52 51 52 50 49 49 49 46 49 48 51 50 51 56 52 55 57
58 60 61 60 61 60 60 61 61 62 63 64 62 60 58 58 58 57 57 57 56 56 56 53 52 51 50 49 48 47 46 47 46 43 42 40 44 48 53 50 54 50 53
58 56 56 57 57 58 58 60 60 62 63 63 63 61 59 55 55 53 52 54 55 55 53 52 50 49 48 46 46 45 45 43 44 44 42 37 36 43 46 50 47 50 49
58 58 56 55 56 55 57 59 60 61 61 62 60 56 54 52 51 52 52 52 53 52 53 52 50 48 47 46 45 48 44 43 41 43 48 43 41 36 37 43 47 46 49
58 57 56 57 56 55 54 55 57 58 57 56 56 55 52 51 51 51 50 50 50 51 51 50 48 47 46 45 45 44 43 43 42 41 40 40 40 40 36 35 38 45 46
56 56 56 57 53 53 53 54 56 55 55 55 53 52 50 50 49 48 48 48 47 48 49 50 47 46 45 45 44 44 43 42 41 41 40 39 38 39 38 37 38 38 42
55 54 54 53 52 52 53 54 55 53 54 53 52 51 49 48 47 47 46 46 46 45 45 46 45 44 45 45 44 42 41 41 39 38 39 40 39 40 41 39 37 36 40
54 53 53 52 53 53 52 53 53 52 52 51 50 49 49 47 47 47 46 45 45 45 45 45 44 44 45 44 43 41 40 41 38 38 38 38 40 41 41 39 36 33 36
53 53 53 53 51 51 52 52 52 51 50 49 49 47 47 47 46 46 45 44 45 50 44 44 43 44 43 43 41 39 39 39 38 37 37 37 41 40 40 39 39 34 29
53 53 54 53 51 52 52 51 51 50 49 48 48 47 46 46 45 45 44 44 44 44 43 43 43 42 42 41 40 38 39 38 37 40 36 38 40 40 40 38 37 37 34
53 54 54 53 52 52 51 50 50 49 48 47 46 46 45 45 45 44 43 43 43 43 43 42 42 41 40 40 38 38 39 37 36 36 38 37 38 37 38 38 38 36 35
54 54 54 52 52 50 50 49 48 48 47 47 46 45 45 44 43 42 43 43 42 42 41 41 41 40 40 39 38 37 37 35 34 35 35 36 39 36 37 37 36 36 36
54 53 52 52 51 50 49 48 48 47 47 46 44 44 43 42 41 41 42 42 41 41 40 40 39 40 40 38 38 37 36 35 35 34 34 35 35 34 35 36 35 36 38
54 52 51 51 50 50 49 48 46 46 46 45 43 42 41 41 41 41 41 41 41 40 39 40 40 39 38 39 39 37 36 34 35 35 35 35 34 34 35 36 36 38 35
53 52 51 50 49 48 48 47 46 46 45 43 42 41 41 42 41 41 40 40 40 40 39 39 38 37 38 43 41 40 37 33 33 34 35 36 38 41 40 39 36 35 33
54 52 52 50 49 48 47 47 45 44 44 42 41 42 42 42 40 40 40 39 38 38 37 36 35 35 41 44 45 44 38 35 33 33 35 35 38 38 41 40 41 40 35
52 53 52 50 49 48 47 45 44 43 42 41 42 42 41 41 40 39 38 37 35 34 33 34 34 33 33 44 45 44 39 35 32 33 34 35 38 37 34 37 39 38 38
54 53 50 49 48 47 46 44 44 42 41 41 41 41 41 40 38 37 35 33 33 32 32 32 33 32 36 43 43 43 38 34 32 33 33 33 33 34 36 36 34 33 33
53 50 50 47 46 45 45 43 41 41 41 40 40 40 39 38 36 34 33 33 32 31 31 33 32 31 32 41 42 41 36 35 34 35 34 35 34 37 39 34 31 30 30
48 46 46 45 44 43 44 42 39 39 39 39 39 39 38 36 34 33 32 32 31 33 33 33 32 35 31 38 40 39 35 33 33 33 32 36 36 39 38 34 32 27 29
45 46 46 44 43 42 42 40 38 37 39 39 39 38 36 35 34 33 31 31 31 30 29 29 29 29 31 32 39 39 36 33 32 30 31 33 37 36 38 38 31 30 34
43 44 42 41 41 41 41 36 35 37 38 38 37 36 34 36 37 31 31 30 29 28 27 27 28 29 30 36 37 39 39 38 34 31 32 32 36 37 36 34 35 36 33
42 43 41 39 37 38 38 35 36 37 36 35 34 33 34 34 33 30 30 29 28 28 28 28 29 30 32 29 37 38 39 39 35 33 34 35 35 34 32 33 34 33 27
40 40 39 37 35 37 37 35 36 36 34 32 32 33 32 33 31 31 30 28 27 26 30 30 29 29 30 31 33 35 34 36 33 33 31 32 32 32 31 30 30 28 27
39 39 37 35 34 35 35 35 35 34 32 32 31 30 30 29 28 29 28 27 28 31 31 30 31 29 29 32 37 36 34 33 33 33 28 27 26 25 26 27 27 27 26
38 36 35 34 34 34 33 34 35 33 31 29 30 29 28 27 28 26 28 35 37 38 38 38 36 34 37 38 37 37 36 36 35 28 25 24 24 23 24 24 24 25 25

GFSMW_sfc_temp_036.txt.gz
Temp
58 59 60 60 60 60 61 62 61 62 64 63 61 57 55 60 60 60 60 58 56 55 52 51 51 50 49 47 49 47 46 46 45 43 44 45 47 47 49 48 48 49 51
56 57 58 57 59 58 58 59 59 59 60 61 58 57 54 57 58 57 55 54 54 53 53 50 48 48 47 46 45 44 43 44 43 40 39 38 41 45 50 46 48 45 49
56 55 55 55 55 55 56 58 58 59 59 60 60 58 57 55 53 51 50 51 52 52 50 49 48 47 45 44 43 42 42 40 42 42 40 35 33 39 42 46 44 48 43
57 54 53 53 53 53 55 57 59 59 59 60 58 57 55 52 48 48 48 49 50 50 50 49 47 46 44 43 43 45 41 40 39 40 46 41 39 34 33 40 45 42 46
57 55 54 55 54 53 53 55 56 56 55 55 56 54 51 50 48 48 47 47 47 48 49 48 46 45 43 42 42 41 40 40 39 38 38 37 37 37 33 33 35 42 44
54 53 53 54 51 51 52 53 55 53 53 54 51 51 50 48 47 45 45 45 45 46 46 47 44 43 43 42 41 41 40 39 38 38 37 37 35 34 34 34 35 35 39
53 52 52 52 52 51 51 53 53 50 51 51 50 49 47 47 46 45 44 44 44 43 43 44 42 42 42 42 41 40 39 38 37 36 36 37 36 37 37 35 34 33 37
53 53 52 52 51 51 51 51 51 49 50 50 47 47 47 46 45 45 44 44 43 43 43 42 42 42 42 41 40 38 37 38 36 35 34 35 36 36 37 35 33 29 32
52 51 51 51 50 50 50 50 50 48 49 48 47 45 45 45 44 44 43 43 43 48 42 41 41 40 40 40 39 37 37 36 35 34 34 34 35 36 36 36 35 31 26
50 51 51 50 50 50 48 49 50 48 47 46 46 45 44 44 43 43 42 42 42 42 41 40 40 39 39 39 38 36 37 36 35 37 34 33 35 36 35 35 35 34 31
50 51 51 50 50 49 49 48 48 47 46 46 44 43 43 43 43 42 41 41 41 40 40 40 39 39 38 38 36 36 37 35 34 34 33 33 34 34 34 34 34 33 33
51 51 50 49 48 48 48 47 46 46 45 44 44 43 42 42 41 41 41 41 39 39 39 39 38 38 38 37 36 35 34 34 33 33 32 32 37 32 33 33 33 33 34
50 50 49 49 47 47 47 46 46 45 44 44 42 41 41 40 40 40 40 40 39 38 38 38 38 37 38 36 35 35 35 34 33 33 32 32 32 32 32 32 33 34 36
50 49 49 48 48 47 46 45 44 45 43 43 41 40 40 39 39 39 39 39 38 38 38 37 37 37 36 36 36 36 34 33 34 33 33 32 32 32 32 35 34 35 33
49 49 48 47 46 46 45 45 44 43 43 41 40 40 40 40 39 39 39 38 38 37 37 36 35 35 36 41 39 38 35 33 32 32 33 34 37 40 40 38 35 34 31
50 50 49 47 46 45 44 45 43 42 42 40 40 41 40 40 39 38 37 37 36 35 35 33 33 32 39 42 44 43 37 35 32 31 33 34 37 36 40 39 40 39 34
50 50 49 48 47 46 46 43 42 42 41 40 41 40 40 39 38 38 36 35 34 32 31 31 32 31 31 42 43 43 38 32 31 31 32 33 36 35 33 36 39 38 37
51 50 50 48 46 46 44 43 42 40 40 39 40 41 39 38 37 35 34 32 32 31 30 31 31 29 33 41 41 41 34 33 32 31 31 31 32 33 35 35 32 31 31
52 51 49 45 44 43 43 42 40 40 40 40 40 39 38 36 35 34 32 31 31 29 30 30 29 28 29 39 40 39 33 33 31 33 32 33 32 37 39 33 30 30 30
47 45 45 44 43 42 43 41 39 39 39 40 38 37 36 35 34 33 31 31 30 30 30 30 29 33 29 36 39 38 34 32 32 32 32 36 36 38 38 34 30 25 27
43 44 44 43 41 42 42 39 37 38 38 37 36 36 35 34 33 31 30 30 28 29 27 28 27 28 29 29 38 39 36 33 31 31 32 32 36 37 37 37 29 29 33
42 43 41 39 39 40 40 37 35 35 36 36 35 34 33 35 35 30 29 28 27 26 25 25 27 28 28 35 37 39 39 39 33 31 31 32 36 36 35 33 34 35 33
41 42 40 38 36 37 39 35 33 35 34 33 33 32 32 32 31 28 27 26 26 25 25 27 28 29 31 28 36 38 39 38 34 32 34 35 34 33 31 32 34 33 27
38 39 39 36 33 34 35 34 34 34 33 31 30 30 30 31 28 29 29 25 25 24 29 29 28 28 29 30 32 34 32 35 32 33 30 31 31 31 31 29 29 28 27
38 38 37 35 32 33 33 33 33 33 31 30 30 29 29 27 27 27 25 25 26 30 30 28 29 27 28 31 36 36 34 33 33 33 27 26 25 25 25 26 26 26 26
36 35 33 33 31 32 32 32 33 32 30 30 30 28 28 25 27 25 24 33 36 37 37 37 34 33 35 37 36 37 36 35 34 28 24 23 23 22 23 23 23 24 24

GFSMW_sfc_temp_039.txt.gz
Temp
59 59 59 59 58 58 59 59 59 60 63 61 60 58 59 59 59 59 60 58 57 53 50 48 48 47 46 45 46 45 43 43 43 41 42 42 44 44 45 45 44 45 48
55 56 57 56 57 57 57 57 57 58 59 59 57 56 58 58 57 56 56 55 52 51 51 47 46 46 45 44 43 42 41 41 41 38 37 36 39 43 48 43 45 43 44
56 54 54 54 54 55 55 56 56 57 57 58 58 56 56 57 55 54 52 49 50 49 48 47 46 45 44 42 41 40 40 38 40 40 38 34 31 35 39 42 41 45 40
57 56 53 53 53 53 53 55 56 57 58 59 58 58 55 51 51 51 46 47 48 48 48 47 45 44 42 41 41 43 39 39 37 38 43 39 37 32 31 37 43 39 43
56 54 54 54 52 52 51 53 55 55 54 55 56 54 50 50 48 46 45 45 45 46 46 45 44 43 41 40 40 39 38 38 37 36 36 35 35 34 30 31 33 39 41
54 53 51 52 49 49 51 52 53 51 52 53 52 52 49 47 46 43 43 43 43 44 44 45 42 41 40 39 39 38 38 37 37 36 35 34 33 32 30 30 32 32 36
51 50 51 50 49 49 50 52 52 49 50 50 50 49 48 47 45 43 43 43 43 42 42 42 41 40 39 40 39 38 37 36 35 34 34 34 34 34 34 32 30 30 34
52 52 52 51 50 50 50 50 50 48 49 48 46 46 46 46 44 43 42 42 41 41 41 41 40 39 40 39 38 36 36 36 34 33 32 33 33 34 33 32 29 26 29
51 51 50 50 49 49 49 49 48 47 47 46 46 44 44 44 43 42 42 41 41 45 40 39 39 38 38 38 37 35 35 34 33 32 33 32 33 33 33 33 32 28 23
50 49 50 49 49 48 47 48 49 47 45 45 46 44 43 42 42 41 41 41 40 40 39 38 38 38 37 37 36 34 35 34 33 35 32 32 32 32 32 31 32 31 28
48 49 48 48 48 47 47 46 46 45 44 44 43 43 41 41 41 40 40 40 39 39 38 38 37 37 36 36 34 34 35 33 33 33 32 32 32 31 32 32 32 30 30
49 48 47 47 47 45 46 45 45 44 43 43 42 41 41 40 39 39 39 39 38 38 37 37 36 36 36 35 33 32 33 32 32 32 31 31 37 31 31 30 30 31 32
47 47 46 46 45 45 44 44 44 43 42 43 41 40 39 39 38 38 39 38 38 36 36 36 35 35 35 34 33 33 33 32 32 32 31 31 31 30 31 31 31 32 35
47 46 46 45 45 45 44 43 42 43 42 41 40 38 38 38 38 38 38 37 36 36 35 35 35 34 34 34 34 34 33 32 33 32 31 31 31 30 31 34 34 34 32
46 47 45 44 44 43 43 43 42 42 42 40 39 38 38 38 38 38 37 36 36 35 34 34 33 33 34 39 36 35 33 31 30 31 31 33 35 39 38 37 34 33 31
47 47 46 44 43 43 42 43 41 40 41 39 38 38 38 38 38 36 36 35 34 33 32 32 31 31 37 41 43 41 33 31 30 29 31 31 35 35 39 38 39 38 34
48 47 46 45 45 44 44 42 41 41 39 39 38 38 38 39 37 36 35 33 32 30 30 31 30 29 29 40 42 42 34 30 29 29 31 32 35 34 31 35 38 36 37
48 48 47 45 45 44 43 41 41 39 38 37 38 39 40 38 36 34 32 31 31 30 30 29 29 28 31 40 41 41 32 30 29 30 30 29 30 31 35 34 32 30 31
50 48 47 45 44 43 42 41 39 38 38 38 39 40 39 36 33 32 30 31 30 29 29 29 28 27 27 38 39 38 32 32 29 30 32 32 32 37 39 34 30 30 30
47 44 43 43 42 41 42 40 38 38 38 39 40 38 35 33 32 31 30 30 29 30 30 29 28 30 27 35 39 38 34 31 32 31 31 36 35 38 37 34 30 25 27
43 43 43 42 41 41 42 39 38 37 38 39 37 34 33 32 32 30 30 28 27 28 25 26 25 26 28 29 38 39 35 33 33 31 31 32 36 37 37 37 29 29 33
42 42 40 39 40 41 40 37 35 35 38 35 33 32 31 35 34 29 28 27 26 24 24 24 26 28 27 34 36 38 39 39 32 30 31 31 36 36 35 33 34 35 34
40 40 38 37 37 40 42 36 32 34 33 32 31 31 31 30 29 27 26 25 24 23 23 26 26 27 30 27 35 37 38 38 34 32 34 35 34 33 31 32 33 33 26
38 39 39 36 33 34 35 35 32 33 31 30 29 29 29 28 27 29 28 24 23 23 28 28 27 25 28 29 30 33 32 35 33 33 30 31 31 31 30 28 28 27 26
38 39 37 35 32 32 32 32 32 31 30 29 30 28 28 25 25 27 24 24 26 28 28 27 27 26 26 30 36 35 33 32 34 33 27 25 24 24 24 25 25 25 25
35 34 33 33 30 31 30 30 31 31 30 29 29 28 27 24 27 24 24 32 35 36 36 36 34 32 35 36 36 36 36 36 34 27 23 22 22 21 22 22 22 23 23

GFSMW_sfc_temp_042.txt.gz
Temp
61 59 60 59 58 57 58 56 57 59 62 60 59 58 56 57 58 59 59 58 56 55 53 48 47 46 45 43 45 43 42 41 41 40 41 41 42 42 43 43 42 43 44
54 56 56 54 55 56 56 55 56 57 60 61 56 56 55 54 56 55 55 56 55 53 49 46 45 45 44 43 41 40 40 39 38 37 35 34 38 41 46 40 43 40 41
57 54 54 53 53 53 54 55 55 55 55 56 57 54 53 55 54 52 52 52 52 48 47 45 44 43 42 40 39 39 39 37 38 37 37 33 31 33 38 40 39 41 38
57 55 54 52 53 53 53 53 54 54 56 57 57 57 54 50 53 51 51 49 47 46 46 45 43 42 41 40 40 41 37 37 35 36 41 37 35 30 30 35 40 36 41
58 55 54 56 53 51 51 51 53 53 53 55 57 55 50 49 50 49 47 47 43 44 45 44 42 41 40 39 38 37 37 36 35 34 34 33 33 32 29 29 31 37 39
54 54 54 52 49 49 49 51 52 49 51 52 52 52 49 48 47 46 44 41 41 42 42 43 41 40 39 38 37 37 36 35 35 34 33 33 31 30 28 27 30 30 33
50 49 49 50 48 48 49 51 51 48 50 53 54 53 52 51 45 43 42 41 41 40 40 40 39 38 38 38 37 36 35 35 33 32 32 33 32 33 31 29 29 28 32
48 50 50 51 50 49 50 51 50 47 50 51 50 48 47 45 43 42 42 40 40 39 39 39 39 38 38 37 36 35 35 35 33 32 31 32 32 32 32 30 27 26 27
47 49 50 50 49 49 49 49 48 47 47 46 46 44 44 43 42 40 41 40 40 42 39 39 38 37 37 36 35 34 33 32 32 32 31 31 32 32 31 31 29 27 23
48 49 49 48 49 48 47 48 49 47 45 45 45 43 42 42 41 41 39 39 39 39 38 38 37 36 36 35 34 33 33 33 32 34 31 30 31 31 31 30 30 29 27
47 47 47 47 47 47 47 46 46 45 44 44 43 42 41 40 40 39 38 38 38 38 37 37 36 35 35 34 33 32 34 32 31 31 31 31 31 30 30 29 30 29 28
46 46 45 45 45 45 46 45 45 44 43 43 42 40 40 39 39 38 37 38 37 37 37 36 35 34 34 33 32 32 32 31 30 31 30 30 35 30 30 30 29 29 30
44 44 45 44 44 44 44 44 43 42 42 42 41 39 38 38 36 36 37 37 36 36 36 35 34 33 33 33 32 32 32 31 31 30 29 29 29 28 28 29 29 30 34
44 45 44 43 43 43 43 42 41 42 41 41 40 38 37 36 36 36 36 36 36 36 34 33 33 33 32 33 33 33 32 31 31 30 30 30 29 28 29 30 32 34 30
44 45 43 42 42 41 41 42 41 41 41 40 38 37 36 36 36 36 35 35 35 34 34 32 32 31 33 38 35 34 32 30 29 29 30 31 33 38 38 36 33 33 31
45 44 44 42 41 41 41 41 40 40 41 39 37 37 37 36 35 35 35 35 34 33 31 31 30 29 36 40 42 41 32 31 30 28 30 29 34 33 38 38 39 38 33
45 44 42 43 42 42 42 40 40 40 39 38 37 37 36 36 36 38 36 34 32 30 29 29 29 28 28 40 42 42 33 30 28 28 29 31 34 34 30 34 38 36 37
45 44 44 43 42 42 41 40 40 39 38 37 37 37 36 36 37 35 33 31 29 28 28 28 28 27 30 39 40 40 31 29 28 28 28 28 29 30 35 34 31 29 31
47 45 45 43 42 41 41 40 38 37 37 36 36 37 37 37 35 33 30 29 28 27 27 28 27 25 26 37 38 38 30 30 29 30 29 29 32 36 39 33 29 29 29
46 43 43 43 42 40 41 39 37 37 36 37 37 37 38 36 32 29 29 28 28 29 30 29 27 30 26 34 38 38 33 30 31 31 31 35 35 38 38 34 30 25 27
42 43 43 41 40 41 41 38 37 36 37 37 38 37 35 31 30 29 28 27 26 27 25 26 25 25 27 27 37 38 34 31 32 31 31 31 36 38 37 37 29 29 33
41 42 39 38 40 41 41 38 37 35 36 37 35 33 30 34 32 28 26 25 24 24 23 23 26 27 26 33 35 38 38 38 32 31 31 32 37 36 35 33 34 35 33
39 40 38 37 37 39 44 39 35 34 34 35 31 29 30 29 29 26 24 24 23 23 23 25 25 26 30 26 35 36 37 37 34 32 34 35 34 33 30 31 33 32 26
37 38 37 36 33 36 40 36 33 33 33 28 27 28 27 26 25 29 27 23 23 22 27 26 26 25 27 27 29 31 31 35 33 34 30 31 31 30 29 28 27 26 26
38 38 37 34 31 33 32 32 33 32 29 28 28 27 27 25 24 26 23 23 24 27 27 26 27 25 26 30 35 35 33 33 33 32 27 24 24 23 23 24 25 25 25
36 34 33 32 31 31 30 29 30 30 29 28 29 27 26 23 26 23 23 32 34 36 36 36 33 31 34 35 35 36 36 35 33 27 22 21 21 21 21 21 22 23 23

GFSMW_sfc_temp_045.txt.gz
Temp
64 66 66 67 67 66 66 67 66 66 67 65 64 64 62 59 60 61 59 59 57 58 54 54 55 55 54 53 55 54 52 52 52 54 55 55 55 55 56 56 56 53 53
60 63 64 64 65 66 64 64 64 64 66 66 64 62 58 56 56 58 57 55 56 54 55 55 53 53 52 52 52 52 52 51 49 49 48 48 54 55 55 53 54 52 53
60 63 62 63 62 62 62 62 62 63 63 61 59 56 54 54 53 53 52 53 54 52 54 53 53 51 52 49 49 50 49 48 48 49 49 47 46 44 51 52 52 52 50
60 62 63 61 60 62 60 61 60 60 60 61 60 58 56 53 54 52 51 50 54 50 52 52 51 51 50 50 49 49 48 48 46 48 48 47 47 43 42 49 50 49 48
58 59 62 62 63 60 59 59 58 59 60 61 61 59 54 51 52 49 48 48 50 51 51 50 50 49 49 48 48 47 47 48 46 45 45 45 45 44 40 38 43 45 47
57 59 62 61 59 57 56 56 57 56 58 59 59 56 51 50 49 47 47 47 48 48 49 49 49 49 48 47 47 46 46 46 44 45 44 43 42 41 39 37 39 38 43
57 58 55 56 55 54 54 55 56 54 56 57 56 56 54 53 50 49 48 46 47 47 47 48 48 47 47 46 46 45 44 43 44 43 43 43 43 42 40 38 37 36 40
55 55 55 55 55 54 54 56 54 53 55 56 55 56 53 51 49 48 49 49 48 47 47 47 47 46 46 46 45 44 44 43 43 42 42 42 42 42 41 39 36 33 38
53 52 53 55 54 53 54 54 53 52 53 53 53 51 50 49 47 48 49 48 47 47 46 46 46 45 45 45 44 44 43 43 43 42 42 41 42 41 41 40 39 35 30
53 53 52 52 53 54 53 53 53 51 52 51 51 49 47 49 48 48 47 47 47 46 46 45 45 44 44 43 43 43 42 42 42 43 41 41 41 41 41 40 39 38 34
51 51 51 51 51 51 51 51 50 49 49 48 47 48 47 47 47 47 46 46 46 46 45 44 44 43 43 42 42 42 42 40 40 41 40 39 40 39 39 39 38 37 36
50 49 48 48 49 48 49 49 49 48 48 48 47 46 46 45 45 45 45 46 44 44 44 43 43 42 41 41 41 40 40 39 39 39 38 38 39 38 38 38 36 36 37
45 45 46 47 47 47 48 49 48 45 46 47 46 45 44 44 44 44 44 44 43 43 42 42 41 40 40 40 41 40 40 39 39 38 37 37 37 36 37 36 36 36 36
44 45 45 45 46 46 47 47 45 45 46 46 45 43 43 43 43 43 43 42 42 41 41 40 39 39 39 39 40 40 40 39 39 38 38 37 37 36 36 36 37 37 36
43 44 43 44 44 45 45 44 44 45 46 44 43 41 41 42 42 41 41 41 41 40 40 39 38 38 39 41 42 42 40 39 38 38 38 38 38 38 39 38 37 36 35
43 44 44 44 44 44 44 44 43 43 45 43 40 40 41 41 40 40 40 40 39 39 38 37 37 37 39 40 42 42 41 39 37 36 37 37 36 37 39 38 39 38 35
43 43 44 44 44 44 44 43 43 44 43 41 41 40 40 40 39 40 39 38 38 38 37 36 36 35 36 39 41 41 40 38 37 37 36 36 37 37 36 36 38 37 38
44 44 44 44 44 44 44 43 43 42 41 40 40 40 40 39 39 39 38 37 37 36 36 35 35 34 35 38 40 40 39 37 37 37 36 35 35 36 36 37 33 34 36
46 46 46 44 44 43 43 42 41 41 40 40 40 40 40 39 39 37 36 36 36 35 35 35 34 33 34 37 38 39 38 37 36 36 37 36 36 37 39 35 32 34 34
46 44 44 44 43 42 43 41 40 41 39 39 39 40 40 39 36 36 35 34 35 35 35 34 34 33 33 35 38 38 37 35 36 37 37 37 37 38 38 36 34 30 31
44 44 44 43 42 43 43 40 40 39 39 40 39 39 38 36 35 35 34 33 33 33 32 33 33 33 34 35 37 38 37 36 35 35 35 36 37 37 38 37 33 31 34
42 43 41 40 42 44 42 41 39 39 40 39 37 36 36 37 34 33 32 32 31 31 31 31 32 34 33 34 36 37 38 38 35 34 35 35 37 36 35 34 33 35 34
41 42 40 39 40 43 45 38 37 39 37 37 35 34 34 33 33 32 31 32 30 30 30 31 31 32 34 33 34 36 37 38 36 36 36 36 35 33 32 31 33 32 29
38 39 39 39 39 42 41 38 37 38 37 34 33 33 32 31 31 33 32 31 30 30 31 31 30 30 31 32 34 35 36 36 35 35 34 33 31 31 30 29 30 29 29
38 40 38 36 35 38 37 37 37 37 34 33 32 32 31 30 30 31 31 31 31 32 32 32 31 30 29 32 36 35 35 35 35 34 30 28 27 26 26 27 27 28 28
36 35 34 34 33 36 35 34 35 35 33 31 32 31 30 30 30 29 29 33 35 35 35 35 34 34 34 35 35 36 36 35 34 29 25 24 24 23 23 23 24 25 25

GFSMW_sfc_temp_048.txt.gz
Temp
75 77 78 79 79 80 81 81 80 80 79 78 77 77 75 73 67 66 67 69 67 65 58 57 59 65 65 63 64 62 61 60 60 62 64 64 64 63 63 64 64 61 61
74 76 77 78 79 78 79 80 79 79 78 78 77 77 72 61 59 59 61 61 63 62 60 64 60 64 62 61 61 61 59 58 58 56 57 58 61 63 62 62 61 60 61
71 74 77 77 77 77 78 77 78 78 77 76 75 69 62 56 54 56 58 59 58 59 57 59 62 59 60 57 58 58 57 56 56 56 55 54 54 54 62 59 60 59 58
69 71 73 76 76 77 78 77 76 75 75 72 68 65 64 57 54 54 55 54 55 54 57 57 60 60 59 58 57 58 58 57 54 57 56 54 53 50 49 58 58 57 56
70 70 70 72 76 75 75 73 73 72 71 70 70 69 64 57 53 52 52 52 52 55 57 59 59 58 58 57 56 56 55 56 55 54 53 53 53 52 47 45 51 54 56
69 69 71 71 72 73 71 70 69 69 69 70 70 69 60 54 49 49 48 49 50 53 56 57 57 58 56 56 55 55 53 54 53 53 52 50 49 48 46 45 46 46 51
69 68 69 69 69 70 68 67 68 66 68 68 68 65 59 56 52 52 48 46 52 51 54 56 57 55 54 54 54 52 51 51 51 51 51 51 49 49 47 45 44 44 48
68 68 69 69 68 67 67 67 66 65 66 67 65 63 56 54 51 51 50 52 55 56 56 56 55 54 54 54 53 52 52 50 51 48 49 49 49 49 47 44 42 39 44
66 66 68 68 68 67 66 66 66 64 65 64 63 61 57 53 50 50 51 51 53 55 55 54 54 54 53 53 51 52 52 52 51 50 49 48 48 48 47 46 45 40 35
64 66 67 68 67 68 67 66 66 63 63 63 62 59 55 52 53 52 51 55 55 54 54 54 53 53 52 51 52 52 50 50 50 49 48 47 48 47 47 45 45 43 40
62 64 66 67 66 66 64 64 63 61 61 61 59 57 55 52 53 53 56 55 55 55 54 53 53 52 51 51 51 50 49 47 47 47 46 45 46 45 45 45 44 42 41
60 63 66 64 62 61 61 61 60 59 59 58 56 53 51 53 54 55 55 56 54 54 53 52 51 50 49 50 49 48 48 46 46 46 45 44 45 43 44 43 42 41 42
59 62 60 58 58 58 59 58 58 56 56 55 52 50 51 54 54 54 54 54 53 52 51 51 49 48 47 48 48 47 47 47 46 45 44 43 43 42 42 42 41 41 40
52 55 56 56 57 57 57 56 52 52 53 51 50 50 53 53 53 53 52 52 52 50 49 49 47 47 47 46 46 46 47 46 46 45 43 43 42 41 41 41 41 40 39
50 51 52 52 53 51 51 49 48 49 50 49 51 51 51 51 51 50 50 50 50 49 48 47 46 46 46 47 45 46 46 45 45 44 44 43 42 40 40 40 38 39 37
46 48 49 49 48 47 46 46 47 48 50 49 49 49 49 49 49 48 48 48 47 47 46 45 45 45 45 40 42 43 45 45 43 42 43 43 41 41 40 40 40 38 35
47 46 47 47 47 46 47 46 47 49 48 49 48 48 48 47 47 47 47 46 46 46 45 44 44 44 44 40 41 41 43 43 42 42 41 41 42 41 40 39 40 40 39
46 46 46 46 47 48 47 47 49 50 48 48 47 48 47 46 46 47 45 43 45 45 45 44 43 42 43 38 40 40 43 43 42 42 41 40 40 40 39 39 36 36 39
48 48 49 48 49 49 49 50 48 48 48 46 46 47 47 46 46 44 41 43 45 44 44 43 42 41 42 38 38 40 42 41 41 42 42 41 40 40 40 37 34 37 38
51 49 50 50 49 49 49 48 48 47 46 46 46 47 47 46 43 41 43 43 44 43 43 42 42 39 41 39 38 39 41 40 40 41 42 41 40 39 39 37 36 34 36
47 48 48 48 48 49 49 47 47 45 46 47 47 46 45 41 41 43 44 43 42 42 42 41 42 41 40 40 38 38 39 39 38 38 39 40 39 39 39 38 36 34 36
44 46 44 45 47 49 48 47 45 46 46 44 41 40 40 41 44 43 42 41 42 41 41 40 41 42 42 39 38 37 38 39 37 37 38 39 38 37 36 36 35 35 35
47 49 47 46 48 49 50 43 41 41 40 40 38 39 42 42 43 43 41 42 41 40 39 38 38 39 40 40 38 38 39 39 38 38 38 38 37 35 34 34 34 33 34
46 46 46 45 45 45 43 40 40 40 39 37 38 41 41 41 41 41 41 41 40 39 37 37 36 37 38 38 39 38 39 39 38 37 37 36 35 34 34 34 34 34 33
44 46 46 46 43 41 40 40 40 40 38 39 40 41 41 41 40 39 41 41 40 37 36 37 36 35 34 36 37 37 36 37 37 35 34 33 32 31 31 31 32 32 32
43 43 43 42 40 39 38 39 41 41 40 39 40 40 40 40 39 39 40 35 35 35 35 35 35 36 36 36 35 35 36 35 35 32 30 30 29 28 28 27 28 29 28

GFSMW_sfc_temp_051.txt.gz
Temp
79 81 82 83 84 85 85 86 86 84 84 83 81 81 81 71 66 69 74 74 74 72 68 66 66 65 63 67 67 64 62 60 61 62 62 62 62 62 62 62 63 62 61
76 78 80 81 81 82 82 83 85 85 83 83 82 82 77 63 62 62 67 69 66 62 59 60 61 62 64 63 63 62 60 58 58 55 56 56 58 61 62 62 62 60 61
74 77 79 80 79 80 81 82 83 84 83 82 82 76 64 60 58 57 56 59 60 60 59 59 56 59 62 59 59 58 58 56 57 56 54 52 52 52 60 60 60 60 59
73 75 77 79 80 80 82 81 82 82 82 81 78 69 63 58 56 55 55 56 58 59 59 59 59 57 59 58 57 59 59 58 54 56 56 53 53 48 48 57 58 59 56
74 73 74 75 79 79 78 79 80 80 80 78 76 69 66 63 56 53 53 53 54 54 55 54 54 56 57 57 56 57 56 57 54 52 52 52 53 52 47 44 50 54 56
73 74 75 75 75 75 77 77 77 77 78 75 72 69 68 58 53 50 50 50 52 54 55 57 58 58 57 56 56 56 55 54 52 52 51 49 48 48 46 44 45 45 50
72 72 72 72 72 72 73 75 74 74 74 72 72 72 62 58 55 52 49 49 50 51 54 56 57 57 56 55 55 53 51 51 50 51 50 51 50 49 47 44 43 42 47
70 70 72 71 72 71 72 73 72 72 72 72 71 68 63 60 55 53 51 51 52 50 56 56 57 56 56 55 54 52 51 50 50 50 49 49 49 49 48 44 41 38 41
68 69 71 71 72 72 71 71 70 71 70 70 69 65 61 56 53 51 53 53 54 55 56 56 56 55 55 55 52 52 52 51 51 50 50 48 49 48 48 46 44 40 34
67 68 69 70 71 72 72 71 71 69 69 68 65 61 57 54 53 52 51 52 53 54 55 55 54 54 53 53 53 52 51 50 51 50 48 48 48 47 46 45 45 43 39
67 68 67 69 71 72 71 70 69 67 66 65 62 59 55 53 53 52 53 53 55 54 55 55 54 54 53 53 52 51 50 49 49 49 47 46 47 45 45 44 44 41 40
62 63 63 66 69 70 69 68 67 65 65 63 60 56 53 53 53 54 54 56 54 56 55 55 54 53 52 51 51 50 50 48 47 47 46 45 47 44 44 43 42 41 41
57 61 65 65 69 67 66 65 64 63 62 60 57 54 53 53 54 52 54 54 55 54 54 53 52 51 49 49 50 49 49 48 47 47 45 44 43 42 42 42 40 40 42
54 57 59 63 64 63 63 62 60 60 59 56 54 53 53 52 52 53 54 54 53 52 51 51 50 49 48 48 48 48 47 47 47 47 45 44 43 41 41 39 39 40 37
52 55 57 58 59 59 60 58 57 57 56 53 52 51 51 52 51 52 52 52 52 51 50 49 48 48 47 48 44 45 46 45 45 45 45 45 44 43 42 40 38 38 35
50 53 55 57 57 56 54 52 52 52 52 51 50 49 50 50 50 50 50 49 49 48 48 47 47 46 47 41 42 43 43 44 44 43 43 44 43 43 43 42 42 41 36
48 50 52 51 51 50 51 49 50 50 49 48 48 49 50 49 49 49 48 47 47 47 46 46 46 45 45 41 41 42 42 42 43 42 42 41 43 42 41 41 42 40 41
47 48 48 47 47 49 49 48 48 47 47 47 48 50 49 48 48 48 46 45 46 46 46 45 45 44 45 40 40 40 41 42 42 42 42 41 40 41 40 39 35 35 37
49 48 48 47 46 46 47 47 47 47 47 47 48 49 48 47 47 45 44 45 45 45 45 44 44 43 44 40 39 39 40 40 40 42 42 41 40 42 42 37 33 34 36
46 44 45 44 45 44 44 43 44 45 47 48 48 49 48 47 44 43 43 45 45 43 43 43 44 43 41 42 40 39 39 38 39 40 40 42 41 42 41 37 34 31 33
45 44 42 41 40 42 45 44 47 47 48 48 48 47 46 44 43 44 45 45 43 43 43 42 44 43 43 41 40 39 37 37 36 36 37 39 41 40 40 39 35 33 35
46 49 47 48 51 52 50 47 45 46 47 46 43 41 41 43 45 44 44 43 43 42 42 42 41 43 43 42 41 39 39 40 37 36 37 37 39 39 38 37 37 37 36
42 44 44 45 48 50 50 45 46 44 42 40 39 40 42 45 45 44 43 42 42 41 41 39 38 39 40 41 41 40 40 40 38 38 38 39 38 38 36 36 36 36 33
48 49 49 48 48 47 45 42 41 41 40 38 39 41 43 43 43 41 42 42 41 40 38 37 36 36 37 38 38 37 37 38 37 37 35 36 36 37 36 34 34 33 32
48 49 48 47 42 42 40 40 40 40 38 39 41 42 41 42 41 40 41 41 41 37 35 35 35 33 33 35 36 36 35 35 36 35 32 32 32 30 30 31 30 30 30
48 47 45 41 39 39 38 39 41 41 40 40 41 41 40 41 40 40 41 37 36 36 36 35 34 34 36 36 35 35 36 36 36 31 29 29 28 27 27 27 26 27 27

GFSMW_sfc_temp_054.txt.gz
Temp
69 71 72 72 73 74 75 78 75 74 74 71 74 73 72 69 67 69 70 70 67 62 60 58 58 58 57 57 57 56 53 49 49 48 49 50 52 52 53 54 52 53 53
68 70 70 70 71 71 71 72 73 75 75 74 73 72 61 60 58 60 63 63 60 57 55 54 55 56 57 57 56 55 51 49 48 45 47 45 48 52 53 51 53 50 51
66 68 68 67 68 68 69 71 72 72 75 73 68 60 58 56 53 53 53 57 57 56 54 53 53 53 51 50 52 53 52 47 48 47 44 41 40 42 48 50 49 49 46
66 66 66 67 66 70 69 69 71 71 73 71 67 61 59 56 53 52 53 54 56 56 56 55 55 55 54 53 53 54 52 51 47 48 50 44 43 38 37 44 46 47 48
62 63 64 66 66 65 68 69 69 72 70 74 68 62 57 52 52 52 52 53 53 55 55 55 55 55 53 53 52 49 49 48 46 44 44 43 43 42 37 34 38 42 44
59 60 62 63 62 63 62 63 66 67 68 70 65 61 55 51 49 49 49 50 50 51 53 55 54 54 52 51 50 49 46 45 45 44 43 42 40 38 36 34 34 35 40
57 59 59 61 60 60 61 63 64 65 67 64 63 62 53 51 49 49 49 49 49 50 50 52 52 52 51 49 48 45 44 43 42 42 42 43 42 42 39 36 33 32 36
59 59 57 59 60 59 61 61 63 63 64 63 62 56 53 51 50 50 50 50 50 51 53 54 53 52 51 47 46 44 43 43 41 42 42 41 41 41 40 36 33 32 31
58 55 57 60 60 59 60 61 61 62 62 61 58 55 54 52 50 51 52 52 52 53 53 53 51 50 50 47 45 43 44 44 43 41 40 40 40 40 39 38 36 31 29
58 58 60 61 60 61 61 61 61 61 61 61 60 55 52 50 50 51 51 51 53 54 53 52 50 49 46 46 45 44 44 43 41 42 40 39 39 38 37 36 36 34 31
55 56 58 60 61 60 60 59 61 61 63 59 55 50 48 49 52 52 52 53 53 52 50 51 50 47 47 47 45 44 44 42 41 41 40 39 39 37 36 35 35 33 32
53 55 56 58 59 57 58 60 63 63 58 56 50 48 49 51 51 51 52 53 52 53 52 51 49 47 46 45 44 43 43 41 40 40 39 38 43 36 35 34 33 32 32
52 52 54 54 58 60 61 60 61 58 56 51 49 50 51 51 51 51 52 53 52 50 50 48 46 45 45 44 43 43 41 41 40 39 38 37 36 34 33 33 31 32 37
50 50 48 50 57 61 61 59 57 56 52 49 49 50 50 51 52 52 52 51 50 49 46 46 45 44 44 44 43 42 40 39 40 40 39 38 36 35 33 34 32 34 31
50 52 48 49 55 56 56 55 52 51 50 49 49 49 51 51 51 50 49 49 48 45 45 43 42 43 43 44 39 39 37 36 36 37 39 38 40 44 42 38 32 32 31
48 51 50 49 50 52 52 51 48 48 50 48 48 49 49 49 48 48 46 46 43 42 42 41 42 40 46 43 43 41 35 36 35 34 36 37 41 39 43 43 43 41 35
48 50 49 48 49 48 49 46 46 48 48 47 48 47 47 46 46 46 45 42 41 41 40 40 41 41 38 42 42 42 36 34 33 34 34 36 41 39 35 39 42 40 41
47 47 43 43 44 48 48 48 48 47 47 46 46 47 46 45 45 43 41 40 40 40 40 41 40 39 40 41 41 41 34 33 34 34 34 33 33 34 38 35 28 29 31
46 45 46 44 46 46 47 46 46 46 46 45 45 45 45 44 43 41 39 39 40 41 40 40 38 36 35 41 41 38 32 32 31 35 34 35 34 39 42 36 30 32 31
45 44 44 44 44 45 46 44 42 41 40 42 44 46 45 43 40 38 40 41 40 39 39 38 37 40 34 42 41 39 33 30 30 32 33 39 39 41 41 36 34 29 29
41 42 42 40 40 41 41 40 39 39 42 44 44 43 41 41 41 41 41 40 38 37 36 35 35 35 36 34 42 41 34 31 31 29 31 33 39 40 41 40 32 31 35
39 39 38 39 40 41 40 36 35 38 41 41 40 40 41 43 43 40 39 37 36 34 33 33 32 33 33 41 40 42 41 39 33 31 31 32 39 39 39 37 38 38 37
41 41 40 40 41 43 43 41 40 40 39 39 38 39 41 42 41 38 35 34 34 33 32 31 29 29 32 31 40 39 39 38 34 33 36 38 37 37 34 36 37 36 29
43 45 45 44 43 44 42 40 39 40 39 38 39 40 39 37 35 34 35 34 32 30 30 29 27 26 27 28 29 32 29 34 33 34 30 34 34 35 34 31 30 29 28
44 44 42 38 37 38 37 38 39 40 38 39 38 36 35 34 33 33 31 31 30 31 28 27 27 25 24 29 35 34 32 32 34 34 28 27 26 26 27 27 27 27 27
44 40 39 37 37 37 37 39 40 41 40 37 34 33 33 33 32 32 30 38 37 37 36 36 32 30 35 36 36 36 37 37 36 29 24 24 24 24 24 24 24 25 25

GFSMW_sfc_temp_057.txt.gz
Temp
62 64 66 72 70 68 68 70 69 69 73 70 69 68 66 66 67 70 73 68 66 62 60 57 57 56 55 54 54 51 51 48 48 48 51 49 49 50 50 50 50 52 52
61 64 64 63 64 67 65 67 69 71 72 71 70 67 61 58 59 63 65 64 59 58 57 56 54 54 53 53 53 52 48 49 49 48 47 46 48 48 50 48 50 47 48
58 59 61 63 63 63 64 66 67 68 72 68 61 58 56 55 54 52 53 55 56 56 55 52 52 50 50 50 50 53 50 48 47 46 45 42 43 42 48 49 47 47 45
58 60 61 60 61 63 64 65 67 66 68 64 62 62 62 59 54 50 51 52 54 54 56 54 52 52 53 52 50 54 51 49 46 46 49 44 42 38 39 44 45 44 46
57 59 60 62 62 62 60 61 64 65 67 66 66 63 60 51 50 50 50 50 52 55 56 55 55 54 52 53 51 51 50 49 46 45 43 42 40 39 37 35 38 41 42
54 57 59 61 59 58 59 60 62 62 64 68 62 61 54 50 50 49 47 49 50 50 54 55 53 53 52 51 50 50 47 44 44 43 41 41 39 37 35 33 34 34 37
54 56 55 57 57 58 59 59 61 61 61 60 60 57 54 52 51 50 48 48 48 49 52 53 53 51 51 51 49 47 45 42 42 42 41 41 40 40 38 35 32 31 33
54 54 55 57 57 58 58 58 60 60 58 58 56 54 52 50 49 49 49 51 51 51 51 53 52 51 51 50 47 45 43 41 40 41 40 40 40 40 38 36 32 28 29
52 52 55 57 57 56 58 57 57 58 57 55 53 51 50 49 48 48 49 50 50 51 53 51 51 50 50 49 46 42 44 41 41 40 39 38 38 38 37 36 34 31 25
53 53 53 55 55 55 57 57 57 57 56 54 52 50 49 48 48 49 48 51 53 53 51 51 50 50 49 48 46 45 44 44 41 41 39 38 37 37 36 34 34 32 29
50 52 56 53 54 55 56 56 57 55 53 53 50 48 47 48 48 49 51 53 53 52 51 50 50 48 48 47 45 44 44 42 40 39 39 39 38 35 34 33 33 31 29
49 50 50 53 53 54 56 57 55 55 52 50 48 48 47 49 49 50 52 53 52 52 51 50 49 48 47 46 45 44 42 41 40 39 38 37 41 35 33 32 31 30 30
49 50 48 50 50 51 52 56 56 51 49 48 48 49 49 50 48 51 52 52 51 51 50 49 47 47 45 44 44 43 42 40 40 39 38 36 35 33 32 31 30 30 35
50 51 51 46 50 52 53 55 51 49 48 48 49 48 49 48 50 51 51 50 50 49 48 47 46 45 44 44 41 41 39 39 39 38 37 36 35 33 32 32 31 32 28
49 50 47 45 47 51 52 51 48 48 49 48 47 48 49 50 50 48 48 48 48 47 46 44 44 43 42 42 38 39 38 37 35 35 36 36 38 43 42 38 31 30 28
47 48 45 44 42 45 46 47 46 46 48 48 47 47 48 48 47 47 46 45 45 44 43 42 42 39 43 44 44 41 37 35 33 33 34 34 39 38 43 43 43 41 34
47 45 44 45 44 41 44 43 45 48 47 47 46 47 46 43 42 43 43 41 42 42 40 40 38 38 39 43 43 42 35 33 32 32 32 33 38 36 32 37 41 40 41
44 44 44 45 46 47 47 47 47 47 46 45 45 43 40 39 40 42 42 40 40 38 37 38 39 39 40 42 42 41 33 32 32 32 31 30 30 32 37 34 30 31 30
44 44 44 44 45 45 46 46 45 45 44 42 41 40 38 39 40 38 37 38 39 38 39 39 38 36 35 42 41 38 32 32 30 32 32 33 32 38 41 35 29 29 30
43 42 43 43 42 43 44 42 41 40 39 40 40 37 39 39 39 41 40 39 40 39 39 38 36 39 34 42 42 39 32 30 30 30 30 37 37 40 41 36 32 28 28
41 41 40 39 41 41 40 37 36 33 35 38 40 39 39 40 41 40 40 39 38 37 35 34 33 33 34 34 43 43 34 31 28 28 30 31 38 39 40 39 32 31 35
38 40 39 38 38 40 38 35 33 33 35 37 36 37 39 41 41 39 38 37 35 33 32 31 30 31 32 39 40 41 40 39 30 29 29 30 38 38 37 35 37 38 36
36 39 36 36 36 38 38 34 33 33 33 35 37 39 41 41 40 37 35 34 33 31 30 30 28 28 30 29 37 38 38 37 33 31 35 37 36 35 32 34 35 34 27
39 41 40 39 37 38 39 38 39 40 39 39 38 39 38 36 35 33 33 31 30 29 29 28 26 25 26 27 28 30 28 33 32 33 27 33 33 32 31 29 29 27 26
42 42 42 39 37 38 38 39 40 40 38 38 37 36 34 32 31 31 31 29 30 31 29 27 27 25 24 29 35 34 32 32 34 33 26 25 25 24 25 26 26 26 26
42 40 39 36 34 36 37 39 40 40 38 37 33 32 31 31 31 30 29 38 37 38 37 37 33 30 35 37 37 37 37 37 35 26 23 22 22 22 23 23 23 23 24

GFSMW_sfc_temp_060.txt.gz
Temp
62 61 63 63 64 66 65 65 68 69 69 67 66 64 65 64 64 69 69 65 64 61 60 59 56 55 56 53 53 50 50 47 46 47 48 51 49 50 51 51 49 50 49
56 59 61 60 61 64 63 63 66 70 70 70 70 67 66 60 62 62 68 65 62 61 60 58 56 55 53 52 51 50 48 50 48 46 45 48 50 50 48 47 49 47 47
57 56 57 59 60 60 60 63 64 65 71 71 63 57 57 56 55 56 57 57 58 58 56 56 54 51 51 49 49 49 49 46 48 47 46 43 44 42 46 45 44 44 43
54 56 58 59 59 59 60 62 63 63 65 64 65 62 62 57 56 52 52 51 55 56 55 53 52 51 50 49 51 52 49 47 47 47 48 45 44 43 42 44 44 44 45
53 54 56 58 59 59 58 59 61 61 62 64 65 64 63 56 50 51 50 51 51 53 54 54 53 52 52 52 52 51 48 50 46 46 41 40 39 39 38 37 39 41 42
53 53 55 56 56 56 58 57 57 60 61 61 63 63 58 52 49 48 48 49 49 51 54 55 54 52 52 51 50 49 49 48 44 44 44 40 39 37 36 35 35 36 39
50 51 53 56 57 53 56 57 58 59 59 58 59 60 57 54 53 49 49 48 48 49 50 52 52 50 51 50 49 48 46 45 44 42 41 39 39 39 37 35 33 32 34
49 51 52 53 53 54 54 55 57 58 58 56 57 57 55 55 53 52 49 49 48 48 51 52 52 52 51 50 48 46 45 45 41 42 39 38 38 39 38 36 33 29 29
52 52 53 53 53 53 54 53 54 56 56 54 52 51 52 50 49 48 49 48 48 50 51 52 51 50 50 49 47 45 45 44 43 39 41 37 37 37 36 35 34 31 26
50 51 51 51 52 53 53 54 54 54 53 49 48 48 48 48 48 49 48 48 50 52 51 50 50 49 49 48 47 46 45 44 42 40 38 37 37 36 35 33 33 31 29
49 49 49 50 50 51 51 52 53 53 49 49 47 45 45 46 47 47 49 50 51 51 51 50 50 48 47 48 46 43 44 42 39 38 38 37 37 35 34 33 32 30 28
48 47 48 49 50 51 51 52 53 51 50 48 46 45 45 46 46 47 48 50 50 52 51 50 49 48 47 47 46 45 44 42 39 39 37 37 41 35 33 31 30 29 29
46 47 46 45 44 46 49 52 52 49 47 46 45 44 45 45 45 47 48 50 51 50 50 49 47 47 46 45 44 44 42 42 40 38 36 36 34 32 31 30 29 29 33
47 46 44 43 44 45 47 49 46 47 47 47 46 45 45 47 49 50 50 50 50 48 47 47 46 45 44 44 43 42 40 39 37 36 36 35 34 32 31 31 30 31 28
48 47 42 43 44 44 43 43 43 44 47 47 46 45 48 48 49 48 48 48 47 46 45 44 44 43 43 43 40 39 38 36 34 35 35 35 37 42 41 37 31 30 28
46 45 45 43 41 42 41 43 42 45 46 46 45 46 47 46 45 45 44 43 42 42 41 39 39 40 43 45 44 39 35 36 34 32 31 33 37 36 41 42 42 41 32
45 44 43 44 42 40 41 39 40 42 42 43 44 45 44 42 42 42 41 39 38 38 37 37 39 39 41 44 43 41 35 32 31 30 30 32 36 34 31 36 40 39 41
44 43 43 44 44 44 44 45 46 44 41 40 40 40 39 38 38 38 36 37 36 36 37 39 39 38 41 43 43 40 32 30 30 30 30 29 30 31 35 32 28 29 31
43 43 44 43 44 44 45 43 41 40 40 38 37 37 37 34 34 33 33 34 35 37 38 39 38 38 37 42 42 36 30 32 31 32 31 31 30 36 40 34 29 29 29
43 42 42 42 41 42 42 40 38 39 37 37 36 35 33 33 33 36 36 37 37 38 39 38 37 39 34 42 43 38 32 31 31 31 30 35 35 39 40 35 29 27 28
40 41 41 39 39 41 40 37 35 33 34 36 34 33 33 34 37 37 38 38 38 37 36 34 33 31 33 33 42 42 33 32 30 29 30 31 37 39 39 38 29 30 34
39 39 37 37 39 40 38 35 32 33 33 33 33 32 33 36 37 37 37 36 36 34 31 29 28 30 30 38 38 39 39 37 30 29 29 29 37 37 36 34 35 36 34
38 38 37 37 38 38 37 33 32 33 33 33 33 33 34 35 36 35 34 33 32 30 29 30 28 28 30 28 35 37 37 36 32 30 34 36 36 34 31 33 34 33 26
38 38 38 36 35 38 37 35 35 35 35 32 32 33 35 35 33 32 31 31 31 29 29 28 26 25 26 27 28 30 28 33 32 32 26 32 31 31 30 28 28 27 26
40 40 38 36 37 37 37 38 38 38 37 38 38 35 33 31 30 31 30 29 29 31 28 27 28 25 24 29 35 34 32 30 32 30 25 24 24 23 24 24 25 25 25
41 40 39 35 36 36 36 36 40 40 38 36 32 30 30 30 29 28 28 38 38 38 38 36 32 31 35 38 37 36 36 35 35 25 22 21 21 20 21 21 21 22 22

GFSMW_sfc_temp_063.txt.gz
Temp
61 59 60 60 61 61 61 63 66 69 68 66 66 64 64 64 63 66 67 65 65 62 61 58 56 56 56 55 53 50 49 46 46 47 49 46 47 47 47 47 48 50 48
56 56 58 57 59 60 60 60 65 69 68 68 68 66 66 66 65 63 64 65 64 61 59 58 57 57 53 52 51 50 47 46 45 46 44 44 48 47 47 46 48 45 46
57 56 55 57 57 57 59 60 60 65 69 69 66 59 59 58 57 58 61 62 62 60 60 59 58 55 52 50 49 49 48 44 45 46 47 42 42 41 44 43 43 43 42
53 54 55 55 55 57 57 59 60 60 67 69 63 62 63 61 62 64 59 53 57 57 56 55 54 53 51 49 51 51 50 50 47 47 49 44 43 42 39 41 41 41 43
50 51 53 55 56 56 56 56 57 58 60 65 65 63 63 64 55 52 52 49 53 54 54 54 52 53 53 53 53 52 51 51 48 46 42 42 41 38 38 37 37 39 40
49 51 52 53 53 53 52 53 55 57 57 59 64 63 63 53 53 52 52 49 49 51 52 53 53 52 52 52 52 51 51 49 48 44 45 43 42 38 36 34 33 33 36
49 50 50 51 51 51 52 54 54 56 56 55 59 61 59 55 56 54 54 50 49 48 49 51 51 51 51 51 50 49 47 46 46 46 42 43 41 41 36 35 32 31 33
48 50 50 50 50 52 51 52 52 53 54 54 55 57 57 56 55 54 54 54 52 50 49 50 51 52 51 50 49 47 45 45 43 44 43 41 41 38 37 35 32 29 28
48 50 50 50 50 51 51 51 52 53 53 53 52 54 53 52 51 50 50 50 49 49 49 50 49 50 50 49 47 46 46 45 44 43 42 40 39 36 35 35 33 31 27
49 48 48 49 49 50 50 51 52 51 52 51 49 49 49 48 47 47 47 47 48 49 49 49 49 49 49 48 47 46 46 45 43 42 41 40 37 35 34 33 32 31 29
47 47 47 48 48 48 48 49 51 52 50 49 46 45 44 44 45 46 47 47 48 48 48 50 50 49 48 47 46 45 45 43 42 41 41 39 38 35 34 32 31 30 28
45 45 45 45 44 45 47 48 50 51 49 47 44 43 43 44 44 44 46 48 47 49 50 50 49 48 47 47 46 45 44 42 41 40 40 38 41 36 33 31 30 29 28
45 45 44 42 41 42 43 44 47 47 47 44 42 42 42 43 46 48 50 50 51 50 50 48 47 46 45 45 45 44 42 40 39 39 39 38 36 35 33 30 28 28 32
46 47 46 39 39 40 41 41 41 43 42 42 42 41 42 46 47 48 49 49 49 48 47 46 45 44 44 43 42 40 38 37 39 38 37 36 35 33 30 31 29 31 28
47 46 44 38 37 38 40 40 41 41 43 44 44 44 46 48 48 47 48 46 47 46 45 44 43 42 42 42 39 38 37 37 36 36 35 35 37 41 39 36 31 29 28
42 45 45 40 38 36 40 41 40 45 46 45 45 46 46 45 44 43 42 43 42 41 40 39 39 38 40 41 39 37 37 36 34 33 33 32 36 35 40 41 41 40 32
43 44 43 41 39 40 40 37 39 42 42 42 43 42 42 40 40 40 40 38 37 37 36 35 37 37 39 41 41 39 35 33 32 31 30 32 35 33 31 35 40 39 41
41 43 42 42 42 43 43 42 40 38 37 37 37 38 39 38 37 36 35 35 35 35 34 34 33 33 36 41 42 39 34 32 30 30 29 28 29 30 34 32 30 30 31
41 42 43 43 43 42 41 40 39 39 38 37 37 38 37 35 35 33 33 33 33 32 32 33 33 35 38 43 42 36 32 33 31 31 30 31 30 36 40 34 29 29 29
42 41 41 41 41 41 42 40 39 38 36 36 35 35 34 34 33 33 32 32 32 32 33 34 36 39 34 42 43 38 32 30 30 30 30 35 35 39 40 33 27 25 27
40 41 40 38 39 40 39 35 35 33 35 35 35 33 33 33 33 33 32 33 35 36 34 32 31 30 33 32 42 41 32 31 30 30 30 31 36 38 39 38 27 28 33
39 39 38 37 39 39 37 33 32 34 35 34 33 33 33 34 33 35 36 36 35 32 30 28 28 29 29 37 38 39 38 37 30 29 29 29 36 36 36 33 35 36 34
38 39 38 37 37 38 36 33 33 34 34 34 33 33 34 34 35 34 33 33 32 30 28 29 28 28 30 28 36 37 38 37 32 30 33 34 34 33 30 32 34 33 25
38 39 38 37 36 37 35 34 35 37 35 33 33 34 34 34 33 31 31 31 30 29 29 29 27 25 26 27 28 30 28 33 31 31 26 31 30 30 29 28 27 26 25
39 40 37 36 35 36 36 37 37 37 35 35 35 33 31 30 30 31 30 30 30 31 29 27 27 25 24 29 35 33 31 29 31 29 25 23 23 22 22 23 24 24 23
39 39 36 37 36 37 36 36 39 39 38 35 32 30 29 29 30 28 28 38 38 38 37 35 32 31 35 37 36 36 35 34 34 24 21 20 20 19 20 20 20 21 21

GFSMW_sfc_temp_066.txt.gz
Temp
59 57 58 60 59 58 60 61 62 66 67 66 65 65 64 64 64 64 65 64 64 62 62 59 56 55 55 55 54 49 49 46 46 47 46 45 45 45 45 45 45 47 46
53 56 57 55 58 59 57 59 61 65 66 67 68 68 67 66 65 64 64 63 62 61 61 59 57 57 54 52 53 50 47 46 45 46 46 44 48 45 45 44 46 44 44
53 53 53 55 54 55 56 57 59 63 66 67 66 61 62 59 59 59 62 62 61 60 60 59 58 56 55 52 52 49 49 46 44 48 50 44 45 41 42 42 42 42 40
49 50 51 52 52 55 55 56 57 58 62 66 65 65 65 63 63 63 63 61 60 60 59 58 57 55 54 51 50 52 53 51 48 48 50 47 47 43 42 40 40 40 41
48 49 50 52 52 52 52 53 55 56 58 62 64 63 62 63 58 57 60 53 57 58 56 56 54 53 52 52 51 51 51 51 49 48 47 46 44 43 43 40 37 38 39
47 48 49 51 51 51 52 52 53 54 55 56 61 62 62 58 54 53 53 51 54 55 55 53 53 52 51 51 51 50 50 50 48 48 46 45 44 41 41 39 35 35 36
47 49 49 49 50 50 50 52 51 53 53 52 55 61 62 58 57 56 56 52 51 49 51 52 51 51 51 50 50 49 48 47 46 46 46 45 44 41 41 39 33 35 33
47 48 48 48 48 49 49 49 50 50 51 51 52 54 57 57 57 56 57 55 54 54 51 52 51 50 50 49 49 49 47 46 44 45 44 42 42 41 41 39 36 31 30
47 47 48 48 47 48 49 48 48 49 49 50 50 50 53 54 54 52 52 51 50 49 51 51 50 50 51 50 48 47 46 46 45 44 43 42 40 40 39 38 37 34 29
46 46 46 46 47 47 47 48 48 48 49 49 49 50 51 51 49 47 47 47 47 49 48 48 49 49 50 49 48 46 46 45 43 43 42 41 39 38 38 37 35 34 31
45 44 44 44 44 44 44 45 46 47 48 47 48 47 46 46 45 45 44 45 46 47 47 47 47 49 49 48 46 45 45 44 43 42 41 40 40 38 37 36 33 32 29
44 44 43 42 41 41 42 42 43 43 45 46 46 44 45 46 45 46 48 48 48 48 49 49 49 48 47 47 45 44 43 41 40 40 40 39 41 37 37 35 35 31 30
43 43 41 39 38 38 39 40 41 41 43 44 42 43 45 46 46 47 48 49 49 49 50 49 47 46 45 44 43 42 41 39 39 38 37 36 36 35 35 34 32 31 32
44 43 41 41 37 37 38 38 39 40 40 41 44 44 45 46 48 48 49 48 48 47 46 46 45 44 44 43 41 40 38 37 37 36 35 35 35 35 35 34 33 31 29
43 42 41 41 36 36 37 37 38 39 40 42 44 44 46 47 47 46 46 46 45 45 45 43 42 42 41 41 37 37 35 35 34 34 34 35 36 40 39 36 33 31 29
43 45 44 41 36 34 35 37 38 40 43 43 44 44 44 43 43 43 42 42 41 41 40 40 40 39 40 42 40 36 34 32 32 31 32 34 36 36 39 40 41 39 30
44 43 42 41 37 37 38 37 39 41 40 41 41 41 41 39 39 40 39 38 37 38 37 37 38 37 38 40 39 36 33 31 30 33 33 33 36 33 31 35 39 38 40
43 43 42 42 41 39 39 40 40 39 39 38 39 39 38 36 36 36 35 36 37 36 35 35 34 34 37 38 37 35 30 31 32 31 30 29 29 30 33 32 29 30 31
40 41 43 42 37 38 38 40 39 39 38 38 37 37 37 35 35 34 33 34 34 33 32 33 32 33 34 38 38 36 33 34 32 32 31 30 30 35 39 33 28 29 28
40 41 41 41 40 40 41 39 37 36 35 35 36 36 35 34 33 33 33 33 33 32 33 32 33 35 33 38 41 37 33 30 31 31 30 35 35 39 40 32 27 24 26
38 40 40 38 38 39 38 35 34 33 35 35 35 34 34 34 34 33 33 32 32 32 31 31 32 33 34 36 42 39 32 31 30 29 30 30 36 38 38 38 27 27 31
39 39 37 36 38 38 36 34 32 34 35 34 34 33 34 35 34 33 34 35 34 33 31 30 29 29 28 38 39 39 38 37 30 30 29 29 36 36 35 33 34 36 33
37 38 35 36 37 37 36 33 33 34 34 34 34 34 34 34 34 35 34 33 33 31 29 30 28 28 30 29 36 37 38 37 32 31 33 34 34 33 29 31 33 32 24
38 38 38 36 35 36 36 35 35 36 35 34 33 34 33 32 31 31 31 30 30 29 29 29 26 25 27 27 29 30 28 33 31 31 26 30 30 29 29 27 26 25 24
39 39 38 36 34 35 35 37 37 37 35 34 35 31 30 28 28 28 28 28 28 30 28 26 27 25 25 30 35 33 31 28 31 29 24 22 21 21 21 22 23 23 23
37 36 37 36 35 36 36 36 38 38 37 33 29 28 27 27 28 27 27 39 38 38 37 35 32 31 35 37 36 36 35 34 34 23 19 19 18 18 19 19 20 20 21

GFSMW_sfc_temp_069.txt.gz
Temp
63 64 64 65 65 65 66 67 68 70 69 67 66 65 64 65 66 68 69 69 70 69 68 68 68 66 65 64 64 61 59 57 59 58 58 58 58 58 59 59 60 58 58
59 61 62 61 63 65 64 64 66 69 70 71 70 68 68 66 66 66 68 68 68 68 68 68 67 66 64 63 61 59 56 56 57 58 58 56 57 57 56 55 57 58 57
56 58 60 60 59 60 63 63 64 66 69 71 70 68 66 63 64 64 66 67 67 67 67 67 67 65 64 61 60 59 59 53 53 56 59 50 53 50 52 53 55 55 55
53 54 55 56 57 58 59 60 62 63 66 69 69 68 66 65 66 67 67 66 67 66 66 66 65 64 62 61 58 57 59 56 52 52 53 53 55 48 48 48 51 52 51
51 52 53 54 55 54 56 58 59 60 63 66 68 68 67 67 68 67 66 64 64 66 65 65 64 62 61 60 57 56 56 59 55 54 49 48 47 47 46 49 44 47 46
51 52 53 54 54 55 55 55 57 59 60 60 63 67 67 66 63 61 62 60 61 63 64 62 62 62 60 58 57 58 57 57 56 55 53 50 49 47 45 45 46 46 44
51 51 51 52 53 53 53 56 55 56 57 58 58 62 65 65 63 64 61 57 57 57 59 60 60 59 60 59 58 56 55 54 53 52 51 52 51 48 43 41 42 42 42
50 51 51 51 51 51 52 52 53 54 56 57 57 58 59 63 62 63 62 60 59 59 61 59 58 58 58 57 56 54 54 52 49 48 48 45 48 46 43 45 45 37 38
50 50 50 50 50 50 50 50 51 52 53 54 55 56 56 57 61 61 61 62 60 57 56 57 56 55 56 55 54 52 50 49 47 45 45 44 44 44 41 40 41 40 36
50 49 49 49 49 49 49 49 49 49 50 51 53 55 56 56 57 57 57 56 54 55 54 54 54 53 53 52 52 49 49 46 45 44 43 42 41 41 40 40 39 40 38
48 48 48 47 47 47 46 46 47 47 47 49 51 52 54 53 52 52 51 51 51 51 51 52 52 51 50 50 48 47 47 45 43 43 42 40 40 39 38 38 37 36 35
48 47 46 45 45 44 45 45 45 45 46 47 49 49 49 50 50 50 50 51 50 51 50 50 50 49 48 48 47 46 45 43 41 39 39 39 39 34 35 34 35 36 36
48 46 45 43 43 42 43 43 44 44 45 46 46 47 48 48 48 49 50 50 50 49 50 49 47 46 46 45 44 43 41 40 39 38 37 36 36 34 35 34 35 37 37
47 46 44 43 41 41 42 42 43 44 45 47 46 46 47 48 48 49 49 49 48 47 46 46 45 44 44 43 42 40 38 38 38 37 36 35 33 32 32 33 35 36 33
45 45 44 42 40 40 40 41 42 44 45 46 45 45 46 46 46 46 45 45 44 44 43 42 42 42 42 42 39 38 36 35 33 33 33 33 34 36 37 37 35 35 36
45 46 44 42 40 39 39 40 41 42 44 42 41 42 43 43 43 43 43 42 42 41 41 41 40 40 41 42 41 37 34 34 32 31 31 32 33 35 36 38 41 41 38
45 44 43 42 40 39 40 40 40 42 41 40 40 40 40 39 40 41 40 39 39 40 39 40 40 38 39 41 40 38 33 32 32 32 35 35 36 34 35 37 39 39 40
44 43 43 42 41 40 40 41 41 41 39 39 39 39 38 37 38 38 36 36 36 36 36 36 37 36 38 40 39 36 32 31 35 34 33 34 35 35 37 37 35 35 37
42 43 43 41 40 39 40 40 39 39 38 37 37 37 37 36 36 35 33 34 34 33 33 33 33 33 36 39 38 35 36 35 34 34 34 36 35 37 40 38 34 34 34
42 42 41 41 41 41 41 38 36 37 35 36 35 36 35 34 33 34 33 33 33 33 34 33 35 37 36 38 37 35 37 33 35 36 35 36 37 39 40 37 34 30 32
40 41 41 39 38 39 39 35 35 33 35 36 35 34 34 34 34 33 33 33 32 32 32 32 33 34 36 39 39 38 36 35 34 34 34 35 36 38 37 37 33 32 36
39 40 38 37 38 38 36 34 32 34 35 35 34 34 34 35 35 35 33 34 34 33 33 32 32 33 34 39 40 39 39 38 34 33 34 34 36 35 35 34 34 35 33
38 39 37 37 37 37 36 33 34 35 35 35 34 34 35 34 36 36 35 35 35 34 33 33 31 32 33 33 37 38 37 37 34 35 34 34 33 32 30 31 32 31 29
36 37 38 36 35 37 36 35 36 37 36 34 33 34 34 35 34 34 35 34 33 33 32 32 30 30 32 33 34 34 34 34 34 32 31 31 30 29 29 28 29 29 29
38 39 38 37 35 36 36 37 37 37 35 35 35 34 33 32 32 33 33 33 33 34 32 31 31 30 30 33 37 36 35 34 34 31 28 27 26 25 26 26 27 27 27
37 37 37 36 35 36 36 37 38 38 37 34 32 32 31 32 32 32 33 39 38 38 37 35 34 34 36 36 36 35 35 33 33 27 24 24 24 23 23 23 24 25 24

GFSMW_sfc_temp_072.txt.gz
Temp
76 78 78 78 78 79 80 80 80 80 80 70 68 67 66 67 74 77 79 78 79 78 77 77 77 77 75 74 73 72 69 68 71 68 66 66 67 67 68 69 69 67 66
72 72 74 75 75 76 77 76 77 79 80 76 73 73 71 70 69 70 72 77 77 77 76 76 76 77 74 74 73 71 67 69 68 66 67 62 64 65 66 67 66 66 66
67 70 72 72 71 72 75 75 76 76 79 79 79 76 74 71 68 66 67 72 75 75 75 75 76 76 75 73 72 70 67 64 65 69 68 61 61 62 63 62 63 64 61
63 64 65 66 67 69 71 71 73 75 76 78 78 75 72 69 72 72 72 69 71 73 74 74 73 74 74 73 71 70 69 68 62 64 64 63 66 62 57 58 59 60 58
62 61 61 61 62 62 64 66 69 70 72 74 75 75 73 73 74 74 73 72 69 69 71 71 72 71 71 71 70 68 68 69 67 63 62 62 61 60 60 59 51 52 54
61 61 61 62 62 63 64 64 66 66 68 69 71 72 73 72 71 72 71 71 69 66 67 69 70 70 70 69 69 67 66 67 68 65 62 58 57 58 56 54 55 53 51
61 61 61 62 62 61 60 62 64 64 65 66 68 70 72 72 72 71 68 67 65 63 64 66 66 66 68 68 68 65 63 63 64 62 59 56 54 54 53 52 50 44 47
61 60 60 60 60 60 60 60 60 61 64 65 66 67 68 69 68 68 68 67 66 65 66 65 64 65 65 65 65 64 62 61 60 59 54 49 47 48 46 44 40 37 39
58 58 59 59 59 59 58 58 58 60 61 61 63 65 67 66 67 68 65 64 66 66 68 64 61 61 60 60 59 57 58 56 56 52 48 45 45 42 41 42 44 40 38
58 58 58 58 58 58 58 58 58 57 57 58 60 61 63 65 65 66 66 62 61 60 59 59 58 56 56 56 55 54 52 48 45 44 45 43 42 41 40 38 41 37 36
57 57 57 57 56 57 56 56 56 55 56 57 58 59 60 62 62 61 61 59 58 57 56 56 55 54 53 53 50 48 47 44 41 40 39 39 42 40 41 37 37 36 34
56 56 55 55 54 54 54 54 54 54 55 51 55 55 55 55 55 55 57 56 56 56 55 55 53 52 51 50 48 46 45 43 41 41 39 37 39 36 35 35 34 33 34
55 55 54 53 52 52 52 53 53 53 54 52 51 51 52 53 52 53 53 54 55 55 54 52 50 49 48 46 46 45 43 42 42 41 39 37 37 35 34 33 33 33 36
55 55 53 52 52 51 51 51 51 53 53 51 49 49 49 50 50 51 51 51 50 49 47 47 47 46 45 43 43 43 42 41 39 39 38 36 35 34 33 34 33 35 36
54 53 51 50 50 51 50 51 50 51 51 49 45 45 46 47 46 46 46 46 45 45 45 44 43 43 42 42 41 40 39 36 36 34 34 34 35 36 36 38 39 39 38
53 50 48 45 47 49 48 48 48 48 48 46 43 43 43 43 43 43 43 44 43 43 42 42 41 40 41 42 41 38 36 35 34 32 33 34 37 38 38 39 39 39 38
52 50 47 45 46 46 47 46 47 47 45 42 42 41 40 40 41 43 43 42 41 41 40 40 39 38 39 41 40 39 33 33 33 34 35 38 39 36 36 37 39 40 41
51 49 47 45 45 47 48 48 47 43 42 41 40 40 39 38 39 39 38 38 38 37 37 36 37 36 38 39 38 36 33 35 37 37 37 36 36 37 38 40 39 39 40
49 48 47 44 44 46 47 47 46 44 41 40 39 39 39 37 37 35 34 35 35 34 33 33 33 34 35 37 37 40 40 38 36 36 36 38 39 38 40 40 36 38 39
45 45 46 44 43 44 47 45 43 41 40 39 38 37 36 35 34 35 33 33 34 34 35 34 36 38 39 39 38 37 36 38 39 39 39 37 38 39 39 38 37 34 36
43 45 46 42 41 42 43 42 39 36 38 39 37 36 36 35 35 35 35 35 34 36 36 35 36 38 39 40 39 39 40 39 38 38 38 38 37 37 37 37 36 34 37
42 42 41 40 40 41 39 36 34 36 36 36 36 36 37 37 37 37 37 39 40 38 37 37 37 39 41 41 40 40 39 39 38 36 37 37 36 35 34 34 35 35 35
44 44 42 41 41 40 38 35 35 37 36 36 36 37 39 40 42 43 41 41 41 40 40 38 38 38 39 40 38 38 37 37 38 38 35 34 34 33 34 33 32 33 35
44 44 42 40 38 39 38 37 39 41 40 36 36 39 40 42 43 43 44 43 42 41 39 38 38 38 39 39 40 39 40 36 37 34 36 33 31 31 31 32 33 34 33
44 44 43 42 39 38 38 40 42 42 40 41 40 42 42 42 42 42 44 43 42 42 41 39 39 38 37 38 38 37 37 38 36 34 34 33 32 32 32 32 32 33 33
44 44 44 42 39 38 40 41 42 42 41 41 40 41 41 41 41 41 40 39 39 38 37 36 38 38 37 37 36 35 35 33 33 33 31 30 30 29 29 29 30 31 29

GFSMW_sfc_temp_075.txt.gz
Temp
80 82 82 84 83 83 83 84 84 84 83 75 68 68 66 71 80 82 82 82 82 81 79 78 79 78 76 75 76 74 72 71 73 69 67 68 69 68 68 69 69 68 67
76 79 80 80 80 81 81 82 82 83 84 83 73 72 68 69 70 75 79 81 80 80 79 78 77 78 76 75 75 73 70 70 71 66 65 61 63 65 67 68 68 67 66
75 77 77 77 77 77 78 79 80 81 82 82 80 76 76 73 68 68 72 74 79 78 78 77 77 77 76 73 74 72 69 65 67 68 67 61 60 61 65 64 65 66 64
71 71 71 73 74 73 75 77 78 79 80 81 80 78 75 71 73 74 72 70 73 76 76 76 74 75 75 74 73 73 71 68 64 64 68 66 65 60 54 61 62 63 63
68 66 65 65 67 65 67 70 72 73 76 77 78 78 77 77 77 77 76 75 70 69 72 72 70 71 73 74 73 72 70 68 67 62 62 62 60 61 57 54 52 57 57
64 64 64 65 64 65 66 67 68 70 72 73 73 74 75 76 75 73 73 74 74 70 68 69 68 67 67 70 70 71 68 67 67 65 64 60 58 57 54 53 50 51 52
63 63 64 64 63 62 63 65 66 67 68 69 70 72 72 73 73 74 73 72 72 69 68 68 67 66 66 66 65 65 65 64 64 64 62 61 57 55 53 51 45 46 46
63 63 62 63 63 62 62 63 62 63 65 66 67 69 70 70 72 73 74 73 70 69 67 65 65 65 65 65 64 62 62 62 61 61 60 57 52 50 48 46 41 37 39
62 62 63 63 62 62 61 61 61 62 63 62 63 65 67 68 67 69 71 69 67 63 65 64 62 62 62 61 60 59 58 58 57 50 47 45 43 42 41 41 42 42 37
61 62 62 62 62 62 61 62 62 60 61 61 62 63 64 65 66 67 66 67 64 62 60 60 59 58 58 57 56 54 51 48 45 44 42 41 40 39 38 38 39 38 37
61 62 62 61 60 61 60 60 60 59 58 57 58 60 61 62 63 63 64 63 61 59 58 57 56 55 54 54 51 50 48 45 43 43 41 39 39 37 36 36 36 35 35
60 60 59 59 59 58 58 57 57 57 57 55 54 54 56 57 57 58 60 60 59 58 57 56 55 54 52 50 48 46 44 42 40 40 39 38 39 37 36 37 35 35 34
59 59 58 57 56 56 55 55 55 55 56 54 53 53 53 54 54 54 55 56 57 56 56 55 53 51 49 48 47 45 43 41 40 40 39 38 38 36 35 35 34 34 36
59 59 57 56 55 54 54 54 53 54 54 52 50 48 49 49 49 49 49 49 50 49 48 48 47 46 45 44 44 43 41 41 40 40 40 39 37 35 34 35 34 36 35
58 57 55 54 53 53 53 53 52 52 52 49 46 45 46 46 46 45 45 45 45 45 44 43 43 43 42 42 40 38 37 36 35 34 35 35 37 38 38 38 38 39 38
58 57 54 50 50 51 51 51 50 50 49 46 43 43 44 43 43 44 43 43 42 42 42 41 41 41 42 43 42 38 36 35 34 32 32 35 38 39 40 40 40 40 36
55 54 53 50 48 48 50 49 49 49 45 44 43 42 42 43 43 44 43 42 41 41 39 39 39 38 38 40 39 37 32 32 32 32 33 36 37 37 37 38 39 39 41
55 54 52 49 48 49 51 51 49 45 43 42 41 41 40 39 39 39 38 38 38 37 37 36 37 37 39 40 39 37 33 35 36 37 37 37 37 38 38 39 38 38 39
55 52 50 47 47 48 51 50 48 46 43 41 40 40 39 38 38 36 35 36 35 34 33 34 34 34 36 40 40 40 40 37 35 35 35 39 39 39 40 38 36 37 36
49 47 47 46 46 47 50 49 47 46 42 41 39 38 37 36 35 35 34 34 35 35 36 35 38 40 38 40 40 39 37 36 37 39 39 37 38 39 39 36 35 32 34
45 47 46 45 43 44 46 45 43 39 39 39 38 36 36 36 36 36 36 36 36 36 36 37 39 40 41 40 40 41 40 38 37 37 37 37 37 37 37 37 34 33 35
45 46 42 41 41 42 42 39 34 37 39 38 37 37 38 38 38 38 39 41 41 40 39 39 39 41 41 41 40 40 39 39 36 35 36 36 36 36 35 34 36 36 35
46 46 43 41 41 41 40 35 35 36 36 37 37 39 40 41 42 42 42 42 43 42 40 39 38 37 39 40 38 38 38 38 36 36 35 35 35 35 35 35 34 34 32
46 47 46 43 40 40 39 38 38 38 38 37 38 41 41 44 45 45 45 44 43 42 39 38 37 37 38 38 38 38 38 37 37 35 35 34 34 35 33 33 33 32 32
47 47 45 43 41 40 39 40 41 41 39 41 42 43 44 44 43 43 44 44 41 40 40 38 38 37 35 36 37 36 35 35 35 33 33 32 32 31 31 31 31 31 31
47 46 46 45 41 40 41 42 44 45 43 43 42 42 43 43 42 40 38 39 39 38 38 38 39 37 37 37 36 35 35 34 34 31 30 30 29 28 29 29 29 30 30

GFSMW_sfc_temp_078.txt.gz
Temp
71 74 73 74 72 73 72 70 72 73 73 70 67 68 65 66 68 71 74 73 73 73 70 68 68 67 65 64 65 63 62 60 61 59 56 56 59 58 58 58 58 59 59
68 69 72 71 71 71 70 71 71 70 74 70 68 70 66 68 66 66 69 72 72 71 72 70 69 67 65 65 64 63 60 59 60 56 54 50 53 56 58 57 59 57 56
64 66 67 68 67 67 67 69 71 71 72 72 70 66 67 66 65 67 68 67 69 70 70 69 69 67 67 65 65 64 61 59 58 59 56 50 50 50 53 55 56 56 53
59 62 62 63 63 62 62 63 66 69 71 70 68 66 65 64 65 64 65 68 68 68 67 67 67 66 65 64 65 66 64 60 59 56 63 56 55 50 47 51 53 55 55
57 57 58 60 59 59 58 59 61 63 65 65 65 64 65 67 66 65 65 65 65 68 68 67 68 65 66 65 63 62 63 64 59 59 53 56 52 51 49 44 47 51 52
56 56 58 59 57 57 58 58 60 61 63 62 62 61 60 61 62 63 62 63 64 64 65 67 65 64 65 64 64 63 64 65 61 58 55 53 51 52 49 47 46 48 48
55 55 54 54 55 54 55 58 57 58 59 59 60 60 60 59 59 61 62 62 62 62 62 65 65 63 63 64 64 63 62 61 61 61 57 54 53 52 51 50 46 45 45
56 56 56 54 54 55 54 55 55 55 56 56 56 57 57 57 58 59 60 61 62 62 65 63 63 63 63 62 62 61 61 60 58 58 57 52 48 50 49 48 43 38 38
55 55 56 55 54 53 54 54 54 54 55 55 55 55 56 56 56 57 58 58 60 61 61 62 61 61 61 61 60 59 58 58 56 50 47 45 44 45 44 43 44 43 37
55 55 55 55 54 54 54 54 54 53 53 53 52 54 54 55 55 56 56 56 55 57 58 58 58 57 57 56 56 53 50 48 45 45 44 42 41 40 40 41 41 42 39
54 54 54 54 53 53 52 52 52 52 51 50 49 49 50 51 52 52 53 53 53 54 55 55 54 54 53 52 51 48 47 44 43 42 41 40 40 38 39 40 39 37 36
53 53 52 52 51 50 50 49 50 49 49 48 51 53 53 52 50 50 52 54 54 55 55 54 52 51 49 49 47 45 44 42 40 39 39 38 40 38 38 38 36 35 35
52 52 51 50 49 48 48 47 47 47 47 47 49 49 49 49 49 49 50 51 51 51 50 50 48 46 46 45 44 43 41 40 40 39 38 38 38 36 36 35 34 35 36
52 51 49 49 47 47 47 46 46 47 46 45 45 45 45 46 46 46 46 46 46 45 45 45 44 44 44 43 42 41 40 39 39 39 39 38 37 35 34 35 35 35 34
52 51 49 47 47 47 47 46 46 46 45 43 43 43 44 44 44 43 43 44 44 43 43 42 42 42 42 41 40 39 37 36 34 35 35 36 38 39 39 37 36 35 33
53 51 48 47 46 45 45 46 44 43 43 42 42 43 43 43 42 42 42 42 42 42 42 41 41 41 42 43 42 37 35 34 33 32 32 34 35 37 39 40 40 39 35
51 50 46 44 44 45 47 44 43 42 41 42 42 42 42 42 42 42 41 40 39 39 38 38 38 38 41 43 41 38 32 32 32 32 32 34 36 35 35 38 39 39 41
52 49 45 43 45 47 48 47 42 40 41 41 40 41 40 39 39 38 37 37 37 36 36 36 37 38 40 41 40 38 32 33 32 32 33 34 34 35 37 36 33 34 35
48 46 46 46 46 47 48 45 40 39 41 40 40 39 39 37 37 35 34 35 34 34 33 33 32 32 37 42 41 37 32 30 30 32 32 34 34 40 41 34 31 31 32
44 44 45 45 45 46 48 43 40 38 37 39 38 37 37 35 34 35 34 34 35 35 36 35 33 38 32 41 41 36 32 29 30 32 33 39 36 39 39 32 28 26 27
43 45 45 43 43 44 45 42 40 37 38 38 37 36 36 35 35 35 36 35 35 35 32 31 33 33 34 35 42 42 34 31 29 30 30 31 38 37 37 37 27 29 31
43 42 39 40 41 42 41 37 34 37 38 37 36 36 36 38 37 36 36 36 34 31 31 31 30 32 33 40 40 40 39 38 30 29 29 30 36 36 36 33 36 36 34
41 41 37 38 40 40 38 35 35 37 37 37 37 37 38 38 39 39 36 33 33 32 31 30 28 29 31 31 39 39 38 38 30 30 33 35 36 35 31 35 35 34 26
42 41 39 36 34 38 38 37 37 38 38 37 37 39 39 39 39 38 37 34 33 32 31 30 28 28 29 29 29 32 30 36 32 33 28 33 35 36 33 31 30 28 27
42 42 40 37 38 38 37 38 38 39 38 39 39 40 38 36 33 32 32 30 30 34 30 29 29 28 27 30 34 33 30 28 31 30 27 26 26 26 26 26 27 26 26
43 41 40 38 37 38 38 40 41 40 40 40 37 35 34 33 32 30 29 39 38 40 40 40 33 32 36 38 36 35 35 34 34 26 25 24 24 22 24 24 25 27 28

GFSMW_sfc_temp_081.txt.gz
Temp
66 69 70 69 69 68 66 68 69 68 70 66 65 64 64 66 67 67 71 70 71 70 67 64 64 63 63 63 62 61 60 58 58 56 54 54 55 56 57 57 57 57 58
64 68 68 68 68 67 67 66 69 68 68 68 67 66 65 64 65 66 66 68 69 70 68 66 65 64 62 62 61 60 57 58 57 54 52 50 53 54 56 55 57 55 55
61 64 65 65 64 62 63 65 66 67 70 67 65 64 64 64 64 64 64 66 67 66 70 66 68 65 64 64 61 61 60 57 55 57 55 48 48 49 51 54 54 54 52
57 59 60 57 56 56 59 61 62 64 67 66 66 65 64 63 65 65 64 63 65 65 65 64 65 67 63 62 62 63 61 58 59 54 60 55 53 50 48 50 51 52 52
59 55 54 56 56 57 57 59 58 60 60 61 62 63 62 63 62 63 63 63 63 64 65 64 63 62 63 63 63 62 62 63 60 59 53 54 51 50 47 45 46 49 50
51 52 53 55 53 55 56 56 59 58 58 58 57 58 58 58 58 60 61 61 62 62 63 64 63 63 64 64 63 63 63 65 64 61 55 56 53 53 47 46 44 47 48
51 52 51 51 51 52 53 56 55 54 55 54 54 54 54 55 56 57 58 60 61 59 61 62 64 64 63 63 63 62 61 60 59 59 59 58 56 54 52 50 46 45 44
51 53 51 51 51 52 52 52 52 52 53 53 52 52 53 53 53 54 55 57 59 60 63 62 63 63 63 62 62 61 61 60 59 58 57 54 52 51 51 50 46 41 39
50 52 53 52 50 50 51 51 51 51 50 50 50 50 51 51 52 52 52 53 56 59 60 61 61 61 61 61 60 59 58 58 57 55 53 49 46 46 46 46 47 46 38
50 51 52 52 52 51 50 51 51 49 48 48 48 49 48 49 50 50 51 52 52 54 54 55 57 56 56 56 56 53 51 49 46 45 44 42 43 42 43 43 44 44 43
49 49 50 52 51 51 50 49 49 48 48 48 47 47 47 48 49 49 50 50 51 51 51 51 51 52 52 52 50 48 47 44 43 42 41 40 41 39 40 40 40 39 39
49 48 48 49 49 48 48 48 48 47 47 47 47 47 48 47 46 46 48 50 49 50 49 49 48 49 48 47 46 44 44 42 40 40 40 39 41 38 38 38 37 37 36
48 47 46 46 46 46 46 46 46 45 45 45 44 44 47 47 47 47 48 49 49 49 49 48 46 46 45 44 44 43 42 41 40 40 39 38 38 37 36 36 35 35 37
49 47 45 44 45 45 44 44 44 44 43 43 42 41 44 45 45 45 45 46 46 45 44 45 44 43 43 43 42 41 40 39 39 39 38 38 37 35 35 35 35 35 34
48 47 45 43 43 44 43 43 42 41 41 40 40 42 44 44 44 43 43 43 43 43 43 42 42 42 42 42 39 39 37 36 35 36 36 37 38 40 38 35 34 35 33
50 48 46 44 43 42 43 43 41 41 41 40 41 43 43 42 42 42 42 41 41 41 42 41 41 41 41 43 41 36 34 33 33 33 33 35 37 39 40 40 40 38 32
51 48 45 44 43 43 44 41 41 41 40 40 42 42 42 41 41 41 40 39 39 39 38 39 40 40 41 43 41 38 32 31 31 31 33 34 37 35 32 38 40 39 41
49 48 45 43 43 45 45 44 42 39 38 40 40 40 40 39 39 38 37 36 37 36 37 37 38 39 41 42 41 38 32 32 30 31 31 30 30 32 34 33 31 32 33
46 46 46 46 46 46 46 43 41 38 38 39 39 39 39 37 36 35 34 35 35 34 33 33 31 31 35 42 40 35 30 30 29 31 31 31 31 40 40 31 29 28 29
44 45 45 45 45 46 46 42 37 36 36 39 38 38 37 35 34 34 34 34 34 34 33 31 32 38 33 42 41 34 30 28 29 29 31 39 34 39 38 29 26 25 26
42 44 44 43 43 44 45 41 38 35 36 38 37 36 36 35 35 35 35 35 35 32 30 29 30 30 32 36 42 40 31 30 28 29 29 30 38 37 37 37 27 28 29
42 41 39 40 41 42 41 38 35 37 37 37 36 36 36 37 37 36 36 36 31 29 28 28 28 29 31 39 40 40 39 36 29 28 28 29 37 37 37 34 35 36 33
40 39 37 37 39 40 39 35 35 37 36 36 36 36 37 38 38 35 32 31 30 29 28 29 27 27 30 30 40 40 39 38 30 30 33 36 36 35 31 34 35 34 26
41 39 37 35 34 37 38 37 37 38 37 36 36 37 37 38 39 37 33 31 30 29 29 28 27 26 27 27 28 30 27 35 31 32 27 33 34 35 32 31 29 28 26
43 40 37 35 34 36 37 38 38 39 38 38 38 38 39 37 31 32 31 29 30 32 29 28 28 26 26 29 33 31 29 27 31 30 26 26 26 25 25 26 26 25 26
41 39 38 35 34 36 37 38 39 40 39 38 38 37 35 30 29 28 29 39 39 41 40 38 33 32 36 39 37 36 35 35 35 27 24 23 23 22 24 24 24 25 28

GFSMW_sfc_temp_084.txt.gz
Temp
64 67 68 67 66 64 66 66 67 66 67 64 64 63 64 65 64 65 68 69 69 67 66 64 63 61 61 62 60 59 59 56 56 55 54 53 54 54 54 55 54 55 56
61 65 66 65 63 66 66 65 66 66 67 66 65 65 64 64 64 64 66 67 67 67 67 65 64 63 60 60 59 59 56 57 56 54 51 51 53 54 54 53 55 54 55
63 60 63 65 61 60 63 66 67 67 68 65 64 63 63 63 63 63 63 64 65 65 66 64 65 63 63 61 59 59 58 56 55 55 55 47 48 48 51 52 52 53 51
59 55 55 55 57 56 59 61 64 64 65 65 64 63 65 65 64 64 63 64 65 65 64 64 62 62 63 62 61 60 60 57 57 54 57 53 52 50 49 49 49 50 51
59 56 55 55 55 55 54 56 58 60 60 61 64 63 62 62 61 62 62 62 62 64 64 63 62 61 61 61 60 62 61 63 64 59 55 56 53 52 51 52 47 47 47
53 52 52 53 52 53 54 56 57 55 56 57 57 60 61 58 57 59 60 61 61 62 62 63 63 62 60 61 62 63 63 63 62 62 59 58 54 54 49 47 47 48 48
49 49 49 49 50 50 52 55 54 52 52 52 53 54 54 54 55 56 56 57 59 60 61 61 61 61 62 63 63 62 60 60 60 59 59 57 58 54 53 53 47 46 45
48 49 49 49 49 50 50 50 50 50 50 50 50 50 52 52 53 54 54 55 57 58 61 60 61 61 63 63 62 61 60 60 59 59 58 56 55 53 53 53 48 41 41
47 48 49 49 49 49 49 49 49 48 48 47 48 47 48 49 50 51 51 52 55 57 58 59 60 60 62 62 61 59 58 58 54 53 52 49 46 47 47 47 48 48 42
47 47 48 48 49 49 48 49 49 47 46 46 47 47 47 48 48 49 50 51 52 53 54 55 55 55 56 56 56 53 51 49 46 45 44 43 43 44 44 45 45 46 44
46 46 47 47 48 48 49 48 48 48 47 46 46 45 45 46 46 47 47 48 49 50 50 49 49 50 50 51 49 48 47 44 43 43 42 41 42 41 41 41 41 39 39
46 46 45 45 45 45 47 47 46 46 46 46 45 45 45 44 43 43 45 46 46 46 46 46 45 44 44 44 45 45 44 43 41 41 40 40 41 38 39 38 37 36 36
45 45 44 43 43 43 45 46 46 44 45 44 43 43 43 44 45 45 46 47 47 45 45 44 44 44 45 44 44 43 42 41 41 40 39 39 39 37 37 36 35 36 37
47 44 43 42 42 42 43 44 43 44 43 42 41 41 41 42 44 45 45 45 46 45 44 44 44 43 43 43 42 41 40 39 39 39 39 38 37 36 36 35 35 36 35
46 46 43 41 41 41 41 42 42 41 41 40 40 40 43 43 43 43 43 43 43 43 43 42 42 42 42 42 39 39 38 36 36 36 37 37 39 41 39 36 35 36 34
49 47 45 43 40 40 40 41 40 40 40 39 39 42 42 42 42 42 41 41 41 42 42 41 41 40 41 43 41 35 34 35 34 33 33 36 38 41 42 42 40 36 31
49 47 45 43 42 41 42 39 39 40 38 38 40 42 42 41 40 41 40 39 39 39 39 40 40 40 40 43 42 38 30 32 32 32 32 33 36 34 32 38 40 39 41
50 47 44 42 41 42 41 40 40 39 38 38 39 40 40 39 38 38 37 37 37 37 37 38 39 39 41 43 41 38 30 29 30 30 29 29 29 31 32 31 30 30 30
45 46 47 45 45 44 44 43 41 40 39 38 39 39 39 37 36 35 35 35 35 34 34 34 34 33 35 41 40 33 29 29 28 30 29 30 30 40 39 30 28 27 29
43 44 44 45 45 45 44 42 39 39 36 38 39 38 37 36 35 35 33 34 32 32 32 31 31 38 33 41 40 33 30 28 29 29 31 39 34 39 38 29 26 25 26
43 43 44 44 44 44 43 40 38 36 37 38 38 36 36 35 35 35 35 34 30 30 29 28 29 30 32 36 41 39 31 30 27 28 29 30 38 38 38 35 27 28 29
42 43 41 41 42 43 42 38 36 37 38 37 36 36 36 37 37 36 35 33 30 28 28 27 27 29 30 40 41 40 38 36 29 28 28 29 37 37 37 34 35 36 32
42 41 39 37 38 40 41 37 36 37 37 36 36 36 37 37 37 37 34 30 29 28 26 28 26 27 30 29 40 40 40 38 30 30 32 36 37 36 32 34 36 34 26
42 41 39 36 35 36 39 38 37 38 37 36 36 37 36 37 37 35 32 29 28 27 28 27 26 26 26 27 28 30 28 36 32 33 27 32 34 34 32 30 29 27 26
42 41 39 35 34 34 35 38 38 38 37 37 37 37 37 37 34 32 30 28 29 31 28 27 28 26 25 29 32 31 29 27 31 29 26 25 25 24 25 25 25 25 25
41 38 39 35 34 34 36 38 39 39 38 37 37 37 37 35 32 28 28 38 38 40 40 38 32 31 36 38 39 38 37 36 36 27 24 23 22 21 23 23 23 24 28

GFSMW_sfc_temp_087.txt.gz
Temp
63 64 65 66 66 64 64 66 66 66 66 64 63 62 63 62 62 63 66 65 67 66 64 63 61 60 60 61 59 58 57 55 55 54 54 53 54 54 54 54 54 55 56
59 62 65 63 62 65 65 65 66 65 66 66 64 64 63 63 63 63 64 66 66 65 65 64 63 61 59 59 58 58 56 56 55 53 51 51 54 53 54 53 54 52 54
57 59 61 62 60 61 62 65 66 66 67 65 64 62 63 62 62 62 62 63 64 63 64 63 65 63 62 61 59 58 57 56 54 55 56 48 48 48 51 50 51 52 50
57 58 58 58 59 59 59 62 64 64 64 64 64 63 63 63 63 63 62 63 64 64 64 63 62 61 60 60 59 60 59 57 56 53 57 55 56 54 52 52 49 51 53
57 56 54 55 53 54 54 58 59 60 61 63 64 63 62 62 61 62 62 62 63 64 63 63 61 60 60 60 59 58 57 61 63 58 55 56 53 53 53 56 53 50 50
53 53 51 52 51 52 54 55 56 56 56 58 61 62 62 60 58 59 60 60 61 61 62 63 62 60 60 59 59 59 60 63 62 60 58 57 54 53 51 49 52 48 46
50 49 49 49 50 50 51 53 54 53 53 53 52 54 58 60 60 57 57 58 59 59 61 61 61 62 62 61 60 59 59 59 58 60 59 57 57 56 54 53 49 47 45
47 48 48 48 48 49 49 50 50 50 51 50 50 49 51 51 52 53 53 54 55 57 59 60 60 61 61 61 61 60 60 60 59 58 57 57 55 54 54 53 49 42 42
45 47 47 47 47 47 48 48 47 47 48 48 48 47 48 49 50 50 50 51 53 56 57 58 58 59 60 60 59 58 58 56 52 50 51 50 47 48 48 49 49 49 43
44 45 46 46 46 47 47 47 47 46 46 46 46 46 46 47 49 50 50 50 51 52 53 54 56 56 56 56 55 52 51 49 46 46 46 44 44 44 45 45 46 45 45
43 43 44 45 45 45 46 45 45 46 45 45 44 44 45 45 45 46 47 48 49 49 49 49 49 50 50 51 49 48 47 45 43 44 43 42 43 42 42 42 42 40 41
44 44 43 43 43 43 44 44 45 45 45 44 44 43 44 43 42 43 44 46 45 45 45 44 44 44 44 45 47 45 43 41 42 42 41 41 42 39 39 39 37 37 37
43 42 41 42 41 41 42 43 43 43 44 44 43 42 42 42 41 42 43 45 44 43 43 43 42 42 42 41 41 41 40 42 41 41 40 40 39 37 37 37 36 36 38
44 42 40 40 40 41 41 41 41 42 43 43 42 41 40 40 40 44 45 45 46 45 44 44 43 43 43 42 42 41 40 40 39 39 39 39 38 36 35 35 36 37 35
43 43 42 40 39 40 40 40 40 40 41 41 40 40 41 41 41 43 43 43 43 43 43 43 42 43 42 42 40 39 38 37 36 36 36 36 40 41 40 35 34 35 34
46 45 44 42 40 39 40 40 39 39 40 40 39 40 40 41 41 42 41 42 42 42 42 41 41 41 42 43 42 38 36 36 35 34 34 36 39 42 43 42 41 36 30
46 46 45 43 41 42 41 39 38 39 38 39 39 40 40 40 40 41 40 40 39 40 39 40 40 38 39 43 41 37 33 33 33 33 33 33 35 33 31 39 40 40 41
49 47 44 42 42 41 40 40 39 37 37 38 38 39 40 39 39 38 37 37 38 38 38 38 39 40 41 42 41 37 30 30 29 29 29 28 29 31 31 30 29 29 30
48 46 45 44 41 42 42 42 40 40 39 39 38 39 39 37 37 36 35 36 36 35 34 35 35 36 38 41 39 34 30 30 28 30 29 29 30 40 38 30 28 27 28
42 42 44 44 44 43 44 41 40 39 38 39 38 38 38 36 35 35 34 34 35 34 35 33 32 38 33 41 40 33 31 28 29 29 30 38 33 39 38 28 26 25 25
41 42 43 42 42 44 43 40 39 37 38 39 38 37 37 36 36 35 35 34 33 33 30 29 30 31 33 36 40 38 31 30 27 29 29 30 38 38 38 35 27 27 29
43 43 42 42 42 43 42 39 37 38 38 38 37 36 36 37 37 36 35 34 31 29 27 28 28 29 30 40 40 40 37 35 29 28 28 29 36 37 37 33 35 37 32
42 42 41 40 40 41 41 38 37 37 37 36 36 36 37 37 37 36 34 32 29 28 26 28 26 27 30 28 41 41 40 38 30 30 32 37 37 37 32 35 36 34 26
41 41 40 38 36 37 38 39 38 38 37 36 36 36 36 36 37 37 35 30 27 27 28 27 26 26 26 27 28 31 29 37 32 33 27 32 34 34 32 30 28 27 25
42 41 40 38 38 35 35 36 38 38 36 37 37 37 37 36 35 35 33 28 28 31 28 27 28 26 25 29 32 31 30 28 32 29 26 25 25 24 24 24 24 24 24
40 39 39 38 36 34 34 36 38 39 37 36 36 36 36 36 35 32 28 37 37 39 39 38 32 31 36 38 39 38 37 37 36 27 24 22 22 20 22 22 22 23 24

GFSMW_sfc_temp_090.txt.gz
Temp
67 65 64 65 65 64 65 66 66 66 66 65 64 63 63 62 61 63 66 65 66 65 63 61 60 59 59 59 58 56 56 54 55 54 54 54 55 54 53 54 54 55 56
61 62 63 61 63 64 65 65 66 65 66 66 65 64 63 62 62 63 64 65 65 64 63 63 61 59 58 57 57 56 55 55 54 53 50 52 54 53 54 53 53 52 53
57 60 62 62 61 62 63 64 65 65 66 65 64 63 63 62 62 61 61 62 64 64 64 62 62 60 60 59 57 57 57 55 53 54 56 49 49 49 52 52 51 51 50
56 56 57 60 60 60 62 64 64 64 65 64 64 64 63 64 62 62 62 62 62 62 62 62 61 60 59 58 57 58 58 57 55 53 56 56 57 55 53 53 54 53 53
57 58 56 57 56 56 56 60 62 63 63 65 65 64 62 63 61 62 62 62 62 63 63 62 62 61 61 60 59 57 57 59 62 58 55 56 53 54 54 53 55 51 48
53 56 54 52 50 51 52 54 56 56 59 62 62 62 61 60 60 60 59 60 60 61 62 62 62 61 60 60 60 59 58 61 61 61 59 57 54 50 50 51 54 52 50
51 51 50 49 50 50 50 52 53 52 53 54 57 60 62 63 62 60 58 58 59 59 61 61 61 61 61 60 59 58 58 58 58 59 58 58 57 56 54 53 51 49 47
49 49 50 48 48 49 49 50 50 50 51 51 50 51 53 54 54 54 54 55 56 57 58 59 60 61 61 60 59 58 58 57 57 59 58 57 56 54 54 53 51 44 44
44 47 47 47 47 46 47 48 48 47 48 48 48 47 48 49 49 50 50 51 52 55 55 56 57 58 59 59 59 59 58 56 54 52 52 51 48 49 49 50 51 49 44
41 43 45 45 45 45 45 46 47 46 45 46 46 46 46 46 47 48 49 49 50 51 52 56 56 56 57 58 56 53 52 49 47 48 47 46 45 45 46 46 47 47 47
41 41 42 43 43 43 44 44 44 45 44 44 44 44 44 44 44 45 46 47 47 48 48 50 51 51 52 52 51 49 48 46 44 44 44 43 44 43 43 43 42 41 41
42 42 41 41 41 42 43 43 43 43 43 43 43 43 43 43 42 43 43 44 44 44 44 44 44 44 45 48 49 47 46 45 43 42 43 41 43 40 40 40 38 38 38
41 40 40 40 40 40 41 41 41 41 41 42 41 42 42 42 42 42 43 43 43 43 42 43 42 42 42 41 41 42 41 41 40 40 39 40 40 38 38 38 37 37 38
41 40 39 39 39 39 40 40 39 40 40 40 40 40 40 40 40 41 42 42 43 42 43 44 43 42 42 41 41 40 39 39 39 40 40 39 38 37 37 36 34 36 35
41 41 40 39 38 38 38 38 39 39 39 39 38 38 39 40 40 40 41 43 44 43 43 43 42 43 43 43 40 40 39 38 37 37 37 37 39 41 40 35 33 32 31
43 42 42 41 39 38 38 39 38 38 39 38 38 39 39 40 39 40 40 42 42 42 42 41 41 41 42 43 43 39 37 37 36 34 34 37 40 43 44 43 41 35 30
44 43 43 42 40 40 40 38 37 38 37 37 38 38 38 39 38 40 40 40 39 40 39 39 40 40 41 43 42 39 34 33 33 33 33 34 36 34 32 40 40 41 41
46 46 44 42 41 41 40 39 38 37 37 36 37 38 38 37 39 39 38 38 38 38 38 39 39 39 41 41 39 37 33 32 31 30 30 29 29 32 31 30 29 29 30
45 46 46 43 41 41 41 40 37 37 38 37 39 40 39 37 37 36 36 36 36 35 35 36 36 37 39 41 39 34 30 30 29 30 29 30 30 39 38 30 28 27 28
41 42 42 43 42 40 41 40 38 39 38 39 39 39 38 37 36 36 34 34 35 35 35 34 35 39 34 41 40 34 32 29 30 30 31 38 33 39 37 28 26 25 25
39 40 41 40 41 42 42 41 40 38 39 40 39 37 37 36 36 36 35 35 34 34 33 32 32 31 33 36 40 39 32 30 28 29 29 31 39 38 38 35 26 27 28
41 43 42 42 42 43 42 39 37 38 39 38 37 37 37 38 37 36 35 35 34 33 32 31 29 30 31 40 41 40 36 35 29 28 28 29 36 37 37 33 35 37 32
43 43 42 41 41 41 42 39 38 38 38 37 36 36 37 37 37 36 34 33 33 32 30 30 28 28 30 29 41 41 40 38 30 30 32 36 37 37 32 35 36 33 25
42 42 41 39 38 40 40 40 37 38 37 36 36 36 36 36 37 37 35 33 32 30 30 29 27 26 27 27 28 31 31 38 33 34 28 32 34 34 31 30 28 27 24
41 40 39 39 39 38 38 37 37 37 37 37 37 37 37 37 36 35 35 34 33 32 30 28 28 26 25 29 32 31 30 27 31 28 27 26 26 25 25 24 24 23 24
42 40 40 40 39 37 37 35 36 37 37 36 36 36 36 36 35 33 32 37 36 38 39 37 32 31 36 38 39 38 38 37 37 27 25 24 23 22 23 22 22 22 24

GFSMW_sfc_temp_093.txt.gz
Temp
68 68 68 68 68 68 68 68 69 69 68 67 66 66 66 66 67 69 71 71 71 70 69 69 68 67 67 68 67 66 65 64 65 66 68 68 68 68 68 68 68 67 68
65 69 69 67 66 66 67 66 66 66 68 67 67 67 67 67 68 68 69 70 70 70 69 69 68 67 66 66 66 65 64 65 64 66 63 63 67 67 66 66 65 67 67
62 68 66 67 65 65 67 67 67 66 67 68 65 64 65 65 65 65 66 67 69 69 69 68 69 67 67 66 66 65 64 64 63 65 67 59 60 61 64 64 64 64 63
60 60 61 63 64 64 64 66 67 67 67 67 67 66 65 64 65 66 65 64 67 67 67 67 67 67 66 66 64 64 64 64 64 61 63 61 61 57 56 62 61 61 61
59 60 60 61 62 62 62 64 66 66 66 65 66 65 64 65 65 64 67 64 65 67 65 65 66 66 64 64 63 63 64 64 66 63 61 59 57 58 57 55 62 57 58
58 59 60 59 59 57 59 61 63 63 64 65 66 66 65 64 62 64 64 65 65 65 65 65 64 64 64 65 64 63 63 64 64 65 64 60 57 55 54 53 55 59 53
57 59 57 56 56 56 56 58 59 59 61 63 64 65 65 65 65 64 64 63 64 64 65 65 65 64 64 64 64 63 62 62 62 63 63 63 62 59 56 55 56 51 51
54 54 55 55 55 54 55 56 56 55 56 57 57 58 60 61 62 61 62 62 62 62 63 63 64 65 65 65 64 63 62 62 61 62 62 62 61 59 58 55 53 46 48
50 52 53 53 53 52 53 54 54 54 54 54 54 55 56 57 57 57 57 58 58 59 60 60 61 62 63 64 63 62 62 62 62 61 59 57 53 54 53 54 56 51 45
48 49 50 50 50 51 50 51 52 52 51 52 53 52 52 53 54 55 55 55 56 56 57 59 60 60 60 61 61 58 57 55 52 52 52 51 51 51 51 52 52 50 50
45 46 47 48 48 48 49 49 49 49 50 50 50 50 50 50 51 52 52 53 53 53 54 55 56 56 56 56 54 52 51 50 49 48 49 48 49 49 49 49 46 46 49
44 45 45 46 47 47 47 48 48 48 48 48 49 49 49 49 49 49 50 51 50 50 50 50 51 50 51 53 52 51 49 47 49 46 46 44 45 44 46 46 43 43 44
43 44 44 45 45 46 46 46 47 46 47 47 47 47 47 48 48 48 48 49 49 48 49 49 48 47 47 48 49 48 47 47 46 46 45 45 45 43 43 42 41 42 42
44 44 44 44 45 45 45 45 45 46 45 45 46 45 46 46 47 47 47 48 48 48 48 47 47 46 46 46 45 45 44 44 44 44 44 44 43 41 40 40 41 42 42
43 44 44 44 44 44 44 44 44 44 45 44 44 44 44 45 45 45 45 46 46 46 46 46 46 46 45 45 44 43 43 42 41 40 40 40 42 42 42 41 40 41 39
45 45 45 44 43 44 44 43 43 43 44 43 43 43 43 43 43 44 44 44 44 45 44 44 44 44 44 44 43 42 40 39 38 36 37 41 43 44 44 43 41 41 39
46 46 46 46 45 43 44 43 42 42 42 42 42 42 42 42 42 42 43 43 42 43 42 42 43 42 43 44 43 40 35 34 34 34 36 37 39 39 41 43 42 42 41
47 47 47 46 45 45 44 43 42 41 41 40 41 41 41 41 41 41 41 40 40 40 40 40 41 41 42 43 42 40 37 37 36 37 37 37 37 37 37 37 35 35 37
48 48 48 48 45 45 44 43 41 41 41 40 41 41 41 39 40 39 37 38 38 37 37 38 38 38 39 41 40 37 36 35 35 35 36 37 38 40 38 35 33 34 35
44 44 45 45 45 44 43 42 40 40 40 41 40 42 40 40 38 38 36 35 37 36 37 36 38 40 39 41 39 37 36 34 34 35 38 39 39 40 37 35 35 33 33
43 43 43 43 43 42 43 41 41 40 41 42 41 40 40 39 39 37 37 36 36 35 35 34 35 36 39 40 40 39 37 36 34 35 35 37 40 39 38 35 34 34 34
43 44 43 42 42 42 43 41 39 40 40 40 39 39 39 39 38 37 36 36 35 34 33 33 33 35 38 41 41 40 38 37 35 34 35 36 38 38 38 35 36 38 34
43 44 43 42 42 43 43 40 40 39 39 39 38 38 38 39 38 36 35 34 35 34 32 33 32 34 35 38 42 41 40 38 35 35 36 36 38 38 36 36 37 36 32
44 43 42 41 40 41 41 41 40 40 39 38 38 38 37 37 38 37 36 35 34 33 33 33 33 33 33 34 35 37 39 39 36 37 36 35 34 34 33 33 33 32 31
43 41 41 40 40 40 39 40 39 40 38 38 38 37 37 38 36 36 36 35 36 36 34 34 34 32 31 33 36 35 35 35 35 32 31 31 31 30 30 30 30 29 30
41 41 41 40 40 39 39 39 39 39 38 37 38 37 37 37 36 34 33 38 38 39 39 38 36 35 37 39 39 39 38 37 37 32 30 30 29 29 29 28 28 28 29

GFSMW_sfc_temp_096.txt.gz
Temp
78 76 73 73 74 77 80 78 72 74 74 70 68 67 67 69 70 75 78 79 79 79 78 78 78 77 75 76 75 74 73 72 74 72 73 74 76 77 77 78 78 77 76
75 77 71 72 73 74 78 76 76 70 71 73 68 68 67 67 68 70 76 77 77 78 77 77 77 76 75 75 75 73 71 73 73 71 71 68 73 75 76 77 75 76 77
71 75 74 68 69 71 69 72 72 71 68 67 68 67 65 65 65 66 69 72 76 76 76 76 76 76 75 74 73 73 71 70 71 72 71 65 66 71 74 73 74 74 74
69 70 66 69 65 67 67 70 75 69 68 67 66 66 67 65 65 66 67 69 71 73 72 73 74 75 74 74 74 73 73 71 69 69 71 73 71 66 65 69 68 68 68
69 66 66 66 68 65 66 68 68 71 69 68 69 65 65 66 66 69 68 67 67 66 68 70 70 72 72 72 72 70 70 71 70 69 67 68 69 68 64 60 67 66 66
68 67 67 69 69 67 67 68 70 69 69 69 70 68 67 68 66 66 66 67 65 64 67 68 68 69 69 69 68 71 71 71 70 69 70 67 64 61 60 60 62 58 64
69 68 66 65 67 65 66 67 70 70 70 68 68 69 68 68 67 68 67 67 67 66 66 67 66 67 67 68 68 68 67 67 67 67 67 68 68 68 62 60 60 59 59
69 68 68 68 68 68 66 67 68 70 69 64 66 68 69 68 68 69 66 67 66 66 67 68 69 69 68 68 68 67 67 67 66 66 67 67 67 67 66 63 60 51 52
67 68 67 66 68 67 66 67 65 65 66 65 60 60 62 63 63 63 65 65 65 65 67 66 67 68 68 67 66 65 64 65 65 66 66 66 66 63 62 60 58 55 52
61 63 65 65 64 63 63 63 65 63 62 63 65 63 61 61 62 63 63 63 63 64 65 65 66 67 67 67 65 63 63 63 60 59 61 57 55 55 57 59 59 55 54
60 61 62 63 62 60 60 61 61 60 61 62 62 62 61 61 61 61 61 61 61 62 61 63 63 63 63 63 62 61 57 56 53 52 52 52 55 51 52 55 55 54 54
57 57 58 58 59 59 59 58 59 59 60 60 61 60 60 60 60 59 59 59 59 59 59 59 59 59 59 59 58 55 53 50 50 49 52 50 50 50 48 49 49 51 51
54 55 56 58 58 59 59 58 58 57 57 57 58 58 59 59 59 58 58 58 59 58 58 58 57 56 55 55 55 54 50 50 50 51 48 49 50 46 47 50 49 49 47
54 56 56 57 58 58 58 58 56 57 57 57 57 56 56 56 56 57 57 57 57 57 56 56 56 55 55 55 54 51 49 49 48 49 51 49 49 50 48 47 47 48 48
54 55 55 56 56 56 56 57 56 56 56 55 55 54 54 54 55 54 54 54 54 54 54 54 53 53 53 52 51 51 51 50 47 47 46 46 46 45 47 46 47 47 46
55 56 55 54 56 57 56 55 55 54 55 54 53 52 52 52 52 53 53 53 52 52 52 51 51 50 49 45 46 46 45 44 43 40 42 44 44 45 45 44 45 46 44
57 56 57 56 56 56 56 55 55 53 53 52 52 51 51 50 50 51 51 51 51 51 49 48 47 46 46 45 44 42 36 35 35 37 39 41 43 46 45 44 43 43 42
57 58 59 58 58 58 56 57 54 52 51 51 50 50 50 49 49 49 48 48 47 45 45 44 44 43 44 44 43 41 39 39 40 40 41 42 42 42 42 42 40 41 42
59 60 61 60 60 58 57 55 53 52 51 51 50 50 49 48 47 47 44 44 43 40 39 41 41 40 41 43 42 40 40 39 40 41 42 43 42 40 40 40 38 39 39
54 55 55 56 57 58 57 54 53 52 51 51 51 49 47 44 44 45 40 39 41 39 39 39 41 41 40 41 41 42 42 40 40 41 41 41 42 40 39 41 40 38 38
52 52 52 54 54 55 54 52 52 49 51 51 48 45 44 43 44 44 43 41 39 38 38 37 38 39 41 40 40 41 42 41 40 39 40 41 41 40 38 39 40 38 39
51 50 51 50 49 50 50 50 47 48 48 47 45 42 43 44 43 43 42 40 38 37 36 35 35 38 40 42 42 41 41 41 40 39 40 41 40 39 39 38 37 37 37
51 51 51 49 49 49 50 47 46 47 44 43 40 40 41 41 41 41 40 36 36 36 35 34 34 35 37 43 42 42 41 40 40 40 40 39 39 39 38 37 37 38 38
50 49 47 46 45 45 44 46 42 41 41 40 40 40 40 40 40 41 42 39 35 35 35 34 33 34 36 40 42 41 42 40 38 38 39 39 39 38 38 37 37 37 38
49 48 45 43 44 44 44 43 42 41 40 41 42 41 42 40 37 38 40 40 38 37 35 35 35 35 37 40 42 41 40 40 39 38 37 36 36 36 36 36 36 36 35
49 48 48 44 42 42 42 42 42 41 41 40 42 43 40 39 37 36 38 40 39 39 40 40 38 39 41 41 40 40 40 40 39 36 36 36 36 35 36 35 35 35 34

GFSMW_sfc_temp_099.txt.gz
Temp
81 82 80 80 80 80 81 82 78 77 73 71 68 69 68 69 68 72 78 81 81 80 79 78 79 78 77 76 77 75 74 72 75 72 72 72 75 75 75 76 77 77 76
79 80 78 80 80 78 79 81 79 75 74 71 70 69 69 69 68 68 74 78 79 79 78 78 78 78 76 75 75 74 71 72 72 68 70 65 71 73 75 76 76 76 76
75 79 78 77 76 75 76 79 78 77 75 72 69 68 67 65 65 65 67 72 75 75 77 77 77 76 76 74 74 73 70 68 71 71 69 64 63 68 72 73 74 74 73
76 77 78 76 75 75 73 76 75 71 68 70 68 67 67 66 67 68 69 69 71 71 73 74 73 75 74 73 73 74 72 70 69 70 71 70 70 64 64 69 71 72 71
75 74 76 75 75 72 71 71 73 73 68 68 67 65 66 67 69 67 67 68 68 67 68 68 70 71 71 71 72 72 72 73 70 69 67 67 67 66 63 61 63 63 65
74 74 75 74 71 68 69 66 70 64 66 64 67 65 63 63 62 64 63 65 64 63 65 66 68 68 70 67 67 66 68 65 66 66 70 68 64 64 62 61 62 62 61
72 72 71 68 71 67 68 62 65 68 70 66 66 66 64 63 63 62 62 64 64 63 63 65 64 65 66 68 67 66 67 68 67 67 65 68 67 66 62 60 59 58 59
71 71 72 71 67 65 63 63 69 67 72 70 68 69 70 67 66 67 65 65 65 66 66 67 66 67 66 67 67 65 65 64 64 65 65 66 67 66 63 61 60 53 54
71 71 72 72 71 71 69 67 68 69 74 71 63 67 68 67 65 64 65 65 65 63 65 67 68 68 68 67 65 64 63 64 65 65 66 65 63 63 63 62 60 57 51
72 72 72 73 71 71 71 66 70 68 67 69 66 64 63 63 64 64 63 61 62 64 64 66 68 68 68 68 67 64 63 62 62 61 61 59 58 58 58 58 59 56 56
66 68 71 73 70 67 64 66 68 63 62 66 64 65 63 63 62 62 62 62 61 62 63 64 65 65 65 66 64 63 61 60 58 54 57 54 53 53 53 55 55 53 52
65 66 68 68 64 62 64 63 63 63 64 64 64 62 63 63 63 62 61 61 60 61 61 60 60 61 61 60 60 59 55 53 52 51 52 49 49 51 51 50 50 50 50
59 61 62 62 63 63 62 61 61 61 62 63 63 62 62 63 62 61 61 61 61 60 59 59 59 58 57 57 58 56 53 52 51 50 49 49 48 47 48 50 48 48 49
58 60 61 62 62 63 62 62 60 60 60 60 60 60 60 61 61 60 60 59 60 59 59 59 58 57 57 57 56 53 52 50 49 48 49 49 50 48 47 47 47 48 48
58 59 59 60 61 61 61 61 60 60 60 58 58 57 57 58 58 57 57 58 58 57 57 56 56 56 55 54 54 54 51 48 47 46 46 46 45 48 49 47 47 47 46
58 59 59 59 60 60 60 59 58 58 59 58 57 56 56 56 55 55 55 56 55 55 54 53 53 53 51 46 47 49 48 45 44 41 42 44 44 45 46 47 47 47 43
59 59 59 59 60 60 60 58 58 57 57 57 56 55 55 54 54 54 54 53 53 53 52 51 50 49 48 46 45 43 37 35 35 37 39 42 44 45 44 45 44 44 44
60 60 61 61 61 61 60 60 59 56 55 55 54 54 54 53 52 52 51 51 50 49 48 47 46 45 45 45 43 42 40 40 40 40 40 41 41 42 42 40 38 39 39
62 62 63 63 63 61 61 59 57 56 55 54 54 54 53 51 51 50 48 48 46 44 42 42 42 42 42 44 43 41 39 38 38 39 41 42 42 43 43 38 36 37 36
58 58 58 59 61 62 62 58 56 56 54 55 55 54 51 50 48 49 44 41 43 41 42 40 41 42 41 43 42 40 38 37 38 40 40 44 42 41 42 38 37 35 34
55 57 57 57 57 59 60 56 57 54 55 55 54 50 48 47 47 47 44 43 42 41 40 39 40 40 40 41 42 43 40 40 39 38 38 39 41 40 40 41 37 36 36
54 54 55 53 53 53 54 53 51 52 52 51 49 47 46 46 46 45 44 43 42 40 39 38 36 37 40 41 41 42 43 43 38 37 38 39 41 40 39 38 39 39 39
54 54 54 53 52 52 52 50 50 50 49 48 47 46 45 44 42 42 41 39 40 38 35 34 34 34 36 39 42 42 42 43 39 38 40 41 40 40 38 38 38 39 34
53 52 51 50 50 50 48 47 47 48 47 43 43 42 40 40 41 41 41 39 38 36 35 33 33 34 34 36 38 39 39 41 38 39 37 38 38 39 38 35 35 34 34
52 51 50 48 46 47 47 47 46 45 42 41 41 41 41 42 40 39 40 39 41 40 36 35 35 33 33 36 41 40 38 37 37 37 35 34 34 33 33 33 33 33 33
51 50 51 50 47 43 43 42 42 42 41 41 41 42 42 43 41 38 36 40 41 41 41 40 37 37 40 42 43 43 43 42 41 35 33 33 33 32 33 32 32 32 33

GFSMW_sfc_temp_102.txt.gz
Temp
73 73 71 72 70 71 74 74 71 71 69 67 66 67 67 67 68 70 72 73 74 73 71 69 69 69 67 67 67 66 64 63 64 62 61 62 64 65 65 66 66 67 68
71 72 70 70 69 69 71 72 72 70 69 67 67 67 67 67 67 68 69 70 72 72 71 70 70 70 68 68 67 66 63 63 63 59 59 57 60 63 65 65 66 66 66
67 70 68 66 66 66 68 70 70 69 68 68 67 66 65 65 65 65 66 68 69 70 69 70 70 70 68 66 67 66 64 61 63 64 60 55 54 58 63 65 65 65 63
66 67 68 63 64 63 66 68 68 68 68 66 66 64 63 63 64 64 65 66 67 67 67 69 69 69 68 67 66 67 65 63 61 62 65 61 60 56 56 61 63 61 62
68 66 68 67 64 62 61 65 66 65 65 65 65 63 62 62 63 63 64 65 65 65 65 66 66 66 65 65 65 65 65 64 63 62 60 60 60 60 57 54 57 59 58
63 67 67 64 60 59 61 62 63 63 64 62 63 62 62 61 61 61 61 62 63 63 64 65 65 65 65 65 65 63 63 63 63 63 62 61 59 58 57 54 55 55 56
62 62 62 60 59 57 58 60 62 61 61 61 61 61 61 61 61 61 60 61 62 62 62 63 63 63 64 65 64 63 63 63 62 62 63 64 62 61 59 56 55 54 51
61 61 62 60 59 58 57 58 60 60 61 60 61 62 62 62 61 61 61 61 62 63 63 63 63 63 64 64 64 63 63 63 62 62 62 62 64 62 61 58 57 52 53
60 61 61 61 59 58 59 60 61 63 64 63 63 62 62 62 62 62 62 61 61 62 63 63 63 63 64 65 64 62 62 62 62 62 62 62 62 61 61 60 59 56 48
60 60 61 61 60 60 60 61 60 60 63 61 60 60 59 60 59 59 58 58 58 60 61 61 62 63 62 63 63 61 61 61 61 60 60 60 59 59 58 57 57 56 53
57 61 61 61 60 57 57 57 58 56 58 61 59 57 57 59 57 57 56 56 57 58 58 59 59 60 59 59 58 57 56 55 55 56 56 57 56 54 54 54 54 53 52
57 58 59 57 55 54 54 54 54 54 56 57 58 55 56 56 55 54 55 55 54 55 55 56 56 56 56 55 55 54 53 52 52 52 52 51 51 50 50 50 50 49 50
55 56 56 54 52 53 53 53 53 53 54 56 55 55 54 54 53 54 54 55 54 53 54 55 54 54 53 53 52 52 51 51 50 50 49 49 49 47 47 47 47 47 47
53 53 52 52 52 52 52 52 51 52 53 53 53 53 54 52 52 52 53 52 54 53 52 52 52 52 52 52 51 49 49 49 48 48 49 48 48 47 47 46 46 46 43
51 52 51 51 51 51 51 51 51 51 52 52 50 50 50 50 50 51 51 51 50 50 51 50 50 49 49 49 45 48 46 45 44 45 45 44 46 48 48 45 43 45 43
53 53 53 53 51 49 50 51 50 50 51 50 49 50 50 50 50 49 49 48 48 48 48 47 47 46 48 47 47 47 42 43 43 41 41 43 44 46 48 48 49 46 38
53 53 52 52 51 51 52 49 49 50 49 49 49 49 49 48 48 48 48 47 46 46 44 44 44 43 42 46 46 43 37 35 35 37 39 41 43 43 43 45 46 46 46
54 54 52 52 52 52 51 50 49 48 48 47 48 48 48 47 46 46 45 43 43 42 41 41 41 41 42 46 44 43 39 38 39 39 40 40 40 41 40 38 36 33 35
53 52 53 53 52 51 51 50 48 47 47 47 47 47 47 45 45 43 41 41 40 38 39 40 40 38 41 44 44 40 38 37 37 38 40 40 39 43 43 35 32 31 33
50 50 51 52 52 52 51 49 47 46 46 48 48 47 46 44 43 42 39 40 41 40 40 39 36 40 38 44 43 40 37 35 35 37 39 43 40 43 43 33 31 30 30
49 51 50 47 47 49 50 49 48 46 48 49 47 44 43 42 42 40 39 38 40 39 38 37 36 36 38 41 43 43 39 36 35 35 35 37 42 42 42 40 33 33 33
48 49 47 46 46 47 47 46 44 45 46 45 43 41 41 42 41 39 38 41 40 38 37 36 35 36 37 41 43 43 43 42 36 34 34 34 41 40 40 36 41 41 37
47 48 46 45 45 45 45 44 43 44 43 42 41 40 41 41 42 40 39 39 39 37 35 34 34 34 35 38 42 42 43 44 36 35 36 40 41 40 39 39 40 40 31
46 46 45 43 42 42 42 41 42 43 42 40 39 41 40 40 40 41 40 39 37 36 35 33 33 33 33 35 36 37 38 42 38 40 36 37 37 37 35 35 35 32 30
46 46 44 42 40 41 44 43 42 42 41 41 40 40 40 40 39 39 39 39 40 38 35 35 35 33 32 35 38 38 35 34 36 33 32 31 30 30 30 30 30 30 30
44 44 44 43 41 40 42 41 42 42 41 40 40 40 40 40 39 37 37 41 42 42 42 41 37 36 39 40 42 42 42 41 40 32 30 30 30 30 30 29 29 28 30

GFSMW_sfc_temp_105.txt.gz
Temp
65 68 66 68 67 66 66 68 68 69 69 68 67 67 67 67 67 69 73 72 71 70 68 67 66 66 65 64 65 63 62 61 61 60 59 60 61 61 63 64 63 65 65
62 63 66 66 67 66 66 68 70 69 69 68 66 66 66 65 66 68 69 71 70 70 70 68 67 67 66 66 65 64 61 62 62 60 58 57 60 60 62 62 63 63 63
61 61 61 62 63 64 64 67 68 69 69 66 66 66 65 65 64 64 66 67 69 68 68 68 67 66 66 65 64 64 63 60 61 62 59 53 54 56 59 60 61 62 61
62 65 62 60 61 62 64 66 66 66 66 67 65 65 63 63 64 63 64 66 67 67 68 67 67 67 66 65 65 66 64 61 60 60 63 60 59 55 55 59 58 59 59
60 63 62 63 61 61 62 63 63 64 64 64 66 64 61 62 63 64 64 64 64 65 65 66 66 65 64 65 65 64 63 63 61 61 59 58 57 58 56 53 56 56 54
60 65 61 61 58 58 60 62 62 61 63 63 62 62 61 61 61 61 61 62 62 63 63 64 64 64 64 64 64 63 63 63 62 61 61 60 58 56 55 54 55 54 56
59 57 57 58 58 57 58 61 62 60 60 61 60 60 60 60 60 60 60 60 61 62 62 63 63 63 63 63 63 63 62 62 62 62 62 63 62 60 58 56 55 56 53
56 57 58 58 58 57 56 59 60 59 59 59 59 59 59 58 59 60 59 60 60 62 63 63 62 63 63 62 62 62 62 61 61 61 62 63 62 60 60 58 57 52 52
56 55 58 58 58 57 57 58 58 60 60 59 58 57 57 58 58 59 59 60 60 61 62 62 62 63 63 62 62 62 62 62 61 62 61 61 60 60 60 59 58 58 52
55 55 58 57 57 58 55 56 57 59 60 59 60 59 59 59 60 59 59 59 60 60 61 61 62 62 62 62 61 61 61 61 60 60 59 59 59 59 59 59 59 57 56
55 55 56 59 58 56 56 55 57 58 59 58 56 55 57 57 57 56 56 56 57 57 58 60 59 60 60 59 58 57 56 56 55 55 56 56 56 56 55 55 54 54 54
52 53 53 53 53 52 53 52 52 54 53 54 54 55 55 54 54 54 54 55 55 56 56 56 55 55 56 56 55 54 53 52 51 52 51 52 51 53 52 52 52 52 51
50 48 50 50 50 50 50 50 51 51 51 52 51 51 52 51 52 52 53 54 53 53 53 53 52 53 52 51 51 51 50 50 49 49 49 50 50 50 49 49 49 49 48
49 48 47 48 49 49 49 49 49 50 50 50 50 49 49 49 50 51 52 52 52 50 50 50 50 50 50 49 49 48 47 47 48 48 49 49 48 48 47 47 47 47 46
50 49 47 47 47 47 48 48 48 49 49 49 48 47 48 48 48 49 49 50 50 49 48 48 48 48 48 48 45 46 45 44 45 45 45 44 46 49 49 46 45 45 44
51 51 51 50 49 48 48 49 47 48 48 47 46 47 47 47 47 47 46 47 47 47 47 46 45 44 46 48 48 46 42 42 41 39 40 43 45 47 49 48 48 46 42
50 50 50 50 49 49 49 47 47 47 46 46 46 47 47 46 45 46 46 45 44 44 42 43 43 41 41 47 47 43 37 35 35 38 39 41 43 43 43 46 46 47 47
51 51 50 50 50 49 49 47 47 46 45 45 46 46 45 45 45 44 43 42 41 41 40 40 40 39 41 46 45 43 38 39 39 40 40 40 40 40 39 37 35 36 37
49 50 50 50 49 49 48 47 45 45 45 45 45 45 45 43 43 42 40 40 39 38 37 38 38 37 40 45 44 41 37 37 37 39 39 40 40 42 42 36 33 34 35
49 49 49 49 48 48 48 46 44 44 44 45 45 45 44 43 41 40 38 38 38 38 40 39 35 39 38 44 44 40 37 35 36 37 39 42 40 43 42 35 33 32 31
48 48 47 46 46 46 47 45 44 43 45 46 45 43 42 42 41 39 38 38 38 40 39 37 37 37 37 41 44 43 37 36 35 35 35 37 42 43 43 39 33 31 31
48 48 45 44 45 46 46 45 42 44 45 43 42 41 40 41 40 38 36 37 40 38 37 37 36 36 38 42 44 44 42 41 35 34 35 36 42 42 42 38 40 41 37
46 46 45 44 43 43 44 42 41 43 42 41 40 39 39 39 39 39 39 38 38 38 36 35 34 34 36 38 43 44 44 44 36 36 37 39 42 41 39 40 41 41 30
45 45 43 41 40 41 41 40 41 42 40 39 39 40 40 40 41 41 41 39 38 37 36 34 34 34 34 34 36 38 39 42 39 39 37 39 38 37 35 35 36 32 31
44 44 42 40 40 40 41 43 44 44 42 40 39 41 41 41 39 39 40 39 40 38 36 35 35 33 33 35 38 37 36 35 36 34 33 32 31 30 30 30 31 30 31
42 41 41 40 39 39 39 39 42 42 41 40 40 40 40 40 39 38 37 41 42 42 42 42 38 36 40 41 41 41 41 41 41 33 31 31 31 30 30 30 29 29 32

GFSMW_sfc_temp_108.txt.gz
Temp
60 62 64 65 65 67 67 68 67 67 68 67 66 66 65 65 66 67 70 70 71 70 68 66 65 64 64 63 63 62 61 59 59 59 59 60 61 61 61 61 61 62 63
58 60 61 62 63 64 66 68 69 68 68 68 68 68 66 65 66 66 68 69 69 69 68 67 66 65 64 63 63 62 60 61 60 58 56 55 59 58 60 59 61 61 62
55 57 59 60 61 63 64 67 66 66 66 67 66 67 66 65 64 65 65 66 67 67 67 66 65 64 64 64 63 63 62 60 59 61 59 53 52 55 58 58 59 60 59
55 56 59 59 60 62 63 65 65 67 66 67 66 66 65 64 64 64 64 64 66 67 67 67 66 65 64 64 64 65 63 62 59 59 61 59 58 55 56 57 56 57 58
55 57 60 62 61 61 61 63 64 64 64 64 64 63 63 63 64 64 64 63 64 64 65 65 65 64 65 64 64 63 63 63 61 61 59 58 57 57 56 54 55 54 53
59 62 57 58 57 58 59 61 62 63 63 63 62 62 62 62 62 62 62 62 62 62 63 64 64 65 65 63 64 64 63 63 62 61 60 59 58 57 55 54 55 53 53
53 54 54 55 56 57 58 59 60 61 61 61 61 61 61 61 60 60 60 61 61 61 61 62 62 62 63 63 63 62 62 62 61 61 61 61 61 60 58 56 56 53 51
53 55 56 56 56 57 58 59 59 59 59 60 59 59 59 59 59 59 59 60 60 60 61 61 61 62 62 62 62 61 61 61 60 60 60 61 61 61 60 59 57 52 52
52 53 54 55 56 56 57 59 59 58 58 58 57 57 57 57 57 57 58 58 58 60 60 61 60 61 62 61 61 60 60 60 61 61 61 61 62 61 61 60 57 56 52
52 52 55 55 56 57 56 56 59 59 58 57 57 57 57 57 57 57 57 57 58 58 59 60 61 61 60 61 60 60 60 60 60 60 61 61 60 59 58 58 57 57 57
53 55 55 55 57 55 55 54 54 55 56 57 57 56 56 56 57 57 57 58 58 58 59 60 59 59 59 59 58 57 57 57 56 56 56 56 57 56 56 56 55 55 54
51 54 57 54 52 52 52 54 54 55 55 55 54 54 54 55 55 55 55 55 55 55 56 57 56 56 55 55 55 53 53 53 52 52 51 51 51 52 53 52 53 53 52
46 47 48 51 50 49 50 51 51 52 53 53 52 52 51 51 51 52 51 52 52 52 53 54 53 52 53 52 51 50 49 49 48 48 48 48 50 50 50 50 51 50 49
45 44 45 46 46 47 48 48 49 50 50 50 49 49 48 49 50 49 49 49 49 49 49 49 49 49 49 49 48 47 47 46 46 46 46 48 47 48 48 48 48 48 48
46 46 45 44 45 46 46 46 47 48 48 48 47 47 47 47 47 47 47 47 47 47 47 47 46 47 47 47 45 46 45 44 43 43 44 45 45 47 49 47 47 46 45
47 47 47 47 45 45 46 47 46 47 47 46 46 46 46 46 45 45 45 45 45 44 45 44 44 43 45 48 48 46 42 42 41 40 40 41 44 46 49 49 48 47 43
47 48 47 47 47 47 47 46 46 46 46 45 45 46 45 45 44 44 44 43 42 42 42 42 42 41 41 47 47 43 38 35 34 35 38 41 43 43 43 46 46 46 46
49 49 49 48 48 47 47 46 46 45 45 45 45 45 44 44 43 43 42 41 40 40 39 39 39 39 40 46 46 45 39 39 38 38 39 40 40 41 40 38 36 36 38
49 49 49 49 48 48 47 46 46 45 45 44 44 44 44 42 42 41 40 39 39 37 37 37 37 37 38 45 45 41 38 37 37 39 39 40 40 42 42 37 34 34 35
47 47 48 48 47 46 46 45 44 43 43 44 44 44 43 42 41 40 38 37 37 37 37 37 35 38 36 44 45 41 35 33 34 37 39 42 41 43 42 36 34 33 33
46 46 46 44 44 45 45 44 43 43 44 45 44 42 42 41 40 39 37 37 37 37 37 38 38 35 37 40 45 44 35 34 33 34 35 37 42 43 43 40 34 35 34
45 45 43 43 44 45 45 44 42 44 44 43 42 41 40 40 39 38 36 36 36 35 36 36 36 36 37 41 42 45 44 40 35 34 35 36 41 42 42 41 39 41 36
45 45 43 42 41 42 43 42 41 42 42 41 40 39 39 39 38 37 36 35 36 35 36 36 35 35 36 38 42 44 45 44 37 36 37 40 41 42 40 40 42 41 29
43 43 42 40 40 40 40 40 41 41 41 39 38 38 38 38 38 40 40 39 38 37 36 35 34 35 35 35 36 38 39 43 40 39 37 39 40 39 36 36 36 31 30
42 42 40 39 39 39 40 40 41 42 40 41 40 41 40 41 40 40 39 39 40 39 36 36 35 34 34 36 38 38 36 35 37 35 32 32 32 32 31 30 31 29 30
40 40 40 39 39 38 38 39 40 41 42 41 41 41 40 40 39 38 38 42 42 42 42 42 39 36 40 42 41 41 41 41 40 34 30 31 31 30 29 29 30 30 31

GFSMW_sfc_temp_111.txt.gz
Temp
55 58 61 64 66 70 67 69 69 69 68 67 66 66 65 65 65 65 68 68 69 68 67 66 65 64 64 63 62 60 59 58 58 58 58 59 60 60 59 59 59 60 61
53 56 58 61 65 67 68 67 67 67 68 68 68 68 66 64 64 65 66 69 68 68 68 66 66 66 64 62 62 61 59 60 59 57 56 55 57 57 59 58 60 59 59
52 54 56 57 61 65 66 67 67 67 68 68 67 64 64 64 64 64 64 65 67 67 67 67 67 66 66 64 62 62 61 59 58 60 59 52 52 54 58 58 57 59 58
53 53 56 57 59 64 64 66 66 66 66 67 66 65 63 62 64 65 64 65 66 66 66 66 65 65 63 63 63 64 62 62 60 59 61 59 58 54 55 57 55 55 57
54 55 56 59 59 61 63 63 66 65 66 66 65 64 62 63 64 64 64 64 64 65 65 65 64 64 63 63 64 63 62 62 61 60 58 58 57 58 56 53 56 55 54
55 55 57 59 59 59 61 62 63 63 65 65 65 64 64 64 64 63 64 64 64 63 63 64 64 64 64 63 63 63 63 63 62 61 60 59 57 56 56 54 55 55 56
54 57 55 56 56 57 58 61 62 61 63 64 64 65 65 64 64 64 63 62 62 61 62 63 63 63 64 63 63 63 63 63 62 63 61 61 60 59 58 56 55 55 55
53 57 54 56 56 57 57 59 61 61 62 61 60 61 62 62 62 61 61 60 60 60 61 61 62 62 62 62 62 62 61 61 60 60 60 60 60 60 59 58 56 54 53
55 53 52 54 55 56 57 58 58 60 59 59 58 58 58 58 58 58 58 58 59 59 60 60 60 60 60 60 60 59 60 60 59 59 59 59 59 60 60 59 59 57 52
53 50 51 52 54 56 55 56 56 58 57 57 57 57 57 57 57 57 57 57 58 58 58 59 59 59 59 59 59 58 59 59 59 59 59 59 59 59 58 58 58 58 56
53 52 52 52 53 53 54 55 55 55 55 55 55 55 55 56 56 56 56 56 58 59 58 59 59 58 58 59 58 58 57 57 56 56 55 55 55 54 55 55 55 55 55
51 51 52 51 51 51 52 52 52 54 54 54 54 55 55 55 55 54 54 55 55 56 56 57 57 56 55 54 54 52 53 53 52 51 52 50 50 50 51 51 52 53 53
48 49 51 52 51 50 51 51 51 52 53 54 53 52 53 53 52 52 53 53 53 51 52 52 52 51 52 51 52 52 51 50 47 46 46 46 47 48 48 49 50 50 50
45 45 47 48 48 49 49 49 50 50 50 51 51 50 49 49 50 52 51 49 49 49 48 48 48 48 48 48 47 46 46 46 45 45 45 45 45 44 46 47 48 48 48
43 44 43 45 45 46 46 47 47 48 48 48 48 47 47 47 46 47 46 46 46 46 46 46 45 45 45 45 43 44 43 42 42 42 42 42 44 47 48 47 46 46 46
45 44 44 45 44 45 45 46 46 46 47 46 46 46 45 45 45 44 44 44 43 43 44 43 43 42 44 48 48 42 39 38 38 38 38 40 42 43 48 49 49 47 44
45 45 45 45 45 46 46 45 45 45 45 45 44 45 44 44 44 43 43 42 41 41 41 41 41 40 41 47 47 43 38 36 36 38 37 39 41 41 41 43 43 43 44
46 46 45 45 45 45 45 44 44 44 44 43 43 44 44 43 42 42 42 40 39 39 39 39 39 39 40 47 46 45 39 39 40 39 39 39 38 39 40 39 37 37 38
45 46 46 46 45 45 44 44 43 43 43 43 43 43 43 42 41 40 39 38 39 38 37 37 37 37 37 45 46 43 37 35 36 38 39 40 40 43 43 37 35 35 35
44 46 46 46 45 44 44 44 42 42 43 43 43 43 42 41 40 40 38 38 37 37 37 36 35 38 35 42 45 43 36 33 33 34 36 42 41 43 43 36 35 33 34
44 44 44 43 43 45 45 44 43 43 44 44 44 42 41 41 40 39 37 37 37 36 35 37 39 38 35 36 44 45 38 36 35 32 33 35 42 43 43 41 34 35 35
44 44 43 41 42 43 44 43 42 43 43 43 42 41 40 41 39 38 36 36 36 35 38 37 36 35 35 41 43 44 45 41 36 35 35 36 41 42 42 41 40 41 38
43 43 42 42 41 41 43 42 42 42 42 41 40 39 39 38 38 36 36 35 35 34 34 35 35 33 35 37 42 43 45 45 38 36 37 40 41 41 40 42 41 42 32
43 43 42 41 40 40 40 40 40 40 40 39 38 38 38 37 37 38 37 36 35 34 36 35 34 35 35 36 36 38 39 41 41 40 37 38 39 40 37 37 36 33 31
41 41 40 39 39 38 39 40 41 40 39 39 38 38 38 39 37 39 40 40 39 38 35 34 33 32 32 34 38 38 36 36 37 36 34 33 32 30 31 30 30 29 29
42 40 39 38 38 38 38 38 40 40 39 39 40 40 40 40 38 39 39 43 42 43 43 42 39 35 40 42 42 42 42 42 42 35 32 31 30 29 30 29 29 29 31

GFSMW_sfc_temp_114.txt.gz
Temp
58 60 59 60 63 65 66 69 68 68 67 66 65 64 63 63 64 65 67 67 67 65 64 63 62 62 62 62 61 59 59 58 58 58 58 58 59 58 58 58 58 59 59
56 58 57 59 63 64 65 67 68 68 68 68 67 67 66 64 64 64 65 67 66 66 66 64 64 64 63 61 60 60 58 59 58 57 55 55 58 58 58 57 58 58 59
53 56 54 56 59 62 64 65 67 68 69 69 68 65 65 64 63 62 63 64 66 66 67 66 66 65 64 62 61 62 61 58 58 59 59 53 53 55 57 56 57 57 56
53 55 54 55 57 60 64 65 66 67 68 68 67 65 64 63 64 64 64 63 65 64 65 64 64 64 63 62 63 63 61 61 59 58 60 59 60 56 56 57 56 57 58
53 54 53 56 56 61 62 63 64 65 67 66 67 64 62 63 63 63 63 63 64 64 64 64 64 62 63 63 62 62 62 61 60 60 58 58 57 58 56 55 57 57 55
51 53 53 55 56 59 60 60 63 64 65 65 63 61 60 60 62 63 63 63 63 63 63 63 63 63 63 63 63 62 62 61 60 60 59 59 57 57 56 55 55 56 57
51 54 51 53 55 58 59 59 61 60 63 63 62 61 61 61 62 63 62 62 62 62 63 63 63 64 64 63 63 62 62 62 62 61 61 62 61 59 58 56 55 55 56
50 55 55 54 55 57 60 61 61 60 61 62 63 63 63 62 63 63 63 64 63 64 64 63 64 64 63 63 63 62 61 61 60 60 60 60 60 60 59 58 56 53 53
53 53 56 53 56 57 58 61 61 61 61 61 61 62 64 64 62 63 63 62 61 60 62 62 61 61 61 61 61 59 58 58 58 59 59 59 59 59 59 58 58 56 52
53 54 54 53 55 57 58 58 59 59 59 59 59 59 59 59 59 59 58 58 58 58 59 59 59 59 59 59 58 57 57 57 58 58 58 58 58 57 58 57 58 57 56
56 55 52 52 54 54 56 56 56 56 56 56 56 57 57 57 57 57 56 57 57 57 57 57 57 57 57 57 57 57 58 58 56 55 54 53 53 52 53 53 53 54 54
53 53 51 49 51 52 53 54 54 54 54 54 55 55 56 55 55 55 55 56 55 55 56 56 57 57 55 56 56 54 53 53 53 51 51 49 49 49 48 49 49 51 52
50 50 49 49 50 51 51 51 52 52 53 54 53 53 53 53 53 53 53 53 53 52 53 52 51 51 53 53 53 53 51 50 48 46 46 45 45 44 45 47 47 48 49
45 46 48 47 48 48 49 49 49 51 51 52 51 50 50 50 50 50 50 50 50 49 49 48 48 48 49 48 47 46 45 44 44 44 44 43 42 42 42 43 44 45 47
44 44 45 45 45 46 46 46 47 48 49 49 49 48 48 47 47 47 46 47 46 46 46 45 44 44 45 45 43 43 42 42 41 41 41 41 43 46 46 44 42 43 45
44 44 43 45 45 45 44 45 45 46 47 47 46 46 47 45 44 45 44 44 43 43 43 42 42 42 44 48 47 42 40 40 40 39 38 38 42 42 46 47 47 46 43
44 45 44 44 44 45 46 44 44 44 45 44 44 44 44 44 43 43 43 42 41 41 40 40 40 39 41 47 44 42 38 36 37 38 36 38 40 40 38 42 43 42 44
43 44 44 44 44 44 44 44 44 44 43 42 42 43 43 43 43 42 41 39 39 39 38 38 38 38 41 47 46 43 39 40 39 38 37 37 37 38 38 36 34 34 37
43 43 44 44 43 44 43 43 42 42 42 42 42 42 42 41 40 40 38 38 38 37 37 37 37 37 37 45 46 40 35 35 34 36 36 37 37 43 43 35 33 33 34
42 43 43 43 43 42 43 43 42 42 41 42 42 42 41 41 40 39 37 37 37 37 37 35 35 40 35 43 46 43 35 33 33 36 37 42 39 43 44 37 35 32 33
42 42 42 40 41 42 43 42 41 42 43 43 42 41 41 40 40 38 37 37 37 36 35 36 37 38 36 36 44 46 37 37 36 35 35 36 42 43 44 41 35 35 35
42 42 40 40 40 42 43 41 41 42 42 42 41 40 39 40 39 37 36 36 36 35 37 38 37 38 35 41 43 44 45 42 36 35 36 36 41 42 43 41 41 41 39
41 41 40 40 39 40 41 41 40 41 41 40 39 39 38 38 37 37 35 35 35 35 34 35 35 35 34 35 42 44 45 45 39 37 38 41 41 42 40 42 42 42 31
41 42 41 40 39 39 39 39 39 40 40 39 38 38 37 37 37 37 37 36 35 34 34 34 33 35 36 36 37 36 37 43 41 41 38 39 40 40 37 36 36 32 30
39 39 40 40 39 39 39 40 40 40 39 38 37 37 38 39 37 38 38 37 38 39 37 35 34 34 34 34 38 36 34 35 37 37 34 33 33 33 32 30 30 28 28
42 41 40 37 37 36 36 37 38 39 38 38 38 38 38 38 38 38 38 43 43 43 43 42 39 36 40 42 43 43 42 43 43 36 32 32 32 32 32 30 29 27 29

GFSMW_sfc_temp_117.txt.gz
Temp
57 57 60 62 58 60 57 66 68 68 67 66 64 64 64 65 67 68 70 69 70 69 68 67 68 68 68 68 68 67 66 66 67 67 68 69 70 69 69 70 71 70 70
54 56 59 60 58 59 62 66 67 67 67 67 68 68 66 66 67 68 69 70 70 68 68 68 67 67 67 66 66 67 66 66 66 67 65 65 68 67 68 68 68 69 70
53 56 57 58 56 60 62 64 66 67 68 68 67 67 66 65 64 65 66 68 69 68 69 68 68 67 67 65 65 67 67 67 65 67 68 61 61 64 67 65 66 66 68
54 56 55 56 56 62 62 64 65 64 68 67 66 65 64 63 66 65 66 67 69 68 68 68 68 68 67 68 68 67 66 67 65 63 65 64 66 64 63 63 63 64 62
55 54 55 57 60 62 63 63 64 65 65 66 66 65 65 66 68 66 65 66 67 68 68 67 67 66 66 67 67 64 64 65 65 64 63 64 64 64 59 61 59 63 59
52 54 56 57 59 62 63 63 62 62 65 63 64 64 61 63 63 64 64 64 65 66 66 65 65 64 65 65 63 65 66 65 64 65 65 63 60 59 58 56 57 58 58
53 53 55 56 58 59 60 60 60 60 63 63 62 60 59 60 62 64 63 63 63 63 63 64 64 64 65 64 63 63 63 64 65 64 62 61 60 60 58 57 56 55 56
51 53 56 57 58 58 60 60 60 60 62 61 61 60 61 60 60 62 62 62 62 63 63 63 64 64 63 64 64 64 63 62 61 60 60 60 60 60 59 57 56 53 54
51 54 54 56 58 60 60 61 61 60 60 61 61 61 61 61 62 61 62 62 63 62 63 64 64 64 64 63 63 61 62 63 63 63 63 63 63 59 60 61 58 56 52
51 52 52 56 58 60 61 62 62 61 61 61 61 62 62 62 62 62 61 60 61 62 62 63 63 61 61 61 62 62 62 62 62 61 60 59 57 57 57 56 57 57 56
54 53 53 56 57 58 59 59 60 59 59 60 59 59 59 60 60 60 60 60 60 61 60 61 62 61 61 61 61 60 61 60 58 58 57 55 56 55 56 55 55 55 55
52 53 54 54 55 55 56 56 57 57 58 58 58 57 58 58 58 57 58 58 58 59 60 59 59 60 60 60 60 56 57 57 55 54 53 52 53 53 53 52 51 52 55
50 51 53 53 53 54 54 54 55 56 56 56 56 56 56 57 56 56 57 58 56 56 57 57 57 56 56 57 57 57 55 54 53 51 52 51 52 51 50 51 49 50 51
47 49 50 51 51 52 52 53 54 55 55 55 55 54 55 55 55 54 54 55 56 54 53 53 53 54 54 53 53 52 51 51 50 49 49 49 49 48 49 49 49 50 51
46 45 47 48 49 50 50 50 51 53 54 53 53 51 52 53 52 52 52 51 52 51 51 50 49 50 50 50 50 49 49 48 47 46 46 46 46 46 48 48 48 47 46
45 45 46 47 47 48 49 48 49 50 52 51 50 50 50 50 50 49 48 50 48 49 49 48 48 47 47 48 48 46 45 44 44 42 42 44 44 45 47 47 46 46 45
45 45 45 45 47 47 48 47 47 49 49 48 47 48 48 48 48 48 47 47 47 47 46 46 46 46 46 45 45 44 41 38 39 41 42 43 44 44 44 44 43 43 44
45 45 46 46 46 47 47 47 48 47 46 46 46 46 47 46 46 45 45 44 45 45 44 44 44 44 46 47 45 43 43 43 43 43 43 44 43 44 43 42 41 41 42
44 44 45 46 46 46 46 46 46 46 46 45 45 45 45 44 44 44 43 43 43 42 41 41 41 42 44 46 45 42 41 40 40 41 42 43 43 44 44 41 40 40 40
44 44 45 45 45 45 46 46 45 46 45 45 45 45 44 44 43 43 41 41 42 41 40 39 40 42 42 45 46 43 41 40 40 41 42 42 43 43 45 42 39 38 38
43 43 43 42 43 45 46 44 44 44 45 45 45 43 43 43 43 42 41 41 40 40 40 39 40 41 41 42 45 45 42 41 40 40 40 40 42 44 44 44 39 38 39
42 43 42 41 42 43 45 43 43 43 44 44 43 43 43 43 42 42 41 41 41 40 40 41 40 41 41 41 43 45 44 43 41 40 40 41 42 43 43 43 41 42 40
42 42 41 41 41 41 42 43 41 43 43 42 42 42 41 41 41 41 40 40 40 40 39 38 38 39 39 40 43 44 45 46 41 41 40 41 41 42 42 43 43 42 38
41 42 42 40 40 40 40 40 41 42 42 41 40 40 40 40 40 41 41 40 39 39 38 36 37 38 39 39 41 41 43 44 43 42 40 40 41 41 39 39 38 37 37
41 40 40 40 40 40 40 40 41 42 41 41 40 40 41 41 40 40 41 40 41 41 40 39 39 37 37 39 41 40 38 39 40 39 36 35 34 35 35 35 34 35 35
42 41 41 40 39 39 38 39 39 40 40 40 40 40 40 40 40 40 40 43 43 43 43 43 41 38 41 42 43 43 43 43 42 37 34 35 34 34 34 33 33 33 34